GFSSGP_sfc_thetae_000.txt.gz
Theta_e
338 330 320 309 297 296 293 296 298 300 302 304 306 305 303 304 304 302 322 333 340 346 350 352 355 353 353 350 346 343 342 338 337 337 336 337 336 338 338 338 336 335 334 331 331 331 330 332 333
336 328 312 303 293 288 292 297 299 300 303 305 307 306 304 307 318 320 323 339 344 347 350 350 356 354 353 349 346 344 341 340 337 336 336 336 338 338 337 337 334 334 333 331 330 330 328 329 332
324 323 306 298 293 289 291 298 299 303 305 306 305 309 308 310 321 322 326 340 344 346 348 351 356 356 354 349 346 344 342 339 336 336 335 337 339 341 339 339 336 336 335 332 331 331 332 332 331
317 310 303 295 292 296 297 300 301 303 305 307 306 306 312 316 318 326 329 340 341 342 345 353 356 356 354 351 346 345 343 340 338 336 337 337 341 342 343 340 341 339 336 334 332 332 333 335 336
311 304 296 293 294 297 299 302 301 301 302 304 306 303 308 317 324 327 327 338 338 340 345 352 355 356 353 350 348 345 343 342 338 338 338 339 341 342 344 342 341 338 336 334 333 334 334 334 335
306 302 293 291 294 299 301 303 301 301 302 305 304 304 307 317 324 326 328 329 343 343 348 351 354 354 352 351 350 348 345 343 340 339 339 339 338 340 342 341 340 337 336 334 336 336 336 336 335
304 299 294 294 295 298 302 303 298 300 302 304 306 302 307 314 323 328 326 331 344 347 348 348 350 350 351 351 350 349 348 346 343 341 339 340 339 336 338 343 340 338 336 336 337 337 336 336 337
307 301 295 295 296 297 304 304 302 301 301 308 309 302 304 312 322 327 327 334 341 345 346 345 345 347 345 346 348 347 347 346 345 343 341 340 338 338 339 342 340 338 338 338 337 336 336 337 337
311 298 295 297 298 301 305 303 306 307 305 307 308 306 309 314 324 324 324 326 333 340 341 344 343 343 343 342 343 345 345 344 343 340 338 335 328 327 331 335 337 340 338 337 338 338 339 340 338
306 299 299 303 304 302 305 304 304 303 303 304 305 309 311 318 319 322 322 324 325 330 334 339 341 340 341 343 338 338 338 337 335 334 331 330 327 326 328 331 335 338 339 339 340 340 341 338 331
307 302 304 305 307 306 305 303 306 304 301 305 305 307 308 313 316 319 320 323 327 330 332 336 338 338 339 337 336 334 333 333 332 331 330 329 326 324 325 325 326 326 328 328 330 328 327 327 328
301 307 308 309 310 309 305 306 304 304 305 309 309 310 310 310 310 310 311 317 322 327 331 333 336 337 334 335 334 332 331 330 329 330 330 326 324 325 324 325 325 326 327 328 330 328 325 321 319
301 303 309 311 311 310 310 306 304 305 308 309 310 311 309 310 310 311 311 310 313 325 330 331 333 334 332 332 331 329 328 329 327 326 326 326 326 326 326 326 326 326 327 323 315 311 311 309 310
303 305 306 308 308 309 308 307 304 306 308 308 309 309 308 309 310 307 311 316 317 323 329 331 333 333 333 331 330 329 327 329 326 326 327 328 327 326 324 313 313 315 310 308 307 305 305 304 305
304 300 303 304 306 306 308 303 304 306 308 307 307 307 308 308 308 308 312 315 316 320 326 329 332 334 333 331 331 328 330 329 327 326 322 323 321 314 311 309 306 307 306 304 303 302 301 301 302
298 298 294 301 305 307 306 298 305 307 304 305 305 305 305 306 308 309 313 314 314 317 320 325 334 333 332 330 329 326 325 320 312 310 311 310 310 308 306 303 302 303 302 300 300 299 297 298 297
294 288 291 296 305 304 303 299 305 307 304 304 304 304 304 304 305 308 310 312 315 316 317 319 330 331 329 323 319 313 310 309 308 305 305 305 305 304 302 300 300 301 299 297 297 295 295 295 295
290 289 291 291 299 303 301 301 304 305 304 303 304 301 301 304 305 307 309 310 316 316 316 318 328 321 312 312 311 309 306 303 302 301 302 301 300 300 299 297 298 298 296 295 294 293 294 294 294
293 291 289 293 299 298 298 300 303 306 302 302 301 299 300 303 305 306 308 312 315 317 317 321 319 310 310 310 308 306 301 300 298 298 298 298 297 297 296 296 295 296 294 292 293 293 293 293 293
292 289 289 293 297 297 297 297 302 305 305 303 303 298 300 302 303 306 310 312 315 317 318 318 314 310 311 309 305 304 301 299 298 296 295 295 295 296 296 294 294 293 293 291 291 291 291 292 292
290 288 288 289 295 297 295 293 298 303 304 305 303 301 303 304 303 305 309 311 313 313 314 315 312 311 310 308 306 303 302 300 297 295 293 293 294 294 294 293 292 292 291 290 289 289 289 288 290
285 293 293 292 290 284 298 286 293 299 301 302 302 299 302 302 303 305 308 307 309 309 310 311 311 310 308 307 304 302 299 297 297 296 293 292 293 293 293 292 291 290 290 288 288 290 288 288 286
288 293 291 292 289 287 289 287 292 297 296 300 301 299 302 303 304 306 308 308 307 307 307 308 308 308 306 304 302 300 299 298 297 294 291 290 290 291 291 290 289 289 289 287 287 287 286 287 286
294 291 290 290 288 281 287 289 288 293 296 298 298 299 301 303 303 305 305 306 304 303 303 304 305 303 303 302 300 300 297 295 293 291 290 290 289 289 289 289 288 287 287 287 287 286 285 285 285
291 287 280 278 277 278 288 287 289 295 299 301 298 298 301 303 303 304 304 304 301 300 300 301 301 299 300 299 298 297 294 292 290 289 289 288 287 287 287 287 286 286 286 286 286 285 284 284 284
288 287 280 273 274 278 290 285 289 299 302 303 303 301 301 301 304 304 304 302 301 301 299 299 298 296 296 295 293 291 291 290 289 288 288 287 286 286 286 286 285 285 285 285 284 284 284 284 283
286 283 290 284 284 281 285 289 297 300 296 297 298 299 300 302 303 303 303 302 301 299 298 298 296 294 293 291 290 289 288 288 287 286 286 286 286 288 285 284 284 284 284 284 283 283 283 283 283
289 291 282 283 275 276 283 286 290 294 293 295 297 298 300 302 302 303 303 302 301 299 297 295 294 293 290 289 288 287 287 286 286 285 285 285 284 284 284 284 283 283 283 283 282 282 283 282 282
287 286 287 286 285 281 282 286 295 296 295 296 298 299 300 301 302 303 303 302 299 297 295 294 292 291 289 287 286 285 285 285 285 284 284 284 284 283 283 283 283 283 283 283 282 282 282 282 281
291 288 288 282 281 286 284 284 294 300 298 299 299 300 300 302 302 303 303 300 298 296 294 292 290 289 287 286 285 285 284 284 284 283 283 284 283 283 283 283 283 283 283 283 282 281 281 281 280

GFSSGP_sfc_thetae_003.txt.gz
Theta_e
341 330 313 307 296 293 290 295 296 299 301 302 303 302 303 303 303 300 321 332 338 342 349 353 357 354 351 349 345 343 340 338 338 335 335 336 335 337 337 338 337 336 334 331 330 331 331 332 333
331 324 310 301 293 286 289 294 297 300 302 303 304 303 303 307 317 318 324 335 342 346 349 349 356 353 352 349 345 343 341 338 337 337 337 337 338 339 336 336 333 333 334 331 330 330 330 329 331
324 317 304 297 291 289 289 295 297 301 303 305 304 307 306 311 320 320 324 340 345 345 348 349 355 354 353 349 346 344 342 339 336 336 335 337 338 339 340 335 336 336 335 332 331 331 332 333 333
315 310 302 294 292 295 294 298 298 300 303 306 304 304 311 315 318 324 333 341 342 343 345 351 355 355 353 350 346 344 342 339 336 336 336 336 340 342 341 341 342 340 337 333 332 332 333 334 335
310 304 296 292 293 295 297 301 299 298 301 302 304 303 307 316 323 326 336 340 339 340 344 351 356 356 354 350 347 344 342 340 337 335 337 337 339 340 343 343 340 338 336 333 333 334 335 335 334
306 301 292 291 293 297 299 302 300 299 300 303 303 304 307 316 322 324 334 336 339 340 345 351 354 354 353 351 349 347 343 341 337 338 338 339 337 339 341 341 340 338 336 335 335 336 337 337 336
303 297 293 292 294 297 300 303 296 297 300 303 306 301 306 312 322 325 326 334 340 342 346 348 350 351 350 349 348 347 346 344 341 341 339 339 339 336 338 342 340 339 337 337 337 338 337 336 337
306 301 294 294 294 296 302 303 301 299 300 305 307 301 303 311 318 325 324 336 340 343 346 346 347 346 345 345 348 347 346 345 344 342 340 340 338 339 337 342 339 339 339 339 338 337 338 339 339
308 297 294 296 296 299 302 301 305 305 301 304 305 306 308 311 323 324 322 330 337 343 344 345 345 344 343 343 344 345 345 344 343 340 338 335 327 326 330 335 337 338 339 338 339 339 340 340 339
305 298 298 301 301 300 303 302 303 301 302 302 303 307 312 318 321 322 322 324 332 338 339 343 341 340 339 343 339 337 339 338 336 333 330 328 325 324 327 330 335 338 339 339 338 339 338 332 328
305 300 304 304 306 306 303 301 304 302 299 303 304 305 308 315 319 321 322 323 327 335 336 339 339 338 338 337 334 334 333 333 331 330 328 327 325 322 324 323 324 324 328 328 329 327 324 319 318
299 304 306 307 309 307 304 305 302 302 302 306 306 307 306 312 315 318 319 321 322 326 332 336 336 336 336 334 333 332 330 330 328 329 328 325 322 322 323 324 326 327 326 326 320 312 309 307 307
300 302 305 308 309 309 310 306 304 304 306 308 307 307 307 308 308 310 314 313 319 323 329 332 334 335 335 332 331 330 329 329 328 328 327 324 324 323 324 325 320 314 313 309 305 304 302 302 302
301 302 303 306 306 306 306 307 305 304 306 305 306 307 307 307 307 306 309 310 308 315 327 330 332 334 332 330 329 327 326 327 325 324 324 327 326 320 308 309 311 309 305 304 301 299 298 298 298
302 297 300 302 303 303 305 302 302 306 306 304 304 305 307 307 307 307 309 310 314 318 326 330 332 333 331 329 329 327 326 328 326 324 323 321 313 310 309 308 306 303 301 299 297 296 297 296 296
297 295 290 298 302 304 305 295 303 307 305 303 303 303 304 306 306 306 308 311 314 318 326 329 335 332 331 330 329 324 322 314 311 311 311 310 309 308 304 302 301 298 297 297 295 294 294 294 293
294 287 288 294 302 302 301 297 303 307 306 302 302 302 304 304 304 306 310 312 313 316 322 327 332 331 329 322 315 312 310 309 308 308 307 305 305 303 299 299 298 296 295 294 294 293 292 292 292
286 287 291 289 296 300 298 297 301 304 303 303 303 303 301 302 304 305 308 310 314 315 316 325 330 325 314 310 309 307 306 304 304 303 302 300 299 298 296 296 296 295 294 293 292 291 291 292 291
291 290 290 293 297 294 294 295 298 302 303 303 300 303 301 300 302 305 307 310 313 314 314 323 319 311 311 309 307 305 302 301 299 299 297 296 296 296 295 294 294 293 292 290 290 290 290 290 291
290 290 289 293 296 295 293 292 297 299 301 303 304 304 301 299 302 303 305 310 314 314 315 315 310 310 311 310 304 304 302 299 295 294 294 294 295 295 294 293 292 291 290 289 288 289 288 288 290
288 286 288 288 292 294 291 289 292 297 301 304 305 304 303 301 302 302 305 310 312 313 314 309 308 308 308 305 304 302 300 297 293 292 292 292 293 293 293 291 291 290 289 288 287 287 286 285 287
284 291 291 289 286 281 291 281 290 294 296 301 303 300 300 300 302 303 307 309 311 312 312 309 309 308 306 306 304 301 296 294 294 292 291 291 292 291 291 290 289 288 288 286 286 288 286 285 284
287 292 290 290 287 285 286 283 285 294 293 296 299 299 299 301 303 304 308 311 311 309 310 309 309 307 304 302 302 299 297 296 294 290 289 289 289 290 290 289 288 287 287 286 285 284 284 285 284
292 289 288 288 285 279 283 283 283 288 293 295 298 299 299 301 302 304 306 307 306 306 308 308 307 304 303 301 299 299 297 294 291 289 288 288 288 288 288 288 286 286 285 285 285 284 283 283 283
289 285 279 278 277 276 285 283 285 291 295 297 298 298 297 300 301 304 305 306 304 304 305 306 305 302 300 299 299 298 296 294 291 289 289 287 287 286 286 286 285 284 284 285 284 283 283 283 282
286 285 278 273 273 275 284 280 286 295 298 299 301 298 298 299 302 305 306 305 304 302 303 304 303 299 299 298 297 295 293 292 290 289 288 287 286 286 285 285 284 284 284 283 283 283 283 283 282
286 283 287 281 283 280 281 286 293 297 298 299 297 297 297 299 302 304 304 302 300 300 299 300 299 295 295 294 291 290 289 289 287 286 286 286 285 287 284 284 283 283 283 283 282 282 282 281 281
287 290 281 282 274 274 278 282 285 291 294 297 295 296 298 300 302 303 301 299 299 297 295 295 296 294 291 289 289 288 287 286 286 285 285 284 284 284 283 283 283 283 283 282 282 281 282 281 281
286 284 285 283 280 273 274 280 291 292 295 293 294 296 298 300 301 301 300 299 297 295 294 292 292 290 288 287 286 285 285 285 284 284 283 283 283 283 283 283 282 282 282 282 281 281 282 281 281
290 285 285 280 274 280 281 282 295 294 293 295 296 299 301 302 301 301 300 297 296 294 292 290 289 288 286 285 285 284 284 284 283 283 283 283 283 283 282 282 282 282 282 282 281 280 281 280 280

GFSSGP_sfc_thetae_006.txt.gz
Theta_e
335 325 310 306 296 292 289 293 296 297 299 302 301 305 303 302 305 301 320 330 334 336 343 352 356 354 351 348 345 343 340 341 337 337 338 336 336 337 336 337 336 335 333 332 331 331 330 332 334
329 321 309 300 292 286 289 293 295 298 300 302 304 304 303 308 316 318 324 331 339 342 348 350 356 353 351 348 346 343 340 338 337 336 336 337 335 338 335 338 333 332 333 332 330 331 331 330 329
320 312 304 296 290 288 289 293 296 300 301 301 303 308 306 310 319 320 324 335 342 344 348 349 356 354 352 348 346 344 341 338 337 337 335 337 338 340 339 335 335 335 334 332 331 331 332 334 334
313 309 302 293 291 293 294 295 298 299 302 303 303 303 310 315 317 322 332 341 342 343 344 351 354 354 353 350 346 344 342 339 337 337 336 336 339 340 341 342 342 341 336 333 332 332 332 333 334
309 303 295 291 292 294 296 299 299 298 299 299 302 302 307 314 323 327 336 340 339 340 343 349 355 354 353 350 347 344 342 340 337 336 336 337 339 340 343 342 340 338 336 333 333 334 335 335 336
305 300 291 289 292 295 297 300 299 298 299 300 300 304 307 315 322 326 336 336 339 340 344 348 353 354 353 351 348 346 343 340 337 336 337 337 337 340 343 343 340 338 335 336 335 337 337 337 336
302 296 291 290 292 295 298 301 296 297 296 300 303 301 306 309 322 326 332 334 337 340 344 347 349 351 351 349 348 347 345 342 339 340 339 340 339 336 339 342 340 338 337 337 338 338 337 337 338
305 299 292 293 293 294 301 303 302 297 298 303 304 301 303 308 319 324 328 335 336 339 343 344 345 346 344 343 347 346 345 344 343 342 340 339 339 338 337 341 339 338 337 338 338 338 339 339 339
306 296 293 294 295 297 301 299 303 303 300 303 304 303 307 309 322 322 324 332 338 341 342 346 346 345 341 342 343 345 344 343 342 339 337 334 326 325 327 334 336 337 338 338 339 340 340 335 333
304 296 296 301 299 299 301 302 301 301 301 301 303 306 310 315 319 320 320 325 334 337 340 344 342 342 339 344 340 338 339 337 336 333 329 326 323 322 326 328 333 336 335 334 336 335 329 322 319
302 298 302 303 304 305 303 301 303 300 300 303 303 305 307 314 318 320 320 322 328 335 339 341 341 341 337 338 335 334 334 333 332 330 327 326 323 321 323 322 323 323 327 329 324 312 309 306 306
296 303 305 306 308 306 303 305 302 301 302 305 305 305 306 310 316 319 320 321 322 328 334 338 340 338 336 334 333 332 331 330 328 328 326 325 321 321 321 324 325 323 325 308 306 304 302 301 300
298 300 304 306 306 307 308 306 305 305 307 308 308 306 306 306 310 313 317 317 319 322 327 333 336 336 335 332 331 330 329 329 328 327 327 325 322 322 322 318 313 310 306 303 300 298 298 296 297
300 301 301 303 304 305 304 304 304 307 307 305 305 305 306 305 307 305 307 308 308 313 322 330 334 335 334 332 329 329 328 328 325 325 325 326 328 316 311 310 307 305 302 298 296 295 295 294 293
301 296 298 299 301 301 304 300 301 307 307 305 304 304 305 306 306 306 308 308 309 308 312 327 332 334 333 332 330 329 329 327 327 327 329 326 313 310 309 306 302 298 297 295 294 293 294 292 293
296 294 288 295 299 301 302 293 300 304 305 305 307 303 303 305 306 305 306 306 307 312 319 326 333 332 331 329 328 328 327 321 316 315 314 311 309 307 304 300 297 295 294 294 293 292 292 291 290
292 284 287 291 298 299 299 293 301 304 304 303 302 301 302 303 305 304 306 307 311 313 321 326 329 330 329 324 319 317 312 313 310 309 308 306 302 302 300 296 294 294 293 292 292 291 290 290 290
283 286 288 290 295 296 295 296 300 301 302 301 301 301 301 302 304 306 305 308 313 314 321 327 329 327 316 313 311 309 307 305 305 304 302 301 298 297 296 294 293 293 292 290 289 289 289 290 289
288 287 287 291 296 294 291 292 295 297 299 299 302 301 303 302 305 304 305 308 312 313 320 326 323 315 312 312 309 307 304 301 300 299 299 298 295 295 294 293 292 291 290 288 288 288 287 287 289
291 289 288 290 294 293 291 290 294 296 298 299 300 302 302 303 300 303 304 307 311 311 317 320 317 312 313 314 309 305 302 298 297 297 296 294 294 294 293 292 290 289 288 287 286 286 286 286 287
286 285 285 285 290 291 288 286 289 294 297 299 300 301 304 305 301 301 302 306 310 310 313 313 311 312 311 305 301 299 298 296 295 294 292 292 292 292 291 290 289 288 287 286 285 285 285 284 285
283 289 289 288 284 278 287 277 285 288 292 295 298 299 302 303 300 301 302 306 309 310 310 308 308 310 307 306 303 299 296 295 294 290 290 290 291 290 290 289 288 287 287 285 285 286 284 284 282
286 291 289 288 285 282 284 281 281 287 288 293 296 298 300 303 302 301 303 308 310 310 306 307 308 308 306 307 304 301 297 295 291 289 288 288 288 289 289 288 287 286 286 284 284 283 282 283 283
291 287 287 286 286 278 281 281 281 283 286 292 295 297 300 300 300 301 304 308 308 308 306 307 308 306 305 304 302 300 297 292 289 287 287 287 287 287 287 287 285 285 284 284 283 283 282 282 282
289 285 277 277 277 275 282 280 283 287 290 292 294 296 297 298 298 301 305 308 307 307 306 307 309 304 302 300 298 299 295 292 289 288 287 286 286 285 285 285 284 283 283 284 283 283 282 282 281
285 284 278 271 275 274 282 278 282 291 294 295 296 298 296 296 298 302 306 309 308 307 306 308 307 302 300 298 296 295 293 292 289 289 287 286 285 285 284 284 283 283 283 283 282 282 282 281 281
287 282 286 281 281 277 278 282 289 294 294 295 294 295 295 296 298 302 305 307 306 306 306 305 303 299 298 296 294 292 291 290 289 287 286 285 285 286 283 283 283 282 282 282 281 281 281 280 280
289 290 281 281 273 270 276 278 280 288 290 293 294 295 295 297 298 302 303 301 302 302 299 300 300 298 294 292 291 289 287 287 286 285 284 284 283 283 283 282 282 282 282 281 281 281 281 280 281
286 284 284 284 281 271 271 276 287 289 291 293 294 296 296 297 299 302 301 300 297 296 296 295 294 292 290 288 287 286 285 285 284 283 283 283 282 282 282 282 282 282 281 281 280 280 281 280 280
288 285 284 278 273 277 273 278 292 293 293 294 296 295 295 297 299 299 297 297 296 294 293 291 290 289 287 286 286 285 285 283 283 282 282 282 282 282 282 282 282 281 281 280 279 280 280 280 280

GFSSGP_sfc_thetae_009.txt.gz
Theta_e
335 327 315 314 304 300 296 298 302 302 303 307 307 308 308 309 310 309 330 335 336 341 348 353 356 354 351 347 346 343 342 339 337 340 338 336 336 336 336 337 335 335 333 333 332 332 331 332 334
328 322 315 307 299 294 295 299 299 303 306 306 307 309 309 311 321 324 329 335 339 343 348 353 356 354 351 348 346 343 341 341 337 337 337 336 336 338 336 338 336 333 334 333 331 332 333 331 330
322 314 311 303 296 294 295 299 302 304 305 305 308 312 311 315 324 325 331 336 342 343 348 352 355 354 352 348 346 343 341 338 337 338 337 337 337 339 337 337 335 333 335 333 332 332 333 334 335
318 314 307 299 296 298 299 301 303 304 307 307 308 308 315 320 324 327 335 342 343 345 350 353 354 354 352 350 346 345 341 338 337 337 336 336 338 340 340 341 342 340 336 333 332 333 334 334 335
313 309 300 296 296 299 301 303 304 303 304 305 307 308 312 320 328 332 339 343 342 344 350 352 354 354 353 350 347 345 342 340 337 337 336 336 339 341 343 341 340 338 336 333 334 336 337 337 337
309 306 296 294 297 299 302 305 305 304 305 305 307 308 312 320 328 336 341 342 344 345 349 351 352 353 353 351 349 346 343 340 337 336 336 336 338 340 343 342 340 339 336 337 336 338 338 337 337
306 301 297 296 296 298 302 306 303 304 303 304 309 307 312 316 328 337 340 342 343 346 348 350 350 351 350 349 348 347 344 342 339 339 339 340 339 338 342 342 340 338 338 337 338 339 339 339 340
308 304 297 297 297 298 305 305 307 304 304 309 311 307 309 315 328 334 338 339 340 344 347 349 351 351 350 348 347 346 344 344 342 342 340 339 338 337 338 340 340 338 338 338 338 340 341 339 337
309 301 297 298 297 300 305 304 308 308 306 308 310 309 313 317 326 328 331 337 338 341 345 345 348 349 349 347 344 344 343 342 341 339 337 335 334 332 333 334 336 337 338 338 339 337 332 328 324
307 301 300 303 303 302 305 305 306 306 306 307 309 312 314 320 324 324 326 330 335 338 341 345 346 347 347 345 345 344 342 342 341 338 337 334 331 329 330 330 333 334 333 335 331 323 318 316 314
305 300 304 305 306 307 306 305 308 305 304 307 308 309 311 317 321 323 325 328 332 338 340 342 343 343 344 345 344 342 343 342 340 337 335 333 331 332 332 333 333 333 331 320 316 313 311 309 308
301 305 306 307 309 308 306 308 307 305 308 311 309 310 310 311 314 321 324 326 329 335 340 341 342 341 342 344 343 341 340 340 338 337 334 333 330 331 332 333 330 325 313 313 310 308 306 304 303
301 302 305 307 307 307 308 307 307 308 310 312 314 313 311 311 311 315 322 325 326 328 337 341 342 340 341 342 341 340 338 338 338 335 334 333 330 332 328 314 312 310 310 307 305 305 303 301 301
301 302 302 304 304 306 304 305 306 308 312 311 310 310 310 310 311 312 312 315 319 325 329 337 341 339 340 340 338 339 336 336 336 334 334 332 330 322 314 310 308 308 305 303 303 302 301 299 299
302 298 300 300 302 302 305 300 301 309 310 308 309 310 311 311 312 310 313 313 315 315 317 328 337 341 341 340 338 337 335 334 333 332 331 330 318 313 310 307 304 303 302 301 301 300 301 298 298
297 297 291 297 300 302 303 292 302 306 306 306 308 307 309 311 313 313 312 312 314 314 315 319 331 337 339 338 337 335 333 330 328 327 323 314 311 310 305 302 301 301 300 300 299 298 299 298 297
293 286 289 293 300 300 300 295 301 306 304 304 305 307 307 308 309 311 311 312 312 314 317 324 332 335 336 334 332 328 323 321 318 315 311 309 307 306 302 301 300 299 298 298 297 296 297 296 296
285 287 289 289 295 296 295 294 299 303 303 304 304 305 305 306 308 311 311 311 312 315 319 328 332 334 330 325 316 313 311 308 309 307 305 303 303 302 300 299 298 298 297 296 296 295 295 295 294
291 289 288 291 295 293 292 293 296 299 299 299 301 303 304 306 309 311 310 311 313 318 322 329 329 325 321 318 312 310 306 304 302 302 301 300 299 300 299 298 297 296 295 294 294 295 293 293 294
290 288 288 291 294 293 291 290 294 296 297 299 300 301 304 306 308 309 308 310 313 317 323 327 327 320 321 319 318 312 305 301 300 299 298 298 299 299 298 297 295 295 294 293 293 293 293 292 293
289 287 287 287 290 292 289 286 289 292 295 298 300 301 303 303 305 308 307 309 313 316 321 324 320 319 319 313 308 301 299 298 297 296 296 296 298 297 296 295 294 294 294 292 292 292 291 290 291
284 290 289 288 286 280 288 278 286 291 292 294 296 298 300 302 305 308 307 307 312 316 320 319 316 318 312 311 307 304 304 300 298 296 295 295 296 295 294 294 293 293 292 291 291 291 291 291 288
286 291 289 288 286 284 285 281 284 288 288 292 295 297 299 302 305 306 307 309 311 315 316 315 314 313 309 309 309 304 300 299 295 294 294 293 293 294 293 293 292 291 291 290 290 290 290 290 289
292 289 288 287 286 279 283 282 282 286 288 291 294 296 299 303 304 306 307 308 312 314 312 312 312 311 309 308 306 303 297 295 293 293 292 292 292 292 291 291 291 290 290 290 290 289 289 289 288
289 286 278 277 277 276 284 282 284 289 292 293 294 296 298 301 302 302 305 308 311 311 310 311 311 308 308 307 304 301 298 297 295 293 292 291 290 290 290 290 289 289 289 289 289 289 288 288 288
286 285 279 273 274 277 282 279 284 291 294 295 296 297 297 300 301 302 305 309 311 311 310 311 310 306 306 303 302 300 297 296 295 294 292 292 291 290 289 289 289 288 288 288 288 289 289 288 288
286 282 288 281 282 278 280 283 288 291 293 295 296 298 298 298 301 302 305 309 311 310 310 311 309 306 302 300 298 295 295 295 294 292 292 291 290 288 288 288 288 288 288 288 287 288 287 287 287
289 290 281 282 274 273 277 279 281 286 289 294 294 297 299 298 299 302 305 309 310 311 309 310 308 303 300 298 298 296 294 294 292 291 290 289 288 288 287 287 287 287 287 287 287 287 287 286 287
286 284 285 284 282 275 274 278 286 287 292 293 295 298 299 298 299 302 305 307 308 307 307 306 301 298 296 296 294 293 291 290 290 289 288 287 287 287 287 287 286 286 286 286 286 286 286 286 286
289 286 285 279 276 279 277 278 290 292 295 294 295 297 299 299 299 303 302 301 302 303 302 302 298 295 294 292 291 290 289 288 287 287 287 287 286 287 286 286 286 286 285 285 285 285 286 285 284

GFSSGP_sfc_thetae_012.txt.gz
Theta_e
336 330 328 321 307 306 301 302 307 306 308 313 312 311 313 315 316 313 336 341 340 344 350 354 355 354 351 348 345 344 342 339 339 340 338 336 338 337 339 338 336 334 334 333 333 333 333 333 334
332 325 325 317 303 299 301 306 303 308 311 312 313 313 312 314 322 328 332 340 342 345 351 350 356 354 350 348 346 343 343 338 340 340 337 336 337 338 336 337 337 334 334 333 332 333 335 333 333
328 322 315 309 304 299 300 306 307 310 312 310 312 317 316 317 327 329 337 341 342 346 351 351 356 354 351 348 346 343 342 339 338 338 337 337 338 336 339 337 335 335 335 333 333 333 334 334 335
324 320 315 303 300 304 305 307 309 309 312 313 312 312 319 325 328 332 338 342 341 345 350 354 354 354 352 349 346 343 341 339 338 338 336 336 338 339 337 336 339 338 335 333 334 334 335 336 336
324 317 304 302 302 306 308 310 310 308 310 311 312 311 315 325 333 335 340 343 341 344 349 353 355 354 352 349 346 345 341 339 338 337 336 337 340 342 342 340 339 338 335 334 335 337 337 337 337
312 313 301 298 301 306 308 311 310 309 311 311 310 311 315 326 332 338 342 343 344 344 348 350 353 353 352 350 348 346 343 340 337 338 336 336 339 341 343 341 339 338 336 337 337 338 338 338 339
309 306 300 301 301 303 306 311 309 309 310 310 314 310 316 321 334 341 342 343 345 345 347 348 351 350 350 349 348 347 343 342 339 337 337 339 339 339 343 343 340 338 338 338 339 339 340 341 340
314 308 301 302 300 301 308 309 311 310 309 313 315 310 312 320 334 340 341 342 343 344 346 346 347 346 349 348 347 346 345 343 342 342 340 339 338 337 341 341 340 338 338 338 340 341 337 336 333
317 304 299 301 302 303 309 307 312 313 311 313 314 314 317 322 332 336 337 339 340 342 345 346 346 347 349 347 344 344 343 341 340 339 337 334 336 334 333 334 336 337 338 338 337 330 325 322 322
310 303 302 307 308 306 308 309 310 310 310 311 314 317 318 321 326 330 332 334 337 339 342 346 347 348 348 345 345 342 339 341 339 338 338 336 333 330 333 333 334 334 334 331 325 320 316 323 321
308 303 307 308 310 310 308 309 312 309 307 312 312 315 317 318 321 325 328 330 335 339 342 345 346 348 347 346 344 342 340 341 341 339 339 334 332 333 334 335 335 338 332 328 325 322 318 315 313
302 307 308 308 311 311 309 312 310 310 310 315 316 316 318 319 320 319 325 328 332 337 341 344 346 346 347 346 344 342 340 341 340 339 338 334 332 334 334 336 337 332 324 322 320 318 313 310 308
304 305 307 309 310 310 310 308 309 310 314 317 318 318 319 319 320 321 321 326 331 334 339 343 344 344 345 345 344 342 340 340 340 339 338 335 334 335 335 325 321 319 319 317 315 312 308 307 306
304 305 306 307 307 307 305 306 308 309 313 313 314 315 317 319 320 320 320 321 326 331 334 341 344 345 345 345 344 343 341 340 340 340 336 336 336 335 324 314 313 315 313 310 308 307 306 305 304
305 300 303 304 304 304 307 302 303 309 311 310 311 313 314 316 319 320 321 321 322 324 328 333 341 345 341 344 345 343 341 340 339 338 337 337 334 324 316 309 309 310 308 306 306 306 306 304 303
299 300 295 301 303 304 303 295 303 310 310 309 310 311 312 314 315 319 321 322 323 322 322 323 329 340 343 346 344 343 341 340 338 338 337 329 320 314 309 309 308 307 306 306 304 303 303 302 302
296 291 293 296 302 302 302 298 304 308 309 308 309 311 312 313 315 317 319 321 322 322 322 322 325 330 338 342 342 342 340 338 333 331 324 318 314 308 306 307 306 305 304 303 302 301 301 300 301
290 291 293 292 298 299 298 298 303 306 305 305 307 310 312 312 314 317 319 320 321 322 322 323 327 331 336 339 339 339 333 327 324 321 316 311 309 309 308 306 304 304 302 301 301 299 300 299 299
293 292 292 295 299 296 295 296 299 302 303 303 304 306 308 310 315 317 319 321 321 321 322 324 329 334 336 334 330 323 319 315 312 309 307 305 304 305 307 305 303 303 301 299 299 299 298 297 298
293 291 291 295 297 295 295 294 297 299 300 301 303 304 306 308 311 314 316 318 318 320 323 326 331 334 335 333 332 328 321 315 311 303 302 301 302 304 305 304 302 301 300 299 298 298 298 297 297
292 291 291 290 294 295 293 291 295 298 300 300 301 303 304 305 307 311 313 316 318 320 323 327 331 332 332 332 329 321 311 306 300 298 298 299 301 302 303 302 301 300 300 298 297 297 296 295 296
288 293 292 290 288 284 291 284 292 296 296 298 300 302 303 305 306 308 311 313 316 319 324 329 331 330 331 329 319 314 314 310 302 299 297 298 300 302 301 300 300 299 298 297 296 295 295 296 293
289 293 291 291 289 286 288 282 289 294 293 296 299 302 304 305 306 307 309 311 315 319 323 329 329 328 327 321 320 321 317 311 301 297 296 297 300 300 299 299 298 297 297 296 295 295 295 295 294
294 291 290 289 287 280 286 285 286 290 294 296 298 301 303 304 307 308 311 312 314 319 323 327 326 326 321 319 322 320 313 301 295 296 295 297 299 298 297 297 297 296 296 295 295 295 294 294 294
292 287 282 278 278 279 288 285 287 293 295 297 298 300 302 304 305 307 309 311 313 317 321 324 325 321 318 316 316 311 306 300 297 297 297 298 297 296 296 296 295 295 295 294 294 294 294 293 293
288 288 282 275 278 281 287 282 287 295 298 299 300 301 305 306 307 306 309 311 313 316 319 322 323 318 316 316 310 305 300 302 299 300 300 299 298 297 296 295 294 294 293 293 294 294 294 293 293
287 283 291 283 285 280 283 288 292 295 295 297 298 302 303 305 306 306 309 311 314 316 318 320 321 319 316 313 308 303 301 302 300 300 301 299 298 295 295 294 293 293 293 292 293 293 292 292 292
291 292 283 284 275 275 281 283 284 290 292 295 299 300 301 304 305 307 307 311 314 317 318 320 320 317 314 309 305 298 301 301 299 300 298 297 295 294 293 293 293 292 292 292 292 292 291 291 292
287 285 286 286 284 277 276 282 292 291 293 294 298 299 301 304 305 306 307 310 315 317 317 318 317 314 309 305 297 297 297 297 297 298 297 295 294 293 292 292 291 291 291 291 291 290 290 290 290
292 288 287 281 279 283 281 282 294 294 296 299 298 299 302 304 305 306 307 311 314 315 316 315 313 309 305 298 297 295 296 297 297 295 294 293 292 292 291 291 291 290 290 290 289 289 290 289 289

GFSSGP_sfc_thetae_015.txt.gz
Theta_e
338 330 328 322 308 307 302 304 309 307 308 314 315 313 314 316 316 312 337 341 342 347 352 352 355 353 350 347 345 343 341 339 342 341 340 342 340 340 340 338 337 336 335 334 334 335 334 334 334
332 326 324 316 304 299 302 308 305 307 312 315 314 315 314 314 323 330 333 340 342 347 351 350 355 353 350 347 345 344 339 340 341 340 337 337 338 337 338 338 336 337 335 334 334 335 336 336 336
329 325 315 309 304 299 302 308 309 310 313 313 313 317 317 318 327 331 339 340 342 346 350 352 355 354 351 348 345 344 340 338 340 338 337 336 338 336 338 337 336 337 334 334 335 336 336 336 336
323 320 315 304 302 306 306 309 310 310 312 314 315 312 321 326 329 334 340 340 341 346 349 352 354 353 352 348 345 343 341 338 338 338 338 338 337 337 338 337 338 338 335 335 336 337 337 337 337
323 315 305 302 302 306 310 311 311 309 310 312 314 312 316 327 334 338 339 339 340 344 351 351 354 353 352 349 345 343 341 339 339 338 337 340 341 341 342 339 339 338 336 336 336 338 338 338 337
312 312 301 298 302 307 310 312 311 310 311 312 311 313 316 329 332 337 341 340 340 343 348 350 352 352 352 349 347 344 341 340 339 338 337 339 339 343 343 341 340 338 338 337 338 339 339 339 341
310 307 301 302 302 304 308 313 310 310 310 311 314 310 318 323 336 339 341 341 341 343 345 350 350 350 349 349 348 346 343 341 340 339 337 341 339 343 344 342 340 339 338 338 339 341 342 340 339
314 309 302 303 300 302 309 310 312 310 310 316 316 309 312 326 335 339 339 340 340 342 344 345 348 350 347 347 347 345 345 343 341 341 341 340 339 341 343 343 341 339 338 339 340 337 336 332 328
318 305 300 302 302 304 310 308 313 314 311 313 315 315 319 324 333 335 336 338 339 340 343 344 344 344 346 346 344 344 343 341 341 339 337 334 334 334 334 335 338 338 338 338 332 327 322 323 323
309 302 302 307 307 307 309 309 310 310 310 310 313 318 319 322 326 329 331 333 335 337 340 343 343 343 346 345 344 342 339 337 334 335 335 334 332 331 333 333 336 336 336 330 325 319 319 324 322
308 302 306 307 310 311 309 309 312 309 308 311 311 315 318 319 322 324 327 330 334 337 340 342 344 345 344 342 344 340 339 339 338 337 337 332 329 329 332 333 332 334 332 329 324 323 319 316 313
303 306 307 309 310 310 308 310 308 310 310 315 316 318 318 318 319 320 323 326 329 335 339 342 345 346 347 345 343 341 338 339 338 337 337 332 330 333 331 332 335 333 329 325 322 320 316 312 309
304 306 307 308 309 309 310 308 309 310 315 316 316 317 317 318 320 322 322 324 328 331 337 341 344 345 346 345 344 341 338 338 339 338 337 333 331 332 332 332 328 325 322 319 317 313 310 308 307
307 306 307 308 308 308 306 306 307 309 313 313 314 315 316 318 319 321 322 322 324 330 334 339 342 345 344 344 344 342 340 339 339 338 338 334 334 334 329 325 322 320 317 313 310 308 308 307 306
307 302 305 305 306 305 307 302 303 309 311 309 311 312 314 315 318 319 322 322 323 325 330 334 339 343 344 343 344 342 341 339 338 338 337 334 335 332 325 318 316 315 311 309 308 307 307 306 305
301 302 297 303 304 305 304 296 305 309 310 309 310 311 312 313 315 318 320 323 324 324 324 329 334 340 342 341 344 343 341 339 338 337 335 335 333 327 320 316 314 311 309 308 306 304 304 304 303
298 293 296 299 304 303 302 299 306 309 308 308 309 311 312 313 314 316 318 321 323 324 324 324 326 332 339 342 345 343 341 338 338 338 337 333 324 317 311 311 310 309 307 305 303 303 302 301 302
293 293 295 295 299 301 299 299 303 306 306 307 308 309 310 312 313 317 317 319 321 323 324 324 325 325 333 341 342 341 338 338 337 336 329 322 315 310 312 311 308 307 305 304 303 302 302 300 299
296 294 293 297 300 298 296 297 300 303 304 304 305 307 308 309 313 317 318 319 319 322 322 323 323 327 329 335 339 336 333 333 331 324 319 315 311 311 311 309 307 306 304 302 302 301 300 299 299
295 293 292 296 298 296 295 295 299 301 302 303 303 304 305 307 310 312 315 318 319 320 322 322 324 327 331 338 338 334 331 326 322 315 309 306 306 307 308 308 306 304 303 301 301 301 300 299 298
294 292 292 292 296 296 294 292 296 301 303 303 304 305 305 305 307 310 312 315 319 320 322 322 325 329 334 337 334 328 322 312 310 307 304 302 303 305 306 306 304 304 304 301 300 300 298 297 298
290 296 294 292 290 286 293 285 292 296 298 300 302 303 304 304 306 307 309 312 316 320 324 324 327 330 334 336 331 325 316 311 311 305 301 300 302 302 304 304 303 302 301 300 298 298 297 298 295
291 294 292 292 289 288 288 285 290 295 294 297 300 303 304 306 307 307 308 311 314 318 323 326 327 330 332 332 333 325 319 320 310 302 299 299 299 301 302 302 302 300 300 299 298 297 296 296 295
295 292 290 290 286 280 287 287 288 291 294 296 299 301 303 305 306 308 310 311 312 317 323 326 327 329 332 332 328 321 323 311 303 299 296 297 298 299 301 301 300 299 298 297 297 297 296 295 294
292 287 283 281 279 280 289 286 289 295 297 297 298 300 302 304 305 306 308 309 312 315 320 325 327 327 329 328 323 324 322 309 303 300 297 296 297 298 299 299 298 298 298 297 296 296 295 294 293
288 288 283 277 279 283 289 283 288 297 299 299 300 301 302 304 307 308 310 308 312 316 319 322 325 326 326 324 324 325 312 309 304 300 298 299 298 300 299 298 298 296 296 295 295 295 295 294 294
289 284 291 284 285 281 284 288 293 296 296 297 298 299 300 303 306 307 310 310 310 314 317 321 324 326 323 322 320 313 308 304 302 300 300 300 300 299 298 297 296 295 295 294 294 294 293 293 293
292 293 283 284 276 277 283 285 286 291 293 296 297 298 300 304 304 306 309 310 311 315 317 321 324 323 322 318 309 306 302 301 301 301 300 299 298 297 296 295 295 294 294 293 293 293 292 291 292
288 286 287 287 285 279 278 283 293 292 294 295 296 299 301 302 304 306 308 310 312 316 318 320 323 321 319 311 305 302 300 302 299 299 298 297 297 296 295 294 293 293 293 292 292 291 291 291 291
293 289 288 282 281 283 283 282 295 295 296 297 297 300 300 301 304 307 308 310 312 315 318 319 321 319 315 308 303 299 299 298 298 297 296 296 295 295 294 293 292 292 291 291 290 290 290 290 289

GFSSGP_sfc_thetae_018.txt.gz
Theta_e
339 332 325 319 304 303 298 301 302 304 303 306 310 308 306 309 312 310 333 336 345 347 350 350 353 352 349 347 345 343 340 343 344 345 346 345 344 343 339 338 337 336 335 336 336 337 337 337 337
333 328 321 313 300 295 297 305 303 304 306 310 309 308 307 308 326 326 330 336 346 349 348 348 354 353 349 346 345 342 340 343 341 339 340 339 339 339 339 339 338 335 335 335 336 336 336 336 337
330 326 311 305 300 295 297 304 304 308 309 307 306 310 309 315 324 328 334 336 344 346 346 349 354 353 350 347 345 341 341 342 343 340 340 340 339 339 339 339 339 336 335 336 337 337 337 338 337
320 317 311 299 297 302 302 305 307 307 308 308 309 306 313 322 324 332 334 336 339 345 347 351 353 352 351 348 345 344 339 341 340 341 341 339 339 339 339 339 339 337 336 337 338 339 338 338 338
319 312 301 298 298 302 305 307 307 305 306 306 308 306 311 324 331 333 333 335 338 344 347 350 354 352 351 348 345 344 340 339 340 340 342 343 342 341 339 341 340 338 338 338 339 340 340 339 339
308 308 296 295 299 303 305 308 307 306 307 307 304 306 311 326 328 332 334 332 339 345 346 348 351 352 351 349 347 345 342 340 340 339 339 341 340 342 343 341 340 339 339 338 340 340 340 342 341
307 303 297 297 298 300 304 308 303 304 305 305 308 302 312 324 331 335 334 333 336 344 346 346 346 348 349 348 347 345 344 343 342 342 341 341 342 347 344 342 341 341 339 340 342 341 340 339 336
310 306 300 299 298 298 306 307 309 305 305 310 310 302 305 324 331 334 333 333 333 338 345 345 346 346 344 344 346 345 344 343 342 342 343 339 340 344 344 343 342 339 339 340 338 337 334 331 327
314 301 297 299 300 302 307 304 308 309 306 308 308 308 316 326 330 329 329 331 332 336 338 344 345 344 344 342 343 343 343 341 340 340 338 336 331 336 338 337 338 340 339 337 332 327 324 326 327
305 300 301 306 305 303 307 305 305 304 306 305 306 312 317 319 322 327 327 327 330 331 335 337 343 343 342 344 340 337 337 334 332 333 332 330 328 328 332 332 337 338 337 333 327 323 326 324 313
305 299 304 304 306 308 307 307 308 305 303 306 305 309 313 314 317 320 324 327 329 332 334 336 337 340 342 342 339 337 335 331 329 330 330 328 326 326 328 328 330 330 329 323 322 317 312 308 306
300 305 305 306 308 307 305 309 305 306 305 310 310 312 311 313 313 317 318 320 326 331 334 336 338 340 341 342 339 336 335 335 332 332 331 323 323 322 324 328 329 330 326 318 314 312 307 304 302
301 303 305 306 306 306 308 305 305 306 310 311 312 312 311 311 312 315 316 319 321 328 332 336 338 339 341 340 340 335 335 334 333 331 332 326 325 325 325 325 322 318 314 311 308 304 302 301 301
305 305 305 306 305 306 304 304 305 305 309 309 310 310 310 311 314 314 315 316 315 322 329 335 338 341 340 340 340 337 334 333 333 333 333 328 327 326 322 318 317 312 308 304 302 300 300 299 298
305 300 303 303 304 303 305 300 301 307 308 307 307 308 310 311 312 313 315 315 316 318 327 331 337 341 340 340 341 339 336 336 333 335 334 328 330 325 318 313 312 307 303 303 301 299 299 298 299
300 299 293 301 303 304 302 293 302 306 306 305 306 306 307 309 311 313 315 316 316 317 320 329 336 338 340 340 341 340 337 335 334 334 332 331 327 320 313 310 307 304 303 301 298 297 297 296 296
295 289 292 296 303 301 299 294 302 306 304 303 304 304 307 307 309 309 311 313 315 317 317 321 332 335 338 338 340 340 338 336 334 334 332 330 323 317 312 308 304 303 301 299 298 296 295 294 294
289 290 293 292 297 298 296 296 300 302 302 301 302 304 304 306 308 310 311 311 313 314 316 317 320 329 335 338 338 338 337 335 335 334 331 320 314 308 306 307 303 302 299 297 296 295 295 294 293
295 292 290 294 298 294 293 294 296 299 299 299 301 302 304 305 308 309 311 312 311 312 313 316 317 318 326 336 335 336 332 332 331 324 320 313 309 307 306 305 301 300 297 295 296 295 294 293 292
294 291 290 294 297 294 292 291 295 297 298 299 299 300 301 303 304 306 308 310 312 312 311 314 316 318 320 331 337 335 332 330 322 317 312 308 307 307 306 304 300 298 296 296 295 294 294 293 292
291 290 290 290 294 294 291 289 291 297 298 300 301 302 302 301 302 303 304 307 310 312 312 315 316 318 322 325 333 326 317 314 310 306 302 302 302 303 305 303 300 298 297 295 294 293 292 291 291
288 294 293 292 287 281 291 279 288 291 293 297 297 297 298 299 301 303 304 304 306 312 314 314 316 318 323 333 328 321 319 311 309 306 305 299 300 301 303 302 300 297 296 294 293 294 292 292 289
290 294 291 291 286 283 284 280 284 291 289 292 293 296 298 299 300 301 301 304 305 305 312 315 316 320 327 332 327 321 313 314 306 302 301 298 301 301 301 301 299 295 295 292 292 292 290 290 289
295 292 290 287 284 273 282 282 282 286 290 291 291 294 295 297 298 300 301 304 304 304 307 315 316 320 326 331 327 321 314 311 300 299 298 299 299 299 298 300 298 294 293 292 292 291 290 290 289
293 287 277 275 277 274 286 282 284 290 293 293 291 292 295 296 297 299 303 304 304 304 306 315 316 320 325 327 327 321 316 305 299 298 298 297 297 297 298 298 296 293 293 293 292 291 290 289 288
289 287 278 273 273 277 285 279 284 292 293 295 295 295 295 296 297 301 302 304 305 306 308 313 317 320 323 326 321 318 307 302 300 299 298 297 297 297 297 296 293 292 292 292 291 290 290 289 288
288 282 288 282 281 274 279 283 290 293 293 294 294 295 294 295 299 299 300 304 305 305 308 314 319 321 323 324 318 312 305 302 300 300 298 298 297 297 296 295 291 290 290 290 290 289 288 288 287
290 291 282 283 269 272 278 280 282 288 289 292 292 292 294 296 298 299 301 303 305 306 307 314 319 321 322 321 317 307 303 301 300 299 298 298 297 296 294 292 290 289 289 289 289 288 288 287 287
287 285 286 284 282 274 274 278 288 290 291 290 291 294 296 297 298 300 302 303 305 306 308 311 316 318 320 306 306 304 300 300 300 299 298 296 295 294 293 290 289 289 288 288 287 287 287 287 286
291 287 286 280 276 280 278 280 293 293 291 293 292 293 294 296 297 300 301 303 305 305 309 312 317 318 306 303 302 300 300 299 298 296 295 295 294 293 292 289 289 289 288 287 287 286 286 286 285

GFSSGP_sfc_thetae_021.txt.gz
Theta_e
337 331 323 312 299 296 293 297 300 300 300 302 305 304 302 305 307 307 328 342 347 347 349 349 353 352 349 346 344 343 342 343 344 346 349 347 345 342 340 338 336 335 336 337 338 338 339 339 338
331 328 314 306 296 290 293 299 300 301 304 304 306 305 303 313 322 325 328 346 348 348 348 347 353 352 348 346 344 342 345 342 344 345 345 343 343 341 339 338 336 336 336 336 336 336 336 336 337
330 325 306 301 295 291 293 299 301 304 305 305 303 305 304 315 324 327 331 345 348 346 347 348 353 351 348 346 343 343 344 341 343 343 343 341 340 341 340 340 337 336 337 337 338 338 338 337 337
318 310 305 295 293 298 299 301 303 304 305 306 305 304 312 321 324 330 334 347 344 344 345 350 352 351 350 348 344 343 343 341 341 342 343 342 341 341 340 340 338 337 338 339 339 339 338 338 338
312 305 295 293 294 297 300 303 304 302 303 303 305 302 311 323 329 330 332 344 342 343 347 349 353 352 350 349 347 343 344 341 342 343 342 341 341 342 341 341 339 338 338 339 340 340 340 340 341
303 302 291 292 295 299 301 304 303 303 302 303 302 301 310 324 327 329 331 337 344 343 346 348 351 351 350 348 348 345 344 344 341 342 343 342 343 342 342 341 340 340 338 340 341 341 342 342 341
300 296 292 292 294 296 301 304 300 302 302 302 304 299 313 323 327 330 329 342 344 345 345 347 347 348 348 347 346 345 344 344 344 343 343 341 345 346 343 342 341 340 339 342 342 342 340 338 335
304 300 295 294 295 295 302 303 305 303 302 306 307 299 313 323 330 331 328 337 343 343 344 343 344 345 344 343 345 343 343 343 343 343 342 339 343 344 344 343 343 339 340 341 339 338 336 332 327
308 296 293 296 297 299 304 302 305 306 304 305 305 305 319 328 330 327 326 328 340 342 342 343 343 342 342 341 342 343 342 341 341 341 338 335 335 338 339 338 339 341 340 338 335 332 328 328 328
301 296 297 303 302 300 304 304 303 302 303 301 302 312 318 324 325 325 325 325 328 337 341 342 342 341 341 343 339 336 338 334 333 334 332 330 328 332 335 333 337 340 339 335 331 327 326 320 311
301 296 303 305 305 304 305 304 307 302 299 303 303 306 312 316 319 324 325 326 327 330 340 342 342 342 341 340 338 334 332 329 329 330 329 327 325 328 328 329 331 330 330 325 322 316 309 305 302
298 302 304 305 306 304 302 306 304 303 302 308 307 308 309 309 314 318 322 324 326 329 333 337 342 341 340 339 337 335 332 329 326 327 328 322 321 324 324 325 326 326 325 318 313 307 301 300 299
298 300 304 304 304 303 305 303 302 303 307 308 309 310 307 309 311 312 315 317 323 329 332 334 338 339 340 339 337 335 332 332 329 329 329 322 321 319 322 324 325 320 312 308 302 300 299 298 297
301 302 302 304 303 303 302 301 301 303 306 305 306 306 306 308 310 311 312 313 313 328 331 334 336 340 339 339 336 335 333 333 332 330 328 324 324 323 320 317 313 308 304 301 299 298 298 296 296
303 298 300 301 303 301 303 298 299 304 305 304 304 303 306 307 309 310 312 312 313 316 330 334 336 339 338 337 337 337 333 335 333 332 331 325 325 321 316 312 307 303 301 300 298 297 296 296 296
298 297 291 299 302 303 301 291 301 304 302 303 305 305 304 307 307 308 311 311 312 313 322 334 338 339 339 337 338 338 337 333 334 334 333 328 324 318 313 309 303 302 301 298 296 295 295 293 293
293 286 289 294 301 300 298 293 301 303 302 300 302 303 304 306 306 307 309 311 313 312 313 327 337 338 338 338 337 339 336 333 334 333 331 326 321 316 311 306 302 300 298 297 296 294 293 292 292
286 286 289 289 296 297 295 293 298 300 299 297 298 300 300 303 305 309 309 308 310 312 312 318 332 338 338 338 338 336 336 332 332 332 329 322 318 313 308 303 301 299 297 295 295 294 293 291 291
292 289 288 291 296 293 291 291 294 297 296 297 298 298 300 302 305 306 307 307 307 307 308 312 324 334 337 335 333 333 333 331 331 330 322 313 310 308 305 302 299 298 296 294 294 293 292 291 290
292 289 287 291 295 292 290 290 294 296 297 298 298 297 297 299 301 304 305 304 307 308 308 308 315 329 335 335 335 335 332 327 327 320 315 311 309 306 303 301 299 297 295 294 293 294 292 291 290
288 287 287 288 291 290 288 286 289 293 296 297 298 300 299 299 299 300 301 303 303 306 308 310 311 316 333 335 333 322 317 313 310 312 309 308 307 305 302 300 298 298 295 293 292 292 292 290 290
285 292 291 290 285 280 288 277 284 289 291 294 295 296 298 299 300 301 301 300 301 302 307 309 312 314 317 333 331 326 324 319 311 307 304 305 305 303 301 299 298 299 295 292 292 292 290 291 288
289 293 290 289 284 280 281 278 281 287 287 290 291 293 295 296 297 298 299 301 302 301 304 309 310 313 317 331 329 328 324 311 306 303 302 303 302 302 300 299 297 297 296 291 291 290 289 289 289
294 289 288 286 281 271 279 280 278 283 287 288 290 291 293 295 296 297 299 300 301 301 300 306 309 312 324 329 326 326 317 304 302 302 300 302 301 301 301 299 297 296 294 292 291 290 289 289 288
289 283 271 271 274 272 283 280 282 288 291 291 291 292 293 294 293 296 300 301 302 303 303 303 309 310 324 327 323 318 313 307 305 303 301 300 299 300 298 298 295 293 294 291 291 290 289 288 287
286 284 274 272 271 276 284 278 283 291 293 293 294 292 293 294 294 298 301 301 302 303 304 304 306 310 323 325 322 317 311 306 304 304 302 301 300 299 299 297 295 294 294 291 290 289 289 288 287
286 281 286 278 278 271 277 282 287 290 291 291 291 291 291 292 294 299 301 301 302 302 303 304 306 313 321 325 321 315 307 303 302 301 300 301 299 299 298 296 294 293 292 290 289 288 287 286 286
288 289 277 275 267 271 276 277 281 285 287 290 290 290 293 294 292 296 299 301 302 302 303 304 307 316 320 318 317 308 304 303 301 299 299 299 298 297 296 294 292 291 291 288 288 287 286 286 286
285 282 284 282 278 271 272 277 285 287 288 288 289 291 291 295 296 298 299 301 302 302 303 304 310 316 316 312 307 305 303 301 300 299 298 298 298 296 294 293 292 291 288 287 287 286 286 286 286
288 285 284 278 273 277 274 279 292 292 290 292 295 297 299 298 297 296 298 300 301 301 302 304 309 312 307 306 304 303 302 301 300 298 298 297 295 295 293 293 291 289 287 286 285 285 285 285 285

GFSSGP_sfc_thetae_024.txt.gz
Theta_e
335 329 321 311 298 295 291 296 298 300 299 302 304 304 301 305 305 303 327 340 346 346 349 349 353 352 349 346 344 344 346 348 349 349 348 346 344 342 339 336 335 336 337 339 340 341 341 340 338
330 325 312 304 295 290 292 297 299 301 303 303 303 303 302 312 321 327 332 345 347 347 347 346 352 350 347 345 343 344 344 345 346 349 348 346 342 340 337 336 335 336 336 336 337 337 337 337 337
327 323 306 300 294 291 292 298 298 303 304 303 301 304 307 313 322 328 337 345 346 346 346 347 352 350 346 345 343 346 344 346 347 346 345 344 341 340 339 336 336 336 337 337 337 337 336 336 337
314 309 304 295 293 296 297 298 301 303 304 304 303 301 312 321 324 329 344 345 344 343 344 349 351 350 349 346 346 345 341 342 342 343 343 342 341 341 340 337 337 337 338 338 338 338 338 338 338
311 303 294 292 293 296 298 302 303 302 302 302 303 300 312 324 326 340 344 345 342 342 344 347 351 349 347 346 347 346 343 342 342 342 341 341 341 341 341 339 338 338 338 339 340 340 340 340 340
302 301 291 290 292 297 299 300 300 301 302 302 301 301 311 322 327 336 344 342 343 342 345 347 350 350 349 347 345 347 345 343 342 343 342 342 342 342 342 340 339 339 338 341 341 341 342 341 339
299 294 292 291 293 296 300 302 298 301 301 302 304 299 312 320 326 330 337 340 342 344 344 345 346 347 347 347 344 344 345 345 346 346 345 345 345 344 343 340 341 338 340 341 342 342 340 338 334
303 298 292 292 293 294 300 301 302 301 301 305 306 306 312 322 327 328 339 340 341 342 343 344 345 344 342 342 344 343 343 344 343 344 342 340 343 344 344 342 342 339 341 341 340 339 336 331 326
305 294 292 295 295 297 302 301 305 305 301 302 303 310 320 327 328 325 333 336 338 340 342 342 342 342 340 340 340 342 342 342 341 341 337 337 337 338 339 338 340 341 341 339 337 334 329 328 326
300 293 296 301 301 299 302 302 303 302 301 300 302 313 324 325 325 324 329 334 335 336 339 341 341 341 340 342 338 335 336 334 334 334 332 329 333 334 336 334 337 340 340 337 332 327 326 316 307
299 295 301 303 305 303 302 303 305 301 299 301 300 313 317 317 321 324 326 333 336 338 339 340 340 340 339 340 337 334 333 330 331 331 330 327 327 330 330 329 331 331 331 326 320 313 306 301 299
296 301 303 304 305 303 301 305 302 302 303 306 306 306 307 311 312 319 325 326 327 337 338 340 340 339 339 339 337 335 333 329 327 329 328 325 322 325 325 326 326 326 323 317 314 305 299 298 297
296 298 302 304 304 302 303 301 302 302 306 307 307 308 307 307 308 313 318 324 326 330 338 340 340 339 339 337 336 334 332 329 327 326 327 323 322 325 323 323 324 323 321 309 301 299 298 296 295
300 300 300 302 302 302 301 301 300 301 305 304 305 305 305 307 308 307 309 312 314 326 331 339 340 340 339 337 335 333 332 330 326 326 327 322 323 322 322 321 322 312 306 300 298 297 296 295 295
302 297 299 300 301 300 302 298 297 303 304 302 303 303 305 305 307 307 309 311 311 315 330 332 340 340 338 337 335 333 332 332 329 328 327 323 322 321 319 316 310 303 299 298 297 296 295 294 295
297 296 290 298 300 301 300 292 299 303 301 301 302 302 303 306 306 307 308 309 310 311 321 331 337 338 338 337 335 334 333 332 331 330 329 324 324 319 314 309 303 300 299 297 296 295 293 292 291
292 285 289 293 299 299 297 292 300 304 301 298 299 300 302 304 305 305 308 308 310 309 312 327 332 336 337 336 336 334 333 331 331 332 330 325 322 317 312 307 301 300 297 296 296 293 292 291 290
286 286 288 288 294 295 292 294 298 299 299 298 297 298 298 301 305 307 306 306 310 309 309 321 332 335 336 336 335 331 332 331 332 333 332 326 321 315 311 303 300 298 296 295 294 292 291 290 290
293 291 287 290 295 292 290 290 293 296 294 294 297 297 297 300 304 304 305 305 304 305 306 309 327 334 335 333 332 331 331 330 328 332 328 322 318 315 308 302 299 297 296 294 293 292 291 290 289
292 287 286 290 293 291 289 289 293 295 296 297 298 299 298 299 299 301 303 303 304 306 305 305 315 331 335 335 335 332 332 328 329 323 322 319 316 311 306 303 298 297 295 293 293 293 291 290 288
287 286 286 287 290 289 287 287 288 292 294 296 299 299 300 299 300 300 300 301 301 302 304 306 307 324 335 335 332 322 318 316 314 315 316 313 313 308 306 302 299 295 295 294 292 292 292 289 288
285 290 290 288 285 279 286 277 283 288 290 292 292 293 295 297 297 300 299 299 299 300 302 305 307 311 331 333 331 326 325 322 316 318 311 311 309 306 304 301 298 296 296 295 292 293 291 291 288
288 292 289 287 282 279 280 277 281 285 286 288 290 291 294 295 296 297 297 299 300 299 299 302 306 309 320 331 332 327 326 326 311 307 308 307 306 304 302 300 299 297 295 295 294 290 290 289 289
293 288 286 284 280 271 278 279 278 281 285 287 289 290 292 294 294 295 297 298 297 300 300 299 302 306 311 329 330 328 326 310 306 305 304 304 303 302 301 300 299 298 295 294 293 291 289 288 288
288 282 271 270 268 272 280 278 280 286 289 288 290 291 291 291 293 294 297 300 301 302 302 303 303 305 308 323 328 327 319 312 310 306 305 303 302 300 300 300 298 297 295 292 291 291 289 287 287
285 283 273 271 270 274 281 277 282 289 291 290 290 290 291 292 291 292 297 299 301 303 303 302 303 304 306 320 324 325 319 313 312 309 307 304 301 301 301 300 297 296 295 293 292 290 290 287 286
285 278 285 277 276 269 276 280 286 288 288 290 290 290 291 293 294 293 293 299 300 301 301 302 302 303 306 320 321 317 310 308 307 306 304 303 303 301 299 297 296 296 295 293 291 290 288 286 286
287 288 276 272 265 269 275 276 280 284 285 289 289 289 291 293 295 295 297 299 300 301 301 301 302 303 306 318 320 314 307 307 306 305 304 303 301 299 297 296 296 295 294 292 291 289 288 286 285
284 280 281 280 277 271 273 276 284 285 286 288 289 291 292 296 296 295 296 298 300 301 301 301 302 305 309 316 316 306 305 304 304 303 302 300 300 297 296 295 295 294 292 290 289 288 287 285 285
287 284 283 274 272 275 274 277 289 287 288 291 294 295 297 298 300 298 299 296 298 300 301 301 303 306 310 308 305 304 303 302 302 301 300 299 296 296 295 294 294 293 291 289 289 287 287 285 284

GFSSGP_sfc_thetae_027.txt.gz
Theta_e
331 327 317 309 297 295 290 294 298 299 299 300 302 302 302 303 304 301 326 339 343 345 347 347 350 350 349 349 349 350 351 352 351 349 348 346 343 340 338 336 336 337 338 340 341 342 341 340 338
329 323 310 303 293 288 289 295 297 300 302 302 301 301 304 310 320 327 332 342 345 346 346 346 351 349 348 346 346 347 349 350 350 348 347 345 342 338 336 335 336 337 338 339 339 339 338 338 338
324 318 304 299 293 290 291 296 298 301 303 301 300 303 305 309 320 329 332 344 345 345 345 346 352 350 346 345 344 343 344 345 349 348 347 343 341 338 336 336 336 336 336 336 336 336 336 336 337
313 310 303 294 292 296 296 297 300 302 304 302 302 302 311 321 324 329 343 344 343 342 343 349 351 349 348 344 345 346 346 347 348 348 345 343 341 339 337 336 336 337 337 337 337 336 337 337 338
308 302 294 291 293 295 297 301 301 300 300 301 303 300 309 321 328 341 342 343 341 340 342 347 351 348 346 345 348 344 343 344 344 343 343 343 341 341 338 337 337 338 338 339 339 338 339 340 340
302 299 290 288 292 295 297 299 299 298 300 302 301 304 311 320 334 339 342 341 342 341 344 345 348 349 347 346 347 346 344 342 343 344 342 342 341 341 340 338 338 338 338 340 340 340 341 340 338
299 295 291 290 291 294 297 300 298 299 299 301 301 302 312 318 328 341 340 339 341 342 343 343 344 345 346 345 346 345 345 344 344 344 345 344 344 343 341 340 339 338 340 340 340 342 340 337 330
301 297 291 291 291 293 298 300 301 299 301 304 307 307 309 320 328 336 338 337 339 341 342 341 342 343 342 340 343 344 344 344 345 345 343 342 342 343 343 342 342 338 340 342 341 339 336 330 324
303 293 291 292 293 295 300 299 303 303 300 302 302 311 317 324 330 334 334 335 337 339 340 342 342 341 339 339 339 342 343 342 342 342 338 336 336 338 338 337 340 340 341 339 339 335 330 326 325
299 293 295 300 299 297 300 300 301 302 300 299 302 314 322 324 327 331 332 333 335 336 339 342 342 340 338 340 336 334 336 336 334 335 331 332 333 334 336 334 337 340 341 339 334 329 324 311 302
299 294 300 302 304 303 301 301 303 300 299 299 299 306 313 320 320 329 332 334 335 337 338 340 341 340 338 338 335 332 331 330 331 331 329 327 331 331 331 330 331 330 332 326 318 309 304 299 298
296 300 302 303 305 302 299 302 300 302 302 305 305 306 306 310 317 320 326 332 334 335 337 339 340 340 338 338 336 334 332 328 327 329 328 324 324 327 326 326 327 326 323 317 311 302 297 296 295
296 298 302 303 303 301 302 300 300 300 305 306 305 307 306 306 307 310 322 325 331 335 337 338 339 339 338 336 336 334 332 330 328 327 327 325 321 324 324 324 323 323 320 312 304 297 297 295 294
299 300 300 301 301 301 300 300 300 300 304 304 303 304 304 304 306 305 310 319 322 330 337 338 339 339 338 336 335 333 333 331 327 325 326 325 322 322 324 321 321 321 317 302 298 297 295 294 294
301 296 297 299 300 299 300 297 296 302 303 302 302 302 303 304 305 305 307 309 314 320 329 337 337 339 337 336 335 333 332 331 327 326 325 325 321 321 323 320 319 313 304 298 296 295 294 294 293
296 295 290 296 299 300 299 291 298 302 299 300 301 302 302 303 305 306 307 307 309 310 318 331 340 339 338 337 335 334 332 330 328 326 326 325 321 321 319 317 314 302 298 297 296 295 293 292 291
291 285 288 292 298 298 296 291 298 302 300 299 300 300 300 301 302 304 307 307 307 308 310 324 333 338 337 336 335 333 331 330 329 327 326 324 322 319 315 312 305 299 297 296 296 293 292 290 290
286 286 287 288 292 294 291 291 297 300 298 297 297 298 298 300 301 303 304 305 307 306 308 318 330 335 337 336 335 332 331 331 330 329 328 323 322 317 313 305 301 299 296 295 294 292 290 289 290
291 288 287 289 294 291 289 289 292 295 293 293 294 296 298 299 302 302 303 304 304 304 304 307 324 331 334 333 332 330 328 329 328 329 329 324 323 318 312 306 302 300 299 295 293 292 290 289 289
294 288 286 289 292 290 288 288 292 294 295 297 297 298 299 298 298 299 302 302 303 304 304 303 311 328 333 334 333 332 331 330 329 328 327 324 320 317 311 306 302 300 297 294 293 293 290 289 287
289 286 285 286 289 287 286 285 287 291 292 294 297 298 299 298 299 299 298 300 301 301 302 304 304 315 331 334 330 321 320 317 317 318 319 320 319 316 312 307 303 300 298 295 293 293 292 289 287
284 289 290 287 284 279 286 277 283 288 288 289 290 291 293 295 297 298 299 298 298 299 300 302 304 306 321 333 330 325 326 323 325 319 320 315 316 314 311 306 302 299 298 295 294 294 292 291 288
290 291 288 286 281 278 279 277 281 283 285 287 288 289 290 292 294 295 296 297 299 299 298 299 301 305 309 328 332 328 325 327 325 313 314 313 311 311 308 306 302 299 298 297 294 292 291 290 289
293 287 284 282 279 271 277 278 279 281 283 285 287 289 289 290 290 292 294 296 296 296 298 297 298 301 306 320 329 328 326 316 312 309 312 309 307 304 303 304 302 299 298 297 296 293 292 291 289
288 282 272 270 269 272 279 278 281 285 287 287 288 288 290 291 292 293 293 294 298 301 301 302 303 303 303 307 325 327 325 316 315 313 313 309 303 302 300 301 301 300 299 298 295 293 291 290 288
284 283 274 270 270 274 280 277 282 287 287 288 289 288 291 292 292 294 294 294 295 299 300 301 301 302 303 308 317 326 322 318 316 313 313 311 308 306 302 302 300 299 297 295 295 293 290 290 289
284 277 283 276 274 270 276 279 284 287 288 288 289 290 291 292 294 295 295 297 298 298 299 299 300 301 302 305 315 321 321 313 313 311 311 310 308 303 301 300 297 298 297 295 294 293 289 290 287
286 287 277 272 266 269 273 275 278 282 284 288 288 289 290 292 294 296 296 296 298 299 300 300 300 301 303 304 312 318 315 311 310 306 305 303 302 302 299 298 297 297 296 294 293 291 289 287 288
284 280 280 279 276 270 271 276 283 283 285 287 289 293 294 295 300 301 297 296 296 297 298 299 299 301 303 306 310 310 306 306 305 305 303 301 301 300 299 298 297 295 294 293 291 291 289 288 287
286 284 282 274 271 273 273 277 288 287 287 289 293 293 299 301 302 302 299 297 298 299 300 300 303 304 305 307 312 307 303 302 302 303 301 300 299 299 298 297 296 294 293 292 290 289 288 287 287

GFSSGP_sfc_thetae_030.txt.gz
Theta_e
331 324 314 308 297 294 289 292 296 298 297 298 300 300 301 302 306 302 325 338 342 343 347 347 354 353 352 354 353 353 353 354 352 349 347 345 343 340 337 336 337 337 339 344 345 344 342 340 338
327 320 310 301 292 286 288 294 296 298 300 301 300 300 304 309 320 325 329 339 344 345 345 343 351 351 350 351 351 351 352 352 350 349 347 345 342 337 336 337 337 338 340 342 341 340 340 339 338
322 315 304 298 291 288 288 295 296 300 302 299 298 301 303 308 320 327 329 342 344 343 344 343 350 350 348 348 348 349 350 351 350 349 347 344 340 337 337 337 337 337 337 338 338 337 337 337 338
314 309 303 294 292 295 295 297 298 300 302 301 300 303 310 320 322 330 340 343 342 340 341 347 351 350 348 346 345 345 345 347 350 348 345 343 340 337 337 337 337 337 337 337 337 337 337 338 339
307 302 294 291 293 295 297 299 299 298 298 299 299 299 307 319 329 339 341 343 342 338 341 346 350 348 346 345 347 348 346 346 349 348 344 342 340 338 337 337 337 338 338 338 338 339 340 341 340
301 299 290 289 292 294 296 299 298 297 298 301 298 302 309 320 332 338 342 341 342 340 343 344 347 348 347 347 347 346 346 346 345 346 345 343 341 340 338 337 338 338 339 340 340 341 341 340 335
298 295 291 289 294 292 296 299 297 298 297 299 301 300 310 316 333 339 339 339 340 341 342 341 342 344 345 346 346 344 345 345 345 345 345 344 344 342 339 338 338 338 340 340 341 342 339 333 327
300 297 290 291 291 291 297 299 300 298 300 302 305 302 305 316 337 338 338 337 337 340 341 339 339 341 339 340 345 344 344 343 344 344 343 341 341 342 341 341 341 338 340 340 342 340 334 327 325
302 293 288 291 292 294 299 297 302 302 299 301 301 305 314 325 336 334 335 337 338 339 340 339 338 338 337 336 339 342 343 342 342 341 339 337 334 337 337 337 339 340 341 340 339 336 329 325 322
299 292 294 297 297 296 299 299 299 301 300 298 299 314 320 329 333 331 331 333 334 335 338 341 341 338 337 340 337 335 336 335 335 335 332 330 331 333 335 334 337 340 341 339 336 329 321 310 299
299 294 299 301 302 303 300 300 301 298 297 299 298 302 311 317 323 330 332 333 334 335 336 338 339 340 337 337 334 333 331 332 331 332 329 328 331 331 331 330 331 330 331 325 315 306 301 297 297
295 300 301 303 305 302 299 300 298 300 300 303 304 304 305 309 318 323 328 331 334 335 336 338 338 339 338 336 335 332 331 330 330 330 328 325 327 328 327 327 327 326 323 316 309 300 296 295 294
297 298 301 303 303 301 302 299 298 299 303 305 305 306 304 304 306 309 319 327 331 334 336 337 338 338 337 335 336 332 331 330 331 329 328 325 324 326 325 325 324 323 319 313 304 297 295 294 294
300 300 300 300 300 300 299 298 298 299 302 302 302 303 303 303 305 304 307 316 328 334 336 338 338 338 338 337 336 332 331 330 327 326 328 326 323 324 325 323 322 321 318 307 300 296 294 294 293
300 295 296 298 299 299 300 295 295 301 303 301 300 300 303 304 304 305 306 308 318 327 336 336 337 339 337 336 336 333 332 331 328 326 325 326 323 321 323 322 320 319 313 299 296 294 294 293 293
296 294 289 296 299 299 298 289 297 301 299 299 300 299 300 303 304 305 306 306 307 311 324 335 339 339 338 337 336 335 333 331 329 326 325 326 323 322 320 321 320 312 302 297 296 294 293 291 291
290 285 287 292 298 297 296 290 297 299 297 297 298 298 299 300 302 303 305 305 305 307 308 321 336 337 337 337 336 334 332 330 329 326 325 324 323 322 321 320 316 303 298 296 296 293 292 290 289
287 284 286 287 291 293 291 290 294 296 296 296 297 297 297 298 301 303 303 304 306 305 306 309 325 336 337 337 336 334 331 330 328 327 324 324 323 320 319 316 309 300 297 295 294 292 290 290 290
290 288 286 288 293 290 289 288 292 295 293 293 294 295 297 298 302 301 301 303 303 303 303 305 314 327 335 336 333 332 329 329 327 329 327 324 322 319 316 312 307 300 298 297 296 292 290 289 289
292 287 285 289 291 289 288 287 291 294 293 295 296 297 298 298 298 298 299 300 301 303 303 303 306 319 330 334 334 332 332 331 330 329 328 326 322 320 317 312 308 303 300 297 295 292 290 288 288
290 288 285 286 288 287 285 285 286 290 291 292 293 294 295 296 297 298 297 297 298 299 301 303 303 311 326 332 332 323 321 320 322 322 325 324 323 320 316 311 308 304 302 299 296 293 292 288 287
287 289 289 287 284 280 285 278 284 287 287 288 287 288 289 290 292 294 295 295 296 298 299 301 302 304 313 329 330 328 327 325 325 326 327 320 321 319 315 312 310 305 302 300 297 296 293 290 287
289 290 287 285 281 278 280 277 282 282 283 285 287 288 289 289 290 292 292 294 296 296 296 297 300 301 305 319 330 327 326 327 323 325 324 321 318 318 316 312 310 305 304 301 299 296 295 292 289
292 287 284 281 279 271 276 277 279 280 281 285 286 286 289 291 292 294 296 297 297 296 299 297 296 298 301 307 325 328 326 325 316 314 319 317 314 314 313 310 306 305 303 301 299 297 296 294 292
288 285 273 271 269 271 279 277 279 284 286 286 286 287 290 291 292 294 295 296 298 297 297 300 300 300 300 302 316 327 326 325 317 317 318 314 311 307 306 307 304 302 302 301 299 298 295 293 292
283 282 274 270 268 273 279 276 281 286 286 287 287 288 291 293 292 294 296 296 296 298 298 299 299 299 300 302 304 318 326 322 319 316 318 316 314 312 310 305 305 302 300 299 299 298 295 293 292
283 277 282 275 273 270 274 279 283 286 286 286 287 290 291 291 292 294 297 297 297 297 298 298 299 299 299 301 303 309 317 316 315 314 315 315 313 311 304 305 304 301 299 298 297 295 293 292 291
286 287 278 274 266 269 273 274 277 281 284 287 288 288 292 293 294 298 301 299 296 296 297 297 298 299 300 301 302 306 312 319 313 309 310 309 308 304 304 302 300 300 298 296 295 292 291 290 289
284 280 280 278 276 270 271 275 282 283 284 286 288 290 292 292 297 300 300 298 297 298 299 299 300 301 303 303 303 305 309 314 308 306 305 303 302 302 300 300 299 298 297 295 293 291 290 289 289
285 283 281 273 271 273 272 276 286 286 287 288 292 291 294 299 300 299 297 296 296 297 299 300 299 300 300 302 303 305 311 304 305 306 302 301 299 298 299 298 297 295 294 292 291 290 290 289 288

GFSSGP_sfc_thetae_033.txt.gz
Theta_e
332 323 318 314 304 300 295 297 301 302 303 305 306 307 308 310 313 310 335 342 343 344 350 349 354 354 354 355 355 356 355 355 352 351 348 345 343 340 338 338 339 340 347 348 348 345 342 340 337
327 321 316 308 298 292 294 299 300 303 306 306 305 308 310 314 325 329 335 342 345 347 349 347 353 354 355 355 356 355 354 353 352 350 347 345 341 338 337 338 338 339 345 344 343 341 341 339 338
322 316 311 305 296 293 294 298 301 304 306 305 305 309 309 315 326 332 337 344 346 347 346 345 352 352 351 352 352 353 353 352 351 349 347 344 339 337 338 338 339 339 341 341 339 339 339 339 339
317 313 307 300 296 298 298 301 303 303 306 306 306 307 316 325 326 334 343 346 345 346 345 347 351 351 350 350 349 350 351 352 351 349 346 342 339 338 338 338 338 337 337 337 337 337 338 339 339
312 308 299 296 297 299 302 303 304 303 303 305 305 305 312 324 337 342 343 345 343 344 345 345 351 350 348 348 348 349 348 349 351 348 345 342 339 338 338 338 338 338 338 338 338 340 341 341 339
306 304 295 294 296 299 301 304 303 303 303 305 304 306 313 330 337 338 342 343 344 344 345 345 348 348 348 347 348 348 347 346 350 349 345 343 340 338 338 338 339 339 340 340 341 341 341 337 333
304 301 296 295 297 297 300 304 302 303 303 304 307 305 312 324 337 339 340 341 343 345 345 346 345 345 346 347 347 347 348 349 348 348 347 344 343 341 338 338 339 340 341 341 341 341 336 329 329
304 302 295 295 295 297 301 303 304 303 303 307 307 304 308 323 337 339 339 338 343 345 345 344 345 344 342 344 344 344 345 345 345 345 343 341 341 342 341 340 340 339 341 340 342 338 330 327 326
305 297 293 296 294 297 301 300 306 307 305 305 307 310 318 329 337 335 334 337 339 341 344 344 344 344 342 343 342 342 343 342 342 341 339 338 340 340 339 337 339 340 341 341 339 334 328 324 323
302 296 295 299 300 299 302 303 304 305 304 304 306 311 326 332 332 331 331 333 334 337 338 342 343 343 341 340 342 341 340 340 340 341 341 340 341 341 339 336 337 340 341 340 336 329 321 311 309
301 296 300 302 302 304 303 303 305 303 302 305 304 308 318 327 330 330 331 332 334 336 336 339 340 342 342 340 340 340 340 339 340 341 340 338 338 340 340 339 339 339 334 330 322 314 309 308 307
298 301 302 304 306 304 302 304 302 304 305 307 308 309 310 322 326 328 330 332 333 335 336 338 338 339 340 342 339 337 337 338 337 338 339 335 337 338 339 338 338 337 335 327 319 311 306 305 304
299 300 303 304 304 304 304 302 302 302 306 307 307 309 309 310 313 323 330 334 335 335 337 338 338 338 339 339 340 338 336 337 337 337 337 334 336 337 338 337 336 335 332 326 315 308 305 304 303
302 301 301 302 302 303 301 301 301 303 305 305 305 307 308 308 310 310 312 320 334 338 338 339 338 339 339 338 338 338 337 336 336 336 336 334 334 337 336 335 334 333 331 324 313 307 305 304 303
300 297 299 299 301 300 302 297 297 304 305 304 304 305 306 307 308 309 311 311 319 333 339 339 339 340 339 338 337 338 338 336 335 334 335 334 332 334 335 334 332 332 328 317 308 304 303 302 301
297 297 292 298 299 300 300 291 299 303 302 302 303 303 303 305 307 308 309 310 312 314 329 339 340 340 339 339 338 337 338 337 335 334 333 334 333 331 333 333 331 330 323 312 306 304 302 302 301
294 287 290 294 299 299 298 293 299 302 301 300 301 302 302 303 305 307 309 309 310 311 312 323 338 340 340 339 338 337 336 337 337 334 332 332 332 331 329 329 331 327 319 309 305 302 303 300 300
288 288 290 290 294 295 294 293 297 299 297 298 299 300 300 302 304 307 307 308 309 310 310 312 323 337 341 340 337 336 335 335 337 334 332 331 330 329 329 328 327 322 315 308 303 302 299 300 299
291 290 289 291 294 293 291 291 293 297 296 296 297 298 300 300 303 305 306 307 307 308 308 309 311 322 337 337 334 333 332 332 332 334 332 330 330 328 327 327 324 318 313 309 304 301 298 297 299
292 289 288 292 293 292 289 289 293 296 295 296 297 297 298 299 300 301 302 303 303 305 307 308 308 312 326 336 336 335 334 334 333 333 332 330 329 327 326 324 321 315 312 306 302 299 295 298 299
291 289 288 289 290 289 287 287 289 293 293 294 292 292 293 294 295 297 298 299 301 302 303 305 307 309 317 331 336 332 330 328 330 329 330 330 329 326 325 323 322 317 313 306 301 299 297 297 296
289 292 290 288 287 283 287 282 287 288 289 290 290 292 293 294 296 297 298 300 301 301 302 303 305 307 311 328 333 331 327 326 329 330 331 332 329 326 325 323 320 317 314 310 305 302 300 300 296
290 291 288 287 284 283 283 282 285 286 287 288 289 291 293 294 295 297 299 300 301 302 303 302 302 303 307 314 331 332 329 330 332 331 330 330 327 327 325 322 319 316 314 312 308 302 301 299 297
291 287 285 284 282 277 280 281 282 284 286 289 290 291 293 294 295 298 300 302 304 304 304 305 305 303 303 305 312 329 330 329 329 327 327 327 324 324 323 320 318 317 313 309 307 305 303 300 299
290 288 278 275 275 277 281 279 282 286 288 290 290 292 293 294 295 297 301 302 303 303 304 304 304 304 305 306 306 312 326 329 328 326 326 325 321 320 320 319 317 316 312 311 308 305 303 302 299
287 286 278 274 273 276 280 278 283 288 290 291 292 292 293 295 296 298 301 302 302 302 303 303 303 303 304 305 306 309 313 325 327 325 325 324 322 321 322 318 317 315 311 309 307 305 304 302 299
286 282 284 277 275 274 277 280 285 288 288 290 292 293 293 296 297 299 302 303 302 301 302 301 301 302 303 305 306 307 310 315 321 322 323 324 323 320 319 315 314 312 309 307 305 304 301 299 297
287 287 280 277 271 272 275 277 280 284 287 289 290 292 293 295 297 301 302 302 302 301 302 304 304 304 305 307 307 308 310 312 317 318 319 319 319 317 312 311 310 308 307 305 303 301 298 295 295
285 282 281 281 278 274 274 277 284 286 288 289 290 292 293 296 300 300 299 300 301 301 302 303 303 303 304 305 305 307 310 312 315 313 314 314 312 310 308 307 305 304 302 302 301 299 295 292 291
287 284 282 277 274 276 276 278 288 288 288 289 291 293 296 300 300 297 296 298 300 300 300 300 300 301 302 303 304 306 309 311 308 309 309 307 305 304 304 302 302 301 300 299 297 294 293 291 289

GFSSGP_sfc_thetae_036.txt.gz
Theta_e
337 329 329 323 308 306 300 301 307 307 308 311 311 311 312 315 314 312 340 345 345 348 349 348 356 356 358 358 358 358 357 356 353 351 349 346 343 341 339 339 340 347 349 348 347 344 342 338 337
333 325 325 318 303 298 300 305 303 308 311 312 311 311 316 315 327 333 338 345 345 348 348 347 353 353 355 357 357 357 356 355 352 350 347 344 341 338 338 338 340 346 347 345 344 342 340 338 339
326 323 315 309 304 299 300 304 306 309 310 310 310 314 314 319 330 335 342 346 346 348 349 348 352 353 355 355 356 356 355 354 352 350 346 343 338 338 338 339 340 343 343 342 341 340 340 339 340
321 319 316 305 301 305 304 307 308 308 310 311 311 310 321 330 331 338 346 346 346 347 348 348 352 352 354 352 354 355 354 352 350 349 346 341 338 338 338 339 339 339 340 339 338 338 338 339 340
321 316 305 302 303 306 308 309 309 307 308 309 311 310 316 332 341 343 346 346 345 345 346 347 351 351 351 350 350 351 352 352 350 348 345 341 339 339 338 338 338 338 338 338 338 340 341 340 339
313 314 302 299 302 307 309 310 308 308 308 309 309 310 317 336 340 343 346 346 347 345 345 345 348 350 349 348 349 349 349 351 351 349 345 341 339 339 338 339 339 339 339 339 341 342 340 336 333
311 308 303 302 301 304 307 311 308 308 308 307 312 309 318 330 342 342 344 347 347 346 345 344 345 345 346 347 347 348 347 348 351 348 347 344 342 339 339 340 340 341 341 341 342 340 332 330 329
313 311 304 305 301 302 309 308 310 308 307 313 313 309 312 328 341 341 341 342 346 346 345 344 344 344 343 344 346 346 347 349 349 346 345 342 341 341 340 341 341 341 342 342 341 334 328 328 329
313 305 301 303 303 304 307 306 309 310 309 311 312 314 324 330 338 337 336 338 343 344 345 344 342 342 341 342 342 343 343 343 343 343 340 338 339 339 338 337 339 341 341 342 338 331 327 324 323
307 303 303 308 308 306 306 306 308 308 308 309 310 316 331 334 334 333 332 333 336 339 342 344 343 341 341 340 342 339 339 341 341 341 340 339 339 338 337 335 337 341 342 341 336 330 321 317 318
306 301 306 305 307 307 307 307 310 307 305 309 309 312 325 331 333 333 333 335 335 338 339 341 342 342 342 340 341 340 338 339 340 339 338 338 338 340 340 338 338 338 336 337 332 323 322 318 317
301 304 305 306 307 307 305 309 307 308 307 312 314 313 315 328 331 331 332 334 335 337 339 339 341 342 342 342 341 341 339 338 338 338 338 339 339 340 339 339 337 336 336 335 331 324 318 314 312
302 304 305 306 308 308 308 306 306 307 311 313 313 313 314 315 323 334 336 337 338 336 338 339 341 341 340 341 343 341 340 338 337 339 339 338 338 339 339 338 338 337 336 333 329 323 316 313 311
305 304 305 306 306 306 305 306 306 308 311 310 311 311 313 314 315 318 328 334 338 340 340 341 341 341 341 339 340 343 342 340 339 338 338 339 338 338 338 337 337 337 337 333 329 322 316 314 312
305 300 303 304 305 304 306 301 302 308 310 308 309 310 311 313 315 315 318 319 325 333 340 342 343 343 341 341 341 341 344 342 339 338 338 338 337 337 338 337 337 337 337 333 327 320 315 312 310
301 300 295 301 304 304 303 295 302 307 307 306 307 309 310 311 313 315 317 317 319 319 323 333 340 343 342 341 342 341 341 343 342 340 339 337 336 336 336 337 337 338 336 331 324 318 314 312 310
298 291 293 295 303 302 301 296 302 305 305 305 306 308 309 310 312 314 315 316 317 318 319 320 331 338 342 342 341 341 341 340 344 342 340 338 337 335 334 335 336 336 334 328 323 317 315 311 309
290 291 293 292 298 300 298 297 302 305 304 304 305 306 308 308 310 313 314 316 316 317 318 319 320 328 337 342 340 340 339 339 340 342 341 340 338 336 334 332 334 334 332 327 321 317 313 312 310
295 293 291 295 297 297 296 297 299 303 303 303 304 305 306 308 310 309 310 311 312 313 315 317 317 319 324 334 337 335 333 336 336 338 342 341 339 337 335 333 332 333 330 327 321 317 310 307 307
295 292 292 295 296 296 296 295 299 301 302 303 302 303 304 305 305 304 307 307 308 309 312 313 314 316 318 324 334 338 337 336 337 336 336 340 339 338 335 333 332 331 328 327 322 315 308 307 305
295 292 292 292 294 295 293 293 295 295 297 296 297 298 299 301 303 306 308 309 310 309 309 309 311 313 316 318 328 335 338 338 336 334 334 334 339 337 336 334 333 331 328 326 322 315 311 305 303
291 296 294 292 292 288 292 289 293 293 293 296 298 299 301 303 305 307 308 310 311 311 311 311 310 310 312 315 319 326 330 329 331 332 335 334 335 336 336 334 332 330 326 324 321 317 312 311 303
292 296 293 291 291 289 288 288 290 292 291 294 297 299 301 302 303 305 308 309 312 312 313 312 312 310 310 312 317 324 328 328 329 331 333 333 333 333 334 333 332 329 325 325 321 316 313 312 309
294 292 291 290 289 285 287 286 287 289 292 294 296 298 301 302 303 306 309 311 311 313 314 314 312 312 312 310 312 317 325 328 327 330 332 332 332 330 330 330 331 329 326 324 323 319 315 311 311
293 292 285 283 284 284 285 284 289 291 293 295 296 298 301 303 304 306 308 309 310 311 311 311 311 311 311 312 312 312 314 323 327 329 330 330 330 327 327 328 328 328 327 325 324 318 312 309 306
291 292 287 280 280 282 284 283 288 293 295 295 297 298 300 302 305 307 308 308 309 309 309 310 310 309 310 310 311 312 314 314 318 326 328 328 328 329 329 327 327 327 326 324 322 318 314 312 309
288 288 288 284 282 283 285 286 290 292 292 294 297 298 300 302 305 306 307 307 307 308 308 309 309 310 311 312 313 313 314 314 315 319 324 325 327 328 329 327 325 325 323 322 320 317 315 312 311
292 292 285 286 279 279 282 282 286 289 292 295 296 298 300 303 305 306 305 305 307 308 308 309 309 308 309 311 311 312 313 315 316 318 320 321 324 325 324 325 324 322 319 316 314 312 312 309 305
288 288 287 287 284 281 280 284 292 293 294 294 297 299 300 303 304 303 302 303 306 307 306 306 306 306 307 308 309 311 313 315 315 315 314 314 316 318 318 318 318 317 313 310 309 307 305 303 298
291 289 288 285 281 283 284 285 293 294 295 295 298 299 301 304 302 301 300 301 302 302 303 303 303 303 304 306 308 310 312 314 313 311 312 313 313 313 312 311 310 310 308 307 305 303 301 298 296

GFSSGP_sfc_thetae_039.txt.gz
Theta_e
336 335 328 323 308 307 303 303 308 307 308 313 314 312 311 315 315 314 341 345 344 349 349 349 358 358 359 359 358 358 358 356 354 351 349 347 343 341 340 339 346 348 348 348 346 343 339 338 338
333 329 324 317 304 300 302 308 305 309 312 314 314 313 312 312 328 335 339 345 345 348 347 348 355 356 358 358 359 357 356 355 352 350 347 345 341 339 339 340 347 348 348 346 344 341 339 339 340
333 327 316 309 305 300 302 307 307 311 312 312 312 316 315 320 331 335 344 345 346 346 346 349 354 355 357 358 357 356 356 354 351 349 346 342 339 339 339 341 345 345 344 343 342 341 340 340 340
324 320 317 306 302 307 308 308 308 310 312 313 313 311 321 333 333 340 345 344 345 346 347 348 351 352 353 355 356 355 354 352 349 348 344 340 339 339 340 341 341 341 341 340 339 339 339 340 341
323 316 306 303 303 307 311 310 310 309 310 311 312 311 319 336 341 344 344 344 344 344 347 347 352 353 352 352 354 355 354 352 349 347 343 340 339 339 339 339 339 339 339 338 339 340 340 340 339
312 314 302 300 303 308 311 312 310 310 311 311 311 312 322 339 340 343 345 345 345 343 346 346 348 349 350 349 349 352 352 352 350 348 343 340 340 339 338 338 338 338 338 339 341 341 339 335 334
310 308 303 304 303 305 309 313 309 309 310 310 313 310 322 334 342 344 345 345 345 345 343 344 345 345 347 348 348 349 348 351 351 348 346 343 342 340 339 339 339 340 340 341 342 337 333 332 331
314 309 303 305 303 303 311 311 312 310 309 315 314 309 314 332 342 343 344 345 345 345 343 343 344 344 343 343 346 346 346 347 349 346 344 341 340 341 340 341 341 342 342 342 339 332 330 329 332
316 304 301 304 304 305 311 309 313 314 311 311 313 315 325 335 341 338 338 340 343 343 343 343 342 342 341 340 342 343 345 346 345 343 340 338 336 336 337 338 340 341 342 343 336 330 329 327 328
308 305 305 310 310 308 310 309 310 308 308 309 311 318 329 334 336 333 333 334 339 340 342 342 341 340 340 340 342 340 341 342 343 343 341 338 337 336 334 335 338 341 343 341 335 329 326 324 319
306 302 308 309 309 311 309 308 310 308 305 309 309 313 324 330 334 334 334 337 336 339 341 343 342 341 339 339 341 338 337 338 339 340 340 338 336 337 336 336 334 338 337 337 333 328 323 323 320
302 305 307 309 308 307 307 310 307 308 308 312 314 315 317 326 329 332 334 336 338 338 339 341 343 342 341 340 339 340 337 337 337 338 337 335 337 338 336 335 335 333 337 336 333 328 323 320 318
303 304 306 307 307 307 309 307 307 307 312 314 315 314 314 316 323 332 335 337 338 339 339 339 341 342 342 341 340 340 340 337 337 337 338 337 338 339 338 336 335 335 334 333 331 327 321 318 315
306 305 305 306 306 307 305 306 307 308 312 312 312 312 313 314 317 320 330 334 336 338 340 341 340 342 343 340 342 343 342 341 338 337 337 336 337 338 339 337 336 335 336 334 331 327 322 318 315
306 301 303 303 305 304 307 302 304 310 311 310 310 311 311 312 314 316 319 324 333 337 340 342 342 344 343 342 340 342 344 342 340 339 338 337 337 336 336 336 336 336 335 334 331 327 322 318 315
301 301 295 302 303 305 304 296 305 310 309 308 309 310 311 311 312 314 318 320 322 324 326 337 341 343 343 343 343 340 343 344 343 341 340 337 336 336 335 335 336 336 335 335 331 326 319 317 315
299 291 294 296 303 303 301 298 305 307 306 306 307 308 309 310 312 313 315 317 319 320 321 322 327 336 341 343 343 341 341 341 344 343 342 340 338 336 335 335 336 336 335 333 331 325 319 317 315
291 291 294 294 299 300 299 299 303 304 304 305 306 307 308 308 310 313 315 316 317 318 319 320 322 323 330 338 341 342 340 340 340 344 343 342 340 338 336 335 334 336 335 331 330 325 321 319 316
295 294 292 296 299 298 297 298 300 303 304 304 305 306 306 307 311 313 313 313 314 315 316 317 318 320 321 327 332 339 337 337 337 338 343 343 341 339 338 336 334 334 333 332 329 324 319 316 316
296 293 292 296 298 297 295 296 300 302 302 303 304 305 306 307 309 309 309 310 310 311 313 315 316 318 319 321 325 335 339 336 336 338 338 340 342 341 339 337 334 333 332 331 329 324 318 314 312
294 293 292 292 296 297 295 293 296 300 301 301 300 301 302 303 304 307 309 311 312 312 312 311 312 314 317 319 321 324 335 339 337 335 335 337 339 341 338 338 336 334 332 330 329 324 318 312 310
291 297 296 294 292 287 295 285 294 296 295 297 299 301 303 304 306 308 309 310 312 313 316 314 314 313 312 315 316 318 323 328 333 334 337 337 337 338 338 336 335 334 333 330 329 326 319 315 308
294 299 296 294 292 291 291 288 293 295 292 295 299 301 303 305 306 307 310 311 313 315 316 316 315 314 314 312 313 315 317 324 331 331 331 332 336 335 335 335 335 332 332 331 328 325 317 317 314
299 295 294 294 292 285 291 289 290 291 293 295 298 301 303 304 306 308 311 312 313 315 315 315 314 314 314 314 313 313 315 321 325 328 328 329 332 335 332 331 332 332 330 329 327 325 320 317 317
296 292 285 283 284 284 288 286 292 295 297 298 298 300 303 305 306 307 309 310 311 312 312 313 312 312 313 313 314 314 313 314 318 324 327 328 329 332 330 329 329 329 329 328 326 325 321 318 316
293 293 288 280 282 285 286 283 290 296 298 298 300 301 303 304 307 308 309 309 310 310 311 311 311 311 312 313 313 313 314 314 315 315 319 326 327 328 331 330 327 327 328 326 326 323 323 320 316
290 288 292 286 285 284 286 289 292 294 295 296 298 300 302 304 306 308 308 308 308 309 309 310 310 310 311 311 312 313 314 314 315 316 317 320 323 325 327 329 327 325 326 325 323 321 319 315 314
292 294 286 288 281 280 284 286 287 289 292 295 297 299 302 304 306 307 306 306 307 308 309 310 309 308 309 310 311 311 313 314 316 317 317 318 320 321 323 324 323 322 323 322 321 318 316 314 312
288 287 289 289 287 283 282 284 294 293 295 296 298 300 302 304 305 304 304 305 306 307 307 306 306 306 306 307 309 310 312 313 315 315 315 314 314 315 316 317 317 318 318 316 313 312 311 311 308
293 291 292 286 284 285 284 285 295 297 297 297 298 301 303 305 304 303 302 302 303 302 302 303 304 304 304 305 307 309 311 312 313 313 312 312 311 312 311 311 311 311 311 311 309 307 305 305 300

GFSSGP_sfc_thetae_042.txt.gz
Theta_e
335 331 330 319 304 303 299 300 303 304 303 307 309 306 304 308 318 313 335 339 347 345 349 352 358 359 359 360 359 358 357 357 355 352 349 347 344 342 340 345 348 348 349 348 344 341 340 339 339
330 329 322 313 301 296 297 303 302 304 308 309 309 307 305 316 330 331 335 342 346 345 346 349 358 359 360 359 358 358 357 356 353 350 347 344 341 340 339 348 349 350 348 345 343 340 340 340 341
330 329 313 306 301 296 299 304 303 308 308 308 307 308 309 319 329 333 341 341 345 342 344 349 355 358 359 359 358 358 356 354 351 348 345 342 340 339 342 348 347 346 345 343 342 340 341 341 341
323 318 312 302 299 303 304 304 305 307 308 309 308 307 321 331 330 337 341 341 341 340 345 350 353 356 357 356 356 357 355 352 350 346 343 340 340 340 344 344 343 343 342 341 340 340 341 342 340
322 314 302 299 301 305 307 308 306 306 306 307 306 307 321 331 338 339 338 341 339 342 343 344 353 354 353 354 355 354 352 352 349 346 342 340 340 340 341 341 341 341 340 340 340 341 341 340 338
311 310 299 296 300 305 307 308 305 304 307 306 304 308 322 333 336 337 339 338 340 342 343 343 349 351 351 351 352 354 353 352 350 346 342 340 340 339 339 340 340 339 339 341 342 341 338 336 336
308 304 298 300 301 303 306 309 304 304 304 305 307 304 323 333 338 339 338 339 338 341 341 341 342 344 348 348 349 350 353 352 350 347 345 343 342 340 339 339 339 339 341 342 341 336 334 332 333
312 307 301 301 301 302 308 309 309 306 304 309 309 306 317 332 338 340 339 338 338 337 340 338 339 340 339 341 345 345 345 350 348 346 343 341 340 340 341 341 342 343 342 343 337 333 332 333 333
315 302 298 301 302 305 309 306 309 309 306 306 307 318 327 337 337 335 335 337 337 338 337 338 339 338 337 338 341 343 343 344 344 343 339 336 332 334 336 337 339 343 344 342 334 332 329 331 330
307 301 301 307 309 307 309 307 306 304 304 303 305 320 329 334 332 330 330 330 333 335 336 337 337 335 334 337 338 336 340 340 341 340 336 333 331 330 333 334 338 341 343 340 335 330 328 326 314
306 301 307 309 311 309 309 307 308 304 302 304 304 312 323 328 328 330 330 331 331 334 336 336 335 334 333 334 336 333 336 335 338 338 336 334 332 330 332 331 332 334 335 333 330 324 317 313 313
300 305 306 308 309 307 306 309 305 305 304 308 310 311 316 322 326 329 329 332 333 335 336 338 338 334 333 333 334 332 331 333 333 334 337 334 329 330 329 331 327 330 333 332 328 323 320 316 312
302 303 305 306 306 305 308 306 303 304 307 310 311 311 309 309 319 326 331 332 333 333 336 338 338 337 335 333 333 332 331 331 332 332 332 331 329 330 330 329 329 327 332 330 328 323 316 312 310
303 304 304 304 305 306 304 303 303 304 308 308 309 307 307 309 310 311 327 329 330 334 336 338 339 337 337 335 335 334 335 333 332 331 332 331 331 333 331 329 331 328 329 327 325 322 315 311 308
305 299 302 302 304 303 305 300 300 305 306 306 306 307 309 309 309 310 313 320 330 332 337 337 337 339 337 336 335 336 338 338 333 332 332 331 330 331 332 331 330 330 331 329 325 321 316 311 308
300 299 293 300 302 303 302 293 302 306 304 304 305 305 306 308 309 309 311 314 316 318 325 338 341 340 338 337 336 336 336 338 337 334 332 332 331 330 329 329 330 331 331 331 326 320 314 310 307
297 289 292 296 302 301 300 295 302 305 305 303 303 305 305 305 306 307 309 308 313 314 315 316 323 337 338 338 338 338 338 338 338 340 337 333 332 331 330 328 330 332 330 330 330 321 312 309 307
290 290 292 292 298 300 297 296 301 302 301 299 300 300 301 303 305 306 308 309 310 310 311 313 316 318 321 335 338 337 337 338 339 338 338 336 334 332 330 328 328 332 330 329 330 321 314 311 309
294 292 291 295 299 297 296 297 299 301 300 298 299 300 301 302 304 305 307 306 306 307 308 309 311 313 314 316 325 334 333 333 335 337 337 337 338 334 331 330 328 328 330 330 328 320 314 311 308
294 289 290 293 298 296 294 294 298 298 299 300 300 299 300 300 301 302 305 305 306 305 306 307 308 310 312 313 314 322 334 334 335 334 336 337 336 335 333 331 329 328 326 326 326 321 313 310 307
291 290 290 290 294 295 293 290 292 297 299 301 297 297 298 298 299 302 303 305 306 306 307 307 307 308 308 310 312 313 315 331 329 329 332 335 336 334 334 334 330 328 326 325 325 322 317 310 306
289 294 294 292 289 284 293 279 290 294 295 295 293 294 295 299 302 304 305 306 306 308 310 311 311 309 309 308 307 307 309 311 325 331 332 333 333 334 335 334 333 332 327 325 324 324 319 311 306
293 297 294 293 289 287 288 283 287 292 289 292 294 296 298 299 301 304 306 308 308 310 310 311 311 310 309 308 306 305 306 309 312 322 326 329 332 333 333 333 333 332 331 328 323 322 319 314 309
299 294 293 291 288 279 287 285 285 289 291 292 295 297 299 300 302 303 307 307 307 309 309 309 308 308 309 308 308 306 305 306 308 314 320 322 323 327 329 330 331 330 330 329 328 324 321 316 312
295 289 280 278 278 277 287 285 287 291 293 294 295 297 299 301 301 302 304 305 305 305 306 307 307 307 308 308 307 307 307 306 306 306 310 318 323 323 325 326 326 327 329 328 327 323 322 316 314
291 289 281 276 276 278 284 280 286 292 295 297 297 298 299 299 301 303 304 303 303 305 306 305 305 305 306 306 307 308 308 308 308 308 309 309 313 319 323 324 323 323 324 327 326 324 323 320 316
290 284 289 282 281 277 280 284 289 292 292 293 294 296 297 299 301 302 303 302 302 303 304 304 304 304 305 305 306 306 306 308 308 309 310 310 312 318 317 318 322 321 325 325 324 323 321 320 317
291 292 285 281 274 275 279 281 282 287 289 292 293 295 298 299 301 302 301 300 302 303 303 303 303 302 303 303 303 305 305 307 309 310 309 310 310 312 312 314 314 316 320 321 320 319 318 315 312
288 286 287 286 282 277 276 279 288 289 290 291 294 297 298 299 301 300 299 300 301 300 300 300 301 301 300 301 301 302 304 307 308 308 307 308 310 311 311 311 310 313 313 314 313 312 311 310 308
293 290 290 281 279 279 279 280 291 291 293 295 295 298 299 302 300 300 299 298 298 297 297 298 299 298 298 299 299 301 303 305 307 304 304 307 309 309 307 307 307 307 307 308 307 306 305 305 301

GFSSGP_sfc_thetae_045.txt.gz
Theta_e
334 329 323 313 299 297 293 297 297 300 300 302 305 305 304 310 317 311 331 341 344 348 354 355 360 361 361 360 359 358 358 357 356 352 349 346 344 342 343 348 348 349 348 344 343 341 340 340 339
333 328 316 307 296 290 293 298 298 302 304 304 307 305 310 317 327 329 332 344 346 348 350 352 358 360 360 359 358 357 357 356 354 349 347 344 342 340 349 350 350 349 346 343 341 339 340 341 340
330 326 308 301 296 292 294 299 300 303 306 305 303 306 314 318 329 331 336 344 345 345 347 352 358 359 360 358 357 358 356 354 351 347 344 342 340 343 350 349 349 346 344 342 340 340 341 341 341
322 314 307 297 295 300 300 301 303 304 305 306 305 313 322 329 330 337 339 343 341 341 345 353 357 358 358 357 357 356 354 352 348 345 342 340 340 345 347 346 345 344 343 341 340 341 342 340 340
319 309 299 295 297 301 301 305 303 303 303 303 304 310 320 329 336 337 336 340 340 342 344 346 355 357 356 356 356 354 354 351 347 343 342 341 341 343 343 343 342 342 341 340 340 341 341 339 338
310 309 295 294 297 303 303 305 304 302 303 302 307 316 320 330 332 333 337 339 342 340 341 346 351 352 353 353 353 352 353 352 348 344 342 341 341 341 341 341 341 340 340 341 341 340 338 337 337
306 303 297 297 299 302 306 306 301 301 300 302 305 314 320 329 333 335 335 340 340 340 340 341 343 347 348 348 350 351 351 351 348 346 344 343 341 340 341 341 340 340 341 343 340 337 335 334 335
311 306 298 299 298 300 308 307 305 303 301 306 308 312 318 328 335 337 336 337 338 338 339 336 337 340 341 342 346 347 349 349 347 344 343 340 339 340 340 341 341 342 343 342 336 335 333 333 333
316 301 297 298 300 303 310 307 306 306 304 305 311 320 330 335 335 333 333 333 334 337 337 337 336 336 336 339 341 343 344 345 344 341 338 336 333 335 337 336 340 343 344 340 335 333 333 334 332
307 301 300 306 306 305 308 309 306 302 302 302 314 330 333 333 330 328 329 331 329 331 334 337 337 336 335 340 337 335 338 339 339 336 333 331 330 331 334 333 337 343 343 340 335 333 331 326 315
306 300 305 306 308 310 309 308 310 302 299 301 308 323 328 329 327 327 326 329 326 331 332 333 336 335 333 335 334 332 335 335 337 335 331 330 330 327 329 330 333 333 335 332 330 326 319 313 311
300 306 307 309 311 310 307 309 305 303 302 307 306 320 324 325 327 327 328 329 331 331 334 336 334 330 330 335 332 332 334 333 335 336 334 331 327 326 329 329 328 330 331 328 325 321 316 312 312
301 303 307 308 307 308 310 307 305 303 306 309 309 309 313 320 325 328 330 331 331 331 333 334 336 334 330 332 330 329 331 333 333 334 336 333 328 327 329 328 326 328 330 330 325 323 319 315 309
303 304 304 304 304 305 303 304 303 303 306 307 307 306 306 306 310 319 328 328 331 332 333 335 336 336 335 330 329 329 329 332 330 330 331 332 329 329 328 327 326 324 328 329 329 325 317 311 308
302 299 301 302 302 302 303 300 301 303 304 305 303 304 306 306 305 307 322 326 329 333 334 335 336 336 335 334 332 333 335 333 329 329 330 329 328 330 330 328 326 326 327 327 323 321 315 309 307
298 297 292 299 301 303 300 293 300 304 300 302 302 302 304 306 307 306 308 311 321 328 334 335 338 337 336 335 334 334 334 335 336 332 330 330 330 328 329 329 327 328 327 326 325 320 314 310 305
295 288 290 295 301 300 298 293 301 303 301 301 301 302 303 303 306 307 307 306 307 312 324 335 337 336 336 335 335 335 335 334 335 337 333 330 330 329 328 328 328 329 329 327 327 322 316 308 305
288 288 291 291 297 298 296 294 300 300 300 300 300 299 299 302 304 306 307 306 306 306 308 309 315 330 337 337 335 335 334 334 335 334 335 336 331 330 329 327 326 330 329 328 325 322 314 312 307
293 291 289 293 298 296 295 295 299 299 296 297 297 298 299 300 303 304 303 303 305 305 305 305 307 308 311 316 328 331 332 331 329 333 335 333 334 332 328 329 326 330 329 329 328 324 316 309 307
292 289 288 292 297 296 293 293 297 299 297 298 298 298 299 298 299 302 303 304 305 305 305 305 306 306 306 309 311 322 331 331 334 334 334 335 333 333 332 331 327 325 329 327 326 323 313 312 307
290 287 286 288 293 294 290 288 292 296 297 299 299 297 297 298 298 299 302 304 305 306 307 308 307 307 307 306 307 307 311 325 327 327 328 331 332 333 332 330 327 325 323 326 327 324 319 314 309
286 292 292 291 288 283 291 279 285 293 295 296 294 293 294 297 300 302 304 305 305 307 308 309 310 309 308 306 304 303 303 305 317 326 329 330 331 332 332 332 330 328 327 325 323 324 322 315 310
290 295 292 290 286 286 286 280 285 290 289 290 292 292 294 297 300 302 304 307 308 308 308 308 308 308 307 307 306 303 302 304 306 309 316 326 330 331 331 331 330 326 327 327 325 322 318 316 314
296 292 290 288 285 276 285 283 282 286 290 290 292 294 296 298 300 303 305 306 307 307 307 307 306 307 307 306 305 305 304 302 303 304 305 310 319 324 329 331 331 328 326 327 326 324 321 319 315
295 288 280 277 273 275 283 283 286 290 291 292 293 294 296 297 299 301 302 303 304 304 305 306 305 305 305 305 306 306 305 304 304 304 304 305 308 315 321 325 325 324 324 324 324 323 323 321 317
291 287 280 273 273 277 283 279 285 290 294 296 296 296 297 298 298 301 302 301 301 303 302 303 303 303 304 303 304 304 304 305 306 306 306 307 309 313 316 317 322 321 321 323 325 320 320 317 316
290 286 290 282 280 275 279 282 288 290 292 295 294 295 296 297 300 301 300 300 301 301 301 301 301 301 301 301 301 302 303 304 306 307 308 308 308 312 310 312 314 319 321 319 319 322 320 318 315
292 293 283 280 275 273 277 278 281 285 288 292 293 294 296 299 300 299 298 299 300 299 299 299 300 299 299 299 299 301 302 304 307 306 306 306 307 308 308 308 308 310 312 315 317 317 315 316 314
289 287 286 285 281 275 273 278 286 288 289 289 292 295 296 298 298 297 297 298 297 297 297 297 298 297 296 297 298 299 301 303 306 303 303 304 306 305 304 305 305 305 306 307 308 308 310 310 308
293 289 287 279 279 278 276 278 289 289 290 291 293 297 298 300 299 298 297 296 295 295 295 294 295 295 295 296 296 297 298 299 301 299 298 299 299 297 296 297 298 299 301 302 304 303 303 303 300

GFSSGP_sfc_thetae_048.txt.gz
Theta_e
334 330 321 311 299 296 292 296 295 298 298 301 303 313 314 313 314 305 331 341 347 348 353 357 360 360 360 359 358 358 357 356 354 350 348 346 343 341 348 347 349 347 345 343 341 340 339 338 338
331 325 314 304 295 290 292 297 298 300 304 304 304 303 314 317 325 330 333 344 347 349 352 355 360 360 359 359 358 358 357 355 351 348 346 343 340 347 350 349 350 347 344 341 339 339 339 339 338
330 322 307 300 295 291 292 298 298 302 303 304 303 311 316 318 328 331 338 343 347 347 350 355 359 360 359 358 357 358 356 352 349 346 343 341 342 351 351 350 348 344 342 340 340 341 340 340 339
319 314 305 297 294 298 297 300 303 302 303 304 308 314 322 327 329 335 342 344 342 342 346 354 357 358 358 357 357 356 354 350 347 344 342 340 346 349 348 347 345 343 342 340 340 341 340 340 340
317 308 298 293 296 299 302 304 303 301 301 302 305 312 318 330 334 340 341 342 340 342 347 353 358 358 357 356 356 354 354 349 346 343 341 341 345 347 345 344 343 342 341 340 340 341 340 338 339
309 308 295 293 297 302 303 305 301 301 301 302 316 317 317 329 330 337 337 339 343 342 343 347 353 355 355 355 354 353 353 350 346 344 341 341 343 343 344 343 342 341 341 341 341 340 338 337 337
306 302 296 295 298 301 305 309 299 300 300 300 316 314 319 325 333 334 338 340 340 340 341 343 344 348 350 351 351 351 352 349 347 345 344 342 341 341 342 342 341 341 341 341 340 338 337 336 335
308 304 297 298 297 299 308 309 309 302 299 304 317 316 317 326 334 334 337 336 336 337 339 338 339 341 343 345 347 347 349 347 346 344 343 340 339 340 341 342 342 342 343 341 338 336 334 334 334
315 300 295 297 299 301 310 306 310 308 305 312 318 321 328 333 333 332 330 332 333 335 336 335 335 335 337 339 342 345 346 345 343 341 338 336 332 335 336 336 339 342 344 340 336 334 334 335 334
307 299 299 304 305 304 308 308 308 305 303 312 321 329 332 332 330 329 328 327 330 331 333 334 333 334 335 340 337 336 340 340 338 335 333 331 330 331 335 333 337 341 343 340 336 334 334 330 317
307 299 304 306 308 309 308 308 311 305 300 307 319 324 327 326 326 327 328 329 329 332 333 334 334 334 333 335 334 332 333 336 335 332 330 329 329 328 328 328 332 334 335 332 331 327 320 314 309
301 306 307 308 310 310 307 310 307 306 304 307 319 327 325 324 324 326 327 329 330 329 331 332 334 333 331 332 332 330 332 331 334 333 330 327 325 325 326 327 328 329 331 328 325 321 317 311 310
300 304 307 310 311 310 310 307 307 306 310 307 318 322 323 323 324 327 328 329 330 331 332 332 331 328 330 331 329 329 331 331 335 334 333 330 326 325 326 327 326 328 329 327 324 322 320 315 312
303 304 305 306 306 309 305 306 307 308 308 306 307 307 310 319 324 323 327 328 329 330 332 333 334 333 329 330 328 329 330 332 330 334 335 333 330 326 327 327 326 326 329 330 327 324 322 318 312
302 299 301 301 303 302 305 301 303 309 307 304 302 304 306 306 307 322 327 327 329 331 332 332 334 335 333 329 328 327 328 330 328 331 332 334 332 327 327 327 326 325 326 328 326 325 322 316 311
295 297 292 299 301 302 301 294 304 310 303 301 301 301 303 305 306 305 317 325 328 332 332 333 336 335 334 333 331 331 333 333 330 327 328 330 331 329 327 327 326 327 324 326 324 322 318 312 307
292 287 290 294 301 300 298 293 300 304 301 299 299 300 302 303 303 305 305 307 312 324 327 332 334 334 334 333 334 332 332 332 334 334 330 328 329 328 329 329 328 326 325 324 325 322 316 312 307
288 287 292 291 297 298 296 294 299 300 298 298 298 300 300 301 303 305 304 304 304 305 308 314 328 333 334 334 333 332 332 332 332 334 335 335 329 328 326 327 328 327 326 326 323 322 316 312 310
292 288 289 292 297 296 295 295 298 300 296 295 297 298 298 299 300 301 301 302 304 304 304 305 306 306 317 327 329 329 331 331 330 331 333 333 335 332 327 326 324 326 327 328 326 324 319 313 308
292 289 286 291 296 296 294 294 297 299 297 297 296 296 298 297 298 301 302 303 304 305 306 305 305 306 306 307 309 323 329 330 332 332 331 332 332 331 331 327 325 324 327 325 324 323 318 316 309
288 287 286 287 292 293 290 288 292 296 297 297 297 297 297 298 298 299 301 303 305 305 306 308 308 307 306 305 306 306 308 320 325 326 327 330 331 331 329 330 327 324 325 326 325 324 320 320 310
285 291 290 290 288 283 290 280 286 292 293 295 297 293 295 295 297 301 303 304 305 306 307 308 308 307 307 305 304 302 302 303 309 320 325 327 328 329 330 330 328 328 325 323 324 326 324 317 312
289 293 291 289 285 284 284 280 284 287 287 292 294 292 293 295 299 301 303 305 307 306 305 305 305 306 306 305 304 303 302 302 303 305 306 310 318 325 328 330 329 326 326 325 323 320 320 320 321
295 291 289 287 284 276 283 282 282 285 288 289 290 292 293 296 299 302 303 306 305 305 304 304 304 304 305 305 304 303 302 302 303 303 303 304 307 313 319 325 327 327 324 323 323 321 319 320 318
291 286 275 276 275 276 282 281 287 290 291 291 290 292 295 297 298 300 301 302 303 303 303 304 303 302 303 303 303 303 302 303 304 304 304 305 307 310 312 315 319 322 322 323 322 320 320 318 317
290 285 277 273 273 276 282 278 284 290 292 294 294 295 295 296 297 300 300 300 301 301 301 301 301 300 300 300 300 301 301 303 305 306 306 307 307 309 310 311 313 316 318 319 319 319 318 319 317
290 284 287 279 277 272 278 282 287 287 288 293 293 294 295 296 298 300 299 299 299 299 298 299 299 298 298 298 298 299 301 303 305 305 305 305 306 309 307 308 309 311 312 315 317 319 318 315 313
289 292 283 278 273 272 276 277 280 283 287 292 293 294 295 298 299 298 297 298 297 297 297 297 297 296 296 297 297 300 301 305 305 303 302 303 304 303 303 304 304 305 307 308 310 313 313 312 312
289 287 288 286 282 275 273 277 284 286 289 291 293 295 295 298 298 296 296 296 296 296 295 295 295 295 295 295 296 297 298 300 300 298 299 300 297 297 296 298 299 300 301 302 303 303 303 305 306
293 289 288 282 277 278 276 278 287 288 290 293 293 295 297 300 298 296 295 294 294 294 293 293 293 294 294 294 295 296 296 296 296 295 295 295 294 294 293 293 294 295 295 296 297 298 298 300 299

GFSSGP_sfc_thetae_051.txt.gz
Theta_e
335 328 319 309 299 296 292 296 297 297 297 300 303 308 308 314 312 304 329 340 347 349 354 355 358 359 360 360 357 357 357 355 353 350 348 346 343 344 345 349 347 345 343 341 340 339 339 339 340
331 323 311 303 294 289 292 296 297 299 301 302 310 309 316 315 325 329 332 344 348 350 353 355 359 360 359 358 356 357 355 352 350 348 346 343 341 349 347 349 347 344 341 339 338 338 337 337 339
329 320 306 298 293 291 292 298 299 301 302 301 304 314 316 319 328 331 335 345 347 348 353 355 359 359 358 357 357 356 353 350 348 346 343 340 349 351 350 350 346 343 340 339 339 340 339 339 339
317 312 304 296 293 297 297 299 302 301 302 303 310 314 321 328 328 334 342 345 344 345 349 356 358 358 357 357 357 356 352 349 346 344 341 343 350 351 350 348 345 342 340 339 340 340 340 339 339
316 308 297 293 295 299 300 303 303 300 300 300 309 313 316 327 334 340 341 343 341 343 349 353 358 358 357 356 356 354 352 348 345 342 340 345 348 347 347 346 343 342 340 339 341 340 339 339 339
308 306 294 292 295 300 302 305 303 299 300 309 316 315 315 327 334 337 339 339 343 343 348 351 355 356 355 355 355 354 352 348 345 342 340 342 346 346 344 344 343 341 340 339 340 339 337 336 337
307 302 295 296 297 299 302 308 303 301 299 301 318 312 317 323 329 334 336 339 341 342 343 345 349 351 351 352 352 352 351 348 347 345 344 344 343 343 343 342 342 341 340 340 339 338 336 335 335
309 304 298 298 296 298 305 307 308 305 299 307 318 314 315 324 330 335 336 335 336 338 340 339 341 346 346 346 348 348 348 346 346 344 342 340 339 341 342 342 342 341 341 340 338 335 334 333 333
315 300 296 297 298 300 306 306 309 310 305 310 323 318 325 331 333 331 330 330 332 336 336 337 337 337 338 340 343 345 345 344 343 341 338 336 331 334 336 336 338 341 343 340 336 334 333 336 333
306 299 298 302 304 303 306 307 307 305 305 310 318 327 330 330 330 328 328 327 329 330 333 334 333 334 335 341 338 339 341 339 337 335 333 330 329 330 333 332 337 341 342 340 337 335 334 329 315
306 299 303 304 306 309 307 307 310 305 302 301 302 322 326 327 326 327 327 329 330 330 331 333 332 333 334 335 334 333 336 336 334 332 330 328 328 327 329 327 331 331 334 332 332 327 321 314 309
301 305 306 307 310 309 306 309 307 306 306 310 310 312 324 324 326 327 326 327 327 328 330 332 332 332 331 332 332 331 331 333 332 331 330 326 325 324 325 325 327 328 331 329 325 322 318 312 309
298 304 306 310 310 309 310 307 307 306 310 312 310 321 322 322 323 326 328 329 328 328 330 331 332 331 330 330 330 329 329 330 334 331 330 327 324 323 324 324 325 326 328 327 324 322 320 316 311
302 305 306 308 308 309 306 306 307 308 310 309 307 321 320 321 322 322 326 327 328 330 331 332 331 330 329 329 328 327 328 330 331 333 332 329 327 325 324 324 325 325 326 327 326 323 322 320 316
302 299 301 305 307 306 308 302 302 308 308 307 306 306 315 319 322 323 325 326 328 329 332 332 333 332 328 330 329 326 328 331 329 332 333 333 330 327 325 325 324 325 325 326 326 324 323 320 317
295 295 291 300 304 304 305 295 304 309 307 306 305 301 303 305 310 319 325 326 327 329 330 332 336 333 329 329 329 328 327 327 329 329 329 332 333 329 326 326 325 325 323 324 324 324 322 319 316
290 285 288 293 303 301 301 294 304 309 307 306 306 299 301 302 303 303 305 322 324 328 330 330 332 332 333 332 330 329 329 330 330 329 328 328 330 330 328 327 326 325 324 323 323 322 320 317 315
287 285 291 290 297 298 297 294 300 306 306 306 307 300 299 301 303 302 304 302 305 311 319 327 330 332 332 332 332 330 330 330 331 332 332 328 328 327 326 327 326 325 325 323 321 322 317 315 314
290 288 288 290 297 297 295 295 297 300 297 297 296 296 298 300 299 299 300 301 302 302 303 304 309 306 325 328 328 327 329 329 329 331 333 334 333 329 325 326 325 325 325 325 324 322 320 318 308
291 287 286 290 296 296 294 293 297 299 299 298 299 295 296 296 297 299 300 300 303 303 304 304 304 304 304 308 312 325 327 329 330 330 331 332 332 332 330 326 325 324 324 323 323 322 318 316 310
287 287 285 287 292 293 292 290 293 297 298 299 298 297 296 297 297 298 299 301 303 304 305 306 306 305 305 304 304 305 306 314 323 325 326 329 330 330 329 330 327 324 323 323 323 322 320 321 309
285 290 290 289 287 283 291 282 288 293 294 296 299 296 296 295 296 299 300 301 303 304 306 306 305 305 305 304 303 302 301 302 304 309 314 313 322 326 327 328 327 326 324 322 323 324 323 318 317
288 291 289 288 284 283 284 283 286 287 286 293 296 298 294 294 296 299 301 303 304 305 303 303 304 305 305 304 303 302 302 302 303 304 304 305 308 311 319 323 325 325 324 324 322 319 319 320 321
294 289 288 286 283 275 283 283 283 285 288 287 291 294 293 293 296 300 302 304 303 303 302 302 303 302 303 304 303 302 302 302 303 303 303 305 306 311 313 315 319 324 323 322 322 319 318 319 319
291 286 279 278 279 275 281 282 287 289 290 290 291 291 291 294 298 299 301 301 301 301 301 302 301 300 300 300 301 301 301 301 302 303 303 305 307 308 308 310 312 316 322 323 322 318 318 317 318
287 285 277 273 274 275 281 279 285 290 293 293 293 292 292 295 297 299 300 300 300 300 299 300 299 298 298 298 299 299 300 302 304 304 305 305 305 306 307 307 309 310 313 316 316 316 316 316 318
287 281 285 278 275 271 277 280 286 288 289 290 290 292 293 294 297 298 298 298 298 297 297 298 297 296 297 297 298 299 300 302 303 302 303 303 303 307 304 304 305 306 308 310 316 319 317 317 315
288 290 282 276 270 272 275 276 280 283 286 289 290 292 294 295 297 297 297 297 296 296 296 296 296 295 295 295 296 298 299 301 300 300 300 300 298 298 299 300 300 301 302 304 306 307 308 309 309
288 286 286 284 279 274 273 277 284 284 286 288 290 294 295 297 298 296 296 296 295 295 294 294 294 294 293 294 295 295 296 297 296 296 296 295 294 294 294 295 295 296 296 297 299 299 300 301 302
292 289 287 282 278 276 274 277 286 286 286 290 292 294 295 299 297 296 296 294 294 293 292 292 292 292 292 293 294 294 294 295 294 294 293 293 292 292 292 293 292 292 293 293 293 294 294 295 294

GFSSGP_sfc_thetae_054.txt.gz
Theta_e
335 327 317 308 297 295 289 293 297 297 295 299 301 304 305 313 311 302 327 338 345 349 353 355 358 358 359 359 357 357 356 354 352 350 348 345 343 346 350 347 346 344 341 340 340 341 341 342 343
331 319 310 302 292 287 290 296 297 298 299 308 308 310 313 312 324 327 332 341 347 350 352 352 358 359 359 358 356 356 354 352 349 348 346 343 344 347 350 348 346 343 339 338 338 338 338 340 341
327 318 305 298 291 289 290 297 299 301 302 301 307 316 315 317 327 330 333 346 348 348 351 353 357 359 358 357 357 355 352 350 348 345 342 343 349 348 350 348 345 341 339 339 339 339 339 340 339
317 310 305 295 291 295 295 298 301 302 301 300 309 311 319 327 329 332 343 346 345 348 349 355 358 358 357 357 357 354 351 349 346 343 340 349 351 350 350 347 343 341 339 340 340 340 339 340 340
315 307 297 293 294 297 299 302 303 299 300 299 308 310 313 327 334 340 342 344 344 347 350 354 358 358 357 357 356 354 350 347 344 341 341 349 350 350 348 346 343 341 339 340 340 340 339 339 339
307 305 294 290 294 299 301 304 302 302 299 305 313 310 312 324 331 337 341 341 345 346 349 352 354 356 355 356 354 353 351 347 344 342 342 347 348 348 347 344 342 341 339 339 340 339 338 338 338
304 300 293 294 297 299 302 306 303 303 300 298 316 308 314 320 330 335 336 339 341 344 345 347 349 351 352 353 352 351 350 348 346 344 344 346 346 346 344 343 342 340 339 339 339 338 337 336 336
309 304 295 296 296 298 305 306 307 305 302 307 316 310 313 324 331 334 335 336 337 339 341 342 344 346 346 347 349 349 348 347 346 344 343 341 340 342 344 342 342 341 340 340 338 335 334 335 334
312 300 295 296 298 300 306 303 308 309 306 308 321 321 325 329 332 330 329 329 332 336 336 337 339 340 341 342 345 346 345 344 343 341 338 335 331 332 333 336 338 341 342 340 337 335 333 333 330
306 299 299 302 303 302 307 306 306 305 305 302 308 313 326 328 330 328 327 327 329 331 333 335 335 335 336 341 339 342 341 337 336 334 332 329 327 329 333 331 336 340 342 340 336 334 334 325 314
306 299 304 303 305 308 307 307 309 304 302 303 305 309 315 325 325 326 327 328 330 329 332 333 332 333 334 335 335 335 336 334 333 331 329 328 327 326 328 326 330 330 332 331 331 326 320 314 309
299 303 306 306 308 308 305 308 304 305 306 309 309 310 311 322 323 325 326 327 327 329 330 332 332 331 331 333 333 332 333 333 331 330 329 326 324 323 324 324 325 327 328 328 325 322 319 314 309
299 302 305 309 308 307 309 307 307 306 310 311 309 309 316 322 323 325 328 328 327 327 329 330 331 330 330 330 330 329 329 332 332 330 329 326 324 322 322 322 323 324 326 327 325 322 320 317 313
304 305 304 307 307 308 306 306 307 308 310 308 308 308 310 320 323 323 326 327 326 328 329 330 331 331 330 329 328 329 328 329 331 330 329 327 325 323 322 322 323 323 325 326 325 323 321 320 318
303 300 303 304 306 305 306 301 302 308 310 307 306 307 305 310 322 324 326 326 327 327 330 330 331 331 328 328 328 327 328 329 328 331 331 329 327 325 324 323 322 323 324 325 324 323 322 320 320
297 297 294 300 304 305 303 295 303 309 307 305 305 306 305 304 308 321 325 327 328 328 329 331 334 331 328 328 329 327 326 327 328 328 330 331 331 328 325 324 323 324 323 323 323 322 321 320 319
293 287 287 293 304 303 300 295 304 309 307 304 305 305 305 302 303 304 309 323 326 327 328 329 331 331 329 328 328 327 327 325 327 327 327 329 331 330 328 326 326 324 322 321 322 321 321 318 318
287 284 286 288 298 301 298 293 302 306 304 304 305 306 303 301 302 304 303 303 314 319 324 327 329 330 331 330 329 327 326 327 328 328 327 327 328 329 328 328 326 324 323 322 320 321 318 320 319
289 287 287 289 296 295 297 297 297 305 303 302 303 305 300 300 303 300 300 300 301 303 309 316 324 322 328 327 326 325 326 327 327 329 331 331 328 326 325 325 324 324 324 324 323 320 320 317 311
289 286 284 289 294 295 293 294 298 298 302 304 304 304 301 298 297 299 298 299 302 302 302 303 304 304 310 319 321 326 325 326 327 328 329 330 330 331 328 324 324 323 324 322 322 320 316 316 311
286 286 285 287 291 291 291 290 293 298 298 299 302 304 299 297 297 297 298 300 301 302 303 305 305 304 304 304 304 304 305 309 319 323 324 326 328 330 329 329 328 324 322 322 321 320 320 320 310
284 290 289 288 287 281 289 281 289 295 296 297 299 300 298 296 295 297 298 300 301 303 305 305 304 304 304 304 303 301 301 301 303 305 307 307 311 316 323 326 326 326 324 322 322 322 321 318 320
287 291 289 287 283 282 281 281 286 288 290 297 299 298 298 297 296 296 299 301 302 303 302 302 304 304 304 304 303 302 301 302 303 303 304 304 306 309 314 315 317 322 324 325 321 319 318 318 320
292 288 287 284 283 274 281 282 284 286 288 290 292 297 298 296 295 297 299 302 302 301 301 301 302 302 303 303 302 302 302 302 303 303 303 305 306 310 310 311 312 318 321 322 324 322 319 318 320
289 286 276 277 275 274 280 280 286 288 290 290 292 293 293 293 293 296 299 301 300 299 300 301 300 299 300 300 300 300 301 301 302 303 303 304 306 307 307 308 308 310 313 320 323 322 321 318 318
288 286 277 273 273 275 280 278 283 289 290 292 294 293 292 292 294 298 300 299 299 299 299 299 298 297 297 298 298 299 300 301 303 304 304 304 304 305 305 305 305 306 309 311 318 319 319 318 318
286 284 284 277 273 271 277 280 285 287 288 290 290 290 290 293 296 297 298 298 298 297 297 297 296 296 296 296 297 298 300 301 302 301 302 302 300 303 301 301 302 302 304 306 314 315 314 316 314
287 289 280 276 269 271 274 275 279 284 286 288 289 290 291 294 297 297 296 296 296 296 295 295 295 294 294 295 296 297 297 298 298 299 298 296 295 295 296 296 297 297 298 300 303 306 308 307 306
287 284 285 283 278 272 272 277 283 284 286 285 287 290 292 294 296 296 295 295 294 294 293 293 293 293 293 294 294 294 295 295 295 294 293 293 293 293 293 294 294 294 293 294 296 297 298 301 299
293 287 285 277 276 275 274 279 287 285 286 286 288 290 293 296 297 295 295 293 293 292 292 292 292 292 292 293 293 293 293 293 292 292 292 292 291 291 291 292 291 291 291 291 291 292 292 292 292

GFSSGP_sfc_thetae_057.txt.gz
Theta_e
335 327 320 314 303 301 294 297 302 301 301 306 307 309 311 317 313 307 335 343 344 349 354 354 358 359 359 359 358 357 355 354 352 350 347 344 348 351 347 347 345 341 342 342 343 343 345 345 344
333 323 315 308 298 292 294 300 300 303 305 307 311 315 318 318 328 329 336 343 348 350 353 353 358 358 359 359 357 357 354 352 349 347 345 344 347 351 349 347 344 340 340 339 339 340 342 343 342
328 318 310 303 296 292 293 301 303 306 307 306 310 321 322 322 331 334 339 347 350 351 353 354 357 359 359 358 357 355 352 350 347 345 342 345 347 350 349 346 343 340 340 339 339 340 341 341 341
320 313 309 299 294 299 299 302 305 305 306 305 314 318 326 331 333 337 345 346 349 351 353 354 357 358 358 357 357 354 351 348 346 342 344 350 348 351 349 345 342 340 341 340 341 340 341 341 341
317 309 300 297 297 300 303 305 306 305 303 305 314 316 322 332 338 343 346 347 346 349 352 354 358 358 357 357 355 353 350 347 344 342 345 351 350 351 348 344 342 340 341 341 340 340 340 340 341
310 308 296 294 297 301 304 308 306 306 305 305 318 320 322 333 336 341 344 346 346 348 352 353 355 356 356 356 354 352 350 346 343 344 349 351 352 349 346 344 342 341 340 341 340 339 339 339 339
307 303 296 296 297 300 304 309 307 306 304 306 317 317 324 331 337 341 343 346 346 349 352 353 353 353 352 353 352 351 350 348 345 345 348 349 348 347 346 344 342 341 340 340 340 338 338 338 337
310 304 298 298 297 299 306 308 309 308 306 312 325 315 319 329 336 340 343 344 347 349 350 351 352 351 352 352 349 348 348 346 346 344 343 341 341 344 345 342 343 341 340 340 338 337 336 336 335
314 301 296 298 299 301 308 306 310 311 310 311 316 316 322 332 335 335 336 338 341 344 347 348 349 350 350 351 348 346 345 344 342 341 338 337 340 340 341 338 339 342 341 340 337 335 334 333 331
308 299 300 304 304 304 307 307 308 307 306 306 310 314 315 330 330 331 332 332 337 340 341 344 345 346 347 347 349 345 343 344 342 340 339 338 337 338 338 335 336 340 342 341 336 334 333 326 325
306 300 304 305 307 309 307 307 310 306 304 307 307 310 313 319 328 328 331 334 335 338 339 340 342 343 344 344 345 344 341 342 340 339 337 335 334 336 338 338 338 340 336 341 338 335 331 324 321
302 305 306 307 308 308 305 309 306 307 308 311 312 310 313 316 325 327 329 331 334 336 338 339 340 340 340 342 342 343 342 341 339 338 336 334 333 333 334 334 335 337 338 338 338 335 332 328 320
302 304 306 308 308 308 309 307 307 307 311 313 311 311 311 315 324 330 330 331 333 334 336 337 338 338 338 339 340 340 342 341 341 338 336 335 333 332 332 332 332 334 336 336 336 335 332 330 328
304 305 304 307 307 308 306 306 307 308 311 310 310 310 311 310 320 327 329 330 330 334 334 336 336 337 337 337 338 338 338 340 341 340 337 335 334 332 331 330 330 330 333 335 336 335 333 332 330
303 300 303 304 306 306 308 302 303 309 311 308 309 309 310 310 311 324 329 330 332 333 335 335 336 336 336 336 337 337 337 336 337 339 339 337 335 333 332 331 330 330 331 332 333 333 333 331 331
298 299 294 302 305 306 305 295 304 309 309 307 308 309 309 310 309 310 325 330 332 332 333 335 336 336 336 336 336 336 335 336 336 336 337 338 337 335 333 332 331 332 332 331 331 331 330 330 330
294 290 291 295 305 304 302 297 304 309 308 307 308 308 308 309 310 308 310 325 331 332 333 333 336 336 335 335 335 335 335 333 334 334 334 334 336 336 335 334 334 333 332 331 331 330 329 329 329
288 288 290 292 301 302 299 296 303 307 307 306 307 308 309 308 309 309 308 307 312 329 332 334 334 336 336 334 333 333 333 334 334 333 334 334 335 335 336 335 334 334 332 331 330 329 329 328 328
291 290 290 293 300 300 299 298 299 306 305 304 306 306 306 307 309 307 306 305 306 311 320 330 331 333 334 333 332 332 331 333 333 334 335 334 333 333 333 333 333 333 331 332 331 329 326 326 324
293 288 289 292 297 298 297 297 301 302 304 304 304 307 309 306 303 303 304 304 305 307 310 313 325 325 330 332 332 333 333 334 335 335 335 335 336 336 334 332 331 330 330 329 329 328 326 325 322
289 289 287 289 293 295 293 292 295 300 303 305 305 307 307 306 303 302 303 303 305 306 306 307 308 309 310 314 312 312 313 316 325 330 331 329 326 333 334 335 334 332 329 328 329 328 326 325 322
287 291 291 290 289 286 292 284 290 296 296 299 303 305 305 305 300 301 302 303 304 306 309 308 308 308 308 308 308 308 309 309 308 309 311 311 312 314 319 327 330 331 330 327 328 328 327 325 323
289 292 290 289 286 286 286 286 288 292 294 297 300 301 302 304 302 301 302 304 305 307 307 307 307 307 308 308 308 307 307 307 308 308 309 311 312 316 317 318 320 322 322 323 324 324 324 324 324
292 289 288 286 285 280 284 285 285 288 290 293 298 302 302 303 303 303 302 304 306 306 305 306 306 305 306 307 307 307 307 307 308 308 309 310 311 315 313 314 315 317 320 321 322 323 324 323 322
291 287 281 280 280 278 282 282 287 290 292 293 294 295 297 300 298 299 301 303 304 303 304 305 304 303 304 304 305 305 305 306 306 307 308 309 311 312 311 310 311 312 314 317 321 323 324 323 320
289 288 279 274 275 278 282 280 286 291 293 293 294 295 295 295 295 297 301 304 303 303 303 303 302 301 302 303 303 304 305 306 307 309 309 309 308 309 307 308 308 309 310 313 318 321 321 320 319
289 285 285 278 277 276 280 282 287 288 290 291 292 293 293 294 295 297 301 302 302 302 302 302 301 300 300 301 302 303 306 306 307 306 307 305 303 304 303 303 304 304 306 309 314 315 315 312 312
289 290 283 280 272 274 277 278 282 286 289 290 290 290 293 294 297 299 300 300 300 301 300 300 300 299 299 300 301 301 302 303 303 304 301 300 299 299 299 300 300 300 301 304 308 309 309 307 307
287 285 285 284 280 276 275 279 285 287 289 288 289 289 292 294 298 299 299 299 299 298 298 297 297 297 297 298 299 299 299 299 299 298 297 297 297 297 297 297 297 297 297 299 301 302 302 301 301
292 287 286 280 277 277 277 279 289 288 289 288 290 292 294 296 298 298 298 297 296 296 296 296 296 296 296 297 297 297 297 297 296 296 295 296 295 295 295 295 294 294 295 295 297 296 296 296 296

GFSSGP_sfc_thetae_060.txt.gz
Theta_e
337 332 329 321 306 305 300 302 308 305 305 311 312 312 315 322 315 313 341 345 345 347 353 356 360 360 359 358 356 356 355 353 351 349 345 350 350 348 347 344 342 342 344 344 345 347 345 345 344
336 326 323 315 301 297 299 305 304 308 310 313 317 319 317 318 332 335 338 345 346 348 351 353 359 359 359 358 356 356 353 351 349 347 344 348 351 349 348 343 341 341 341 342 343 344 344 343 342
331 325 314 307 301 298 299 305 307 311 313 312 315 324 324 325 334 337 343 347 347 349 350 352 357 359 359 357 356 354 351 349 348 345 343 347 351 350 347 343 340 340 340 340 341 342 342 343 342
324 321 315 302 298 303 303 308 310 310 310 313 314 320 331 336 336 340 346 347 348 349 350 353 356 358 358 357 356 353 350 348 346 343 345 347 350 350 347 342 341 341 341 341 341 342 342 342 341
323 316 302 300 300 304 308 310 311 309 308 312 317 319 326 338 343 345 346 346 345 348 350 353 358 358 358 357 355 353 349 347 343 344 349 351 350 350 346 343 341 342 341 341 341 341 341 341 340
313 313 300 297 300 305 308 312 311 309 308 314 318 321 328 339 338 343 345 347 347 347 349 353 355 356 356 355 353 352 349 345 342 347 354 351 352 349 346 344 341 340 341 341 340 339 340 340 337
310 306 301 301 300 303 306 312 310 309 310 313 321 319 329 336 339 343 345 346 347 349 348 350 353 353 353 352 351 351 349 347 344 348 350 351 350 349 346 344 342 340 341 341 339 338 338 338 335
312 307 301 302 300 300 309 310 312 311 311 322 328 318 323 330 337 343 345 344 343 349 349 348 352 350 350 352 349 348 348 346 345 345 344 342 344 345 346 343 342 340 340 340 338 337 336 336 334
318 303 299 301 301 303 311 309 312 315 315 316 318 316 318 333 337 340 342 342 343 347 349 349 347 347 349 351 347 345 345 344 342 341 339 338 341 342 341 338 340 341 340 339 337 335 334 332 332
310 301 302 307 307 306 309 310 310 310 311 313 315 318 321 333 332 336 336 336 339 342 346 348 348 347 348 349 349 345 344 345 343 342 339 335 334 337 338 337 337 340 341 340 336 334 333 328 330
309 302 308 308 309 310 309 309 312 309 308 312 312 315 318 320 329 331 335 337 338 341 344 346 348 347 347 347 348 345 343 345 345 343 341 338 335 334 335 336 336 339 336 339 337 336 334 328 326
304 309 308 309 310 309 307 310 308 309 311 314 315 316 318 318 322 329 333 337 339 341 343 345 345 346 346 346 347 345 343 344 344 343 342 340 338 337 335 332 334 336 336 336 338 337 336 334 330
305 308 310 310 310 310 311 307 307 309 313 316 315 316 316 317 320 330 332 336 339 338 340 343 345 344 346 346 345 346 344 344 344 344 343 341 340 338 338 334 331 332 334 335 335 336 335 334 333
308 307 308 310 309 310 307 308 309 310 314 314 314 314 315 316 316 324 333 335 336 339 341 344 344 344 346 345 346 344 344 344 344 344 344 342 341 340 338 337 334 331 333 334 336 337 337 336 336
306 303 305 306 307 305 310 305 305 311 314 312 313 314 314 316 317 316 327 334 337 339 340 341 342 344 344 344 344 343 343 343 343 343 344 343 341 340 338 337 336 336 335 335 336 336 337 336 336
301 302 296 303 307 307 307 299 307 311 311 311 312 314 314 315 316 317 316 331 338 339 338 340 339 341 342 342 342 341 341 341 341 342 342 343 341 340 339 337 337 338 338 337 336 336 335 335 335
298 292 295 298 307 307 305 300 306 310 310 309 311 313 314 315 316 318 316 321 335 339 339 338 339 339 340 341 341 342 342 341 341 341 341 341 340 340 340 339 339 340 339 338 337 337 336 335 335
291 293 295 296 303 304 303 302 304 309 309 308 310 312 313 314 315 318 317 315 325 336 339 339 339 339 341 342 341 341 341 341 341 340 340 340 340 340 340 340 340 340 338 338 338 336 337 336 335
295 294 294 298 304 302 301 301 304 306 308 308 309 310 312 314 316 315 316 315 314 317 334 337 338 339 339 339 338 337 338 339 341 341 341 340 340 340 339 339 339 340 338 338 337 337 335 334 335
295 292 293 297 303 302 301 300 304 306 307 308 309 309 312 313 314 313 312 312 313 314 319 331 335 338 339 341 341 340 340 340 340 341 340 340 340 340 340 340 339 339 338 337 337 336 333 333 334
294 292 293 294 300 301 299 297 301 306 307 308 310 310 310 312 313 314 310 310 311 311 313 317 323 332 336 339 337 334 333 334 336 338 339 339 335 338 337 338 338 338 337 334 336 335 332 328 332
291 297 296 296 294 289 299 287 296 300 302 304 307 309 309 311 310 310 309 308 309 311 313 314 314 316 318 324 328 330 331 331 326 323 320 319 316 317 319 327 332 333 333 330 330 331 330 329 325
292 297 296 295 292 291 291 289 293 297 297 300 304 306 309 311 310 310 310 311 310 312 313 314 314 313 313 314 315 316 315 315 315 315 314 316 317 320 320 320 322 323 325 326 325 326 325 327 326
297 295 294 294 292 285 290 289 290 293 296 299 303 305 308 309 310 311 313 311 311 313 313 313 313 312 313 314 314 315 314 313 314 314 314 315 317 319 318 318 319 321 322 323 324 324 322 322 323
296 293 285 283 283 283 288 288 291 296 298 300 300 301 304 308 309 309 311 309 310 311 311 311 311 311 312 313 313 313 313 313 313 313 314 313 315 316 317 316 316 317 318 319 322 322 322 323 323
293 292 286 278 280 283 287 285 291 298 300 302 300 301 302 303 303 304 307 309 310 310 311 310 310 309 310 311 311 311 311 313 313 313 314 315 315 314 313 313 313 313 314 315 318 320 322 323 323
292 289 290 285 284 285 287 289 295 298 297 299 299 299 300 301 303 304 303 306 310 310 310 310 309 309 309 309 310 310 312 311 311 312 313 313 311 309 309 309 309 309 310 312 316 318 318 317 315
294 295 286 289 280 278 283 285 288 292 295 297 298 298 299 300 301 302 303 305 308 309 310 310 309 308 307 308 309 309 309 310 311 311 310 308 307 306 306 306 306 306 307 309 312 312 311 311 311
291 290 290 291 288 282 281 285 294 294 295 296 297 299 300 301 301 302 303 305 306 306 307 307 306 305 306 306 306 307 307 307 308 308 307 305 304 303 303 303 303 303 304 306 309 306 305 305 304
295 293 293 286 284 286 285 286 296 295 295 295 298 300 301 301 303 303 304 305 304 304 304 303 304 304 305 304 304 304 305 304 305 304 303 303 302 302 301 301 301 301 301 303 304 303 303 303 302

GFSSGP_sfc_thetae_063.txt.gz
Theta_e
341 336 328 323 306 305 301 305 310 308 307 313 314 314 316 323 317 317 340 343 346 349 352 355 359 359 359 357 355 355 353 352 350 346 350 349 348 348 344 342 344 345 346 348 349 347 345 344 343
337 329 324 314 302 297 299 308 306 309 313 313 316 316 315 322 333 335 338 344 345 349 353 352 359 359 358 357 355 354 352 350 348 346 348 351 349 348 343 341 342 342 343 345 345 344 343 343 343
336 328 314 306 301 298 299 307 308 311 315 313 313 321 322 326 335 336 343 344 344 348 350 355 359 359 358 357 355 353 351 349 347 345 346 351 350 348 343 341 341 341 341 342 343 343 343 343 342
326 320 316 303 299 303 305 308 310 310 312 316 315 316 331 339 337 342 344 344 344 346 349 354 357 358 358 357 356 352 349 347 345 343 347 350 351 347 343 341 342 341 341 342 342 342 342 341 342
327 316 303 301 301 305 308 310 312 309 310 314 316 315 327 338 343 344 343 343 344 345 351 351 357 358 357 356 354 352 348 345 343 346 348 348 351 347 344 341 342 341 341 342 342 342 342 340 339
313 313 301 298 301 306 309 312 311 310 311 316 315 319 329 339 341 343 343 344 345 345 349 350 355 356 355 354 353 351 348 343 344 348 351 350 350 347 345 342 341 342 341 340 340 340 340 339 338
310 305 301 302 302 303 307 313 310 309 310 315 323 318 330 332 340 343 345 343 344 346 347 348 351 352 352 352 351 351 348 344 345 350 353 352 349 348 345 343 341 340 341 340 339 338 338 337 335
313 308 302 303 301 302 309 312 313 312 312 326 328 320 324 330 338 343 346 342 343 344 347 345 349 349 350 350 348 348 347 345 347 347 345 344 344 346 345 343 342 340 341 339 338 336 336 335 333
318 301 300 302 302 304 311 309 313 317 317 320 320 319 322 336 338 341 342 340 341 342 345 347 349 346 347 347 345 345 344 343 342 342 340 339 341 341 339 339 341 341 340 338 336 335 334 333 333
309 301 301 308 309 307 310 310 312 313 314 315 316 321 333 336 334 338 338 336 337 341 344 346 347 344 346 348 345 344 343 342 341 336 336 335 336 337 337 338 338 340 341 339 336 334 333 330 329
310 303 308 308 310 311 310 310 313 311 310 315 313 317 322 333 332 334 335 337 338 341 344 344 345 345 346 346 345 345 343 344 343 342 339 335 332 333 331 335 335 337 337 337 336 335 333 330 327
303 309 309 309 311 311 309 312 310 311 312 316 316 317 320 325 331 331 333 335 336 339 342 345 345 345 344 344 346 345 342 342 343 342 341 338 336 336 333 331 333 335 336 334 336 335 334 334 332
305 307 309 310 311 310 311 308 308 309 313 316 316 316 317 319 328 332 333 336 338 337 339 340 344 343 343 342 344 343 342 341 341 343 342 341 339 338 337 333 330 331 332 332 333 333 333 333 332
308 306 307 310 309 309 307 307 309 310 314 314 314 314 316 317 319 329 333 334 337 338 338 340 340 341 340 342 343 343 342 341 341 341 342 342 340 339 337 336 334 330 331 332 332 334 336 335 335
307 301 304 308 308 308 310 303 304 310 312 312 313 314 315 317 318 319 329 335 338 339 341 340 341 342 341 343 342 342 341 340 340 340 341 341 340 338 337 336 336 336 334 333 334 335 336 335 335
302 302 293 305 307 308 307 298 307 312 311 309 312 313 314 316 317 319 319 330 337 339 340 342 342 341 341 342 343 341 340 339 340 340 341 342 341 339 339 337 337 338 338 337 336 335 335 335 334
298 293 293 297 306 305 304 299 307 311 310 309 311 313 314 315 317 319 320 319 333 338 339 340 341 340 340 340 340 341 341 340 340 341 341 341 341 340 339 339 339 339 339 338 337 336 336 334 334
291 292 295 295 302 303 301 299 306 309 310 309 310 311 313 314 316 319 320 318 327 337 339 340 341 340 340 341 341 342 341 341 341 340 340 341 340 340 339 339 339 339 338 336 336 335 336 335 334
296 293 293 297 303 300 299 300 304 307 309 309 309 309 311 313 317 319 318 318 317 328 337 339 339 340 340 339 338 339 338 340 340 341 341 341 340 340 340 340 339 338 336 336 336 335 333 332 336
295 294 294 297 303 301 300 299 303 307 308 309 310 310 311 313 315 317 315 316 316 316 327 336 338 339 340 340 340 340 340 341 341 343 342 341 341 340 339 339 338 338 337 336 335 334 332 333 335
294 293 295 295 299 302 299 297 300 306 308 309 311 312 311 311 313 316 315 314 315 315 316 326 335 337 339 340 341 340 339 339 338 339 339 340 340 340 339 339 337 338 337 335 335 334 332 328 329
289 296 296 295 295 289 299 288 296 301 303 306 308 309 309 311 312 314 315 313 313 314 317 317 321 330 336 338 337 333 331 332 335 335 335 331 323 323 325 328 333 335 334 331 331 331 331 329 326
293 298 296 297 294 293 293 290 294 299 298 302 305 308 309 311 312 313 313 314 314 315 317 317 317 318 320 323 329 331 331 330 323 319 317 316 317 319 320 320 321 322 323 325 326 326 325 325 324
299 297 296 296 292 285 290 290 290 295 297 299 303 305 307 309 311 314 315 315 314 316 317 317 315 314 316 316 317 319 319 316 315 316 315 316 316 319 319 318 319 320 321 322 324 324 324 321 320
296 292 284 283 284 283 291 289 292 297 299 301 301 303 305 308 309 311 312 314 313 314 315 314 313 312 314 315 315 316 316 316 315 316 315 315 315 316 318 317 317 317 318 318 320 321 322 319 319
294 292 286 278 281 284 290 285 291 299 301 302 303 303 304 305 306 306 309 311 313 314 314 312 312 312 313 314 314 314 314 314 314 314 314 314 314 315 315 314 314 314 314 314 316 318 320 321 322
294 290 293 287 288 286 288 291 296 299 298 300 300 301 302 303 304 306 307 306 311 313 313 312 312 311 311 312 312 312 313 313 312 314 314 314 313 311 310 310 310 311 311 311 313 316 316 318 316
296 297 287 289 280 278 284 286 288 293 295 298 299 301 302 304 304 304 305 306 308 312 313 313 312 310 310 311 311 311 311 312 312 312 312 311 310 308 308 308 308 308 308 309 311 312 312 312 311
292 291 292 291 289 283 281 285 295 295 297 297 299 301 303 304 304 305 306 307 308 311 311 311 310 309 309 309 309 309 309 309 310 310 309 308 307 306 305 305 305 305 305 307 309 308 307 307 306
296 293 293 286 285 287 286 287 297 298 298 298 300 302 304 304 305 306 306 307 307 308 308 308 308 307 308 308 308 308 308 307 307 307 306 306 305 304 303 303 302 302 303 304 305 305 305 305 304

GFSSGP_sfc_thetae_066.txt.gz
Theta_e
339 337 333 321 306 301 297 300 307 309 307 311 313 311 311 324 319 313 334 341 349 347 351 355 358 358 357 357 355 355 353 352 349 352 350 349 347 343 343 346 345 344 350 349 347 345 344 343 342
334 333 321 314 298 294 295 304 304 309 309 311 314 314 315 321 330 329 331 343 347 349 350 352 358 358 357 357 355 354 351 349 347 351 349 350 346 342 343 343 344 344 346 347 343 344 344 343 342
335 334 311 304 299 293 296 303 306 309 311 311 311 320 326 326 331 330 337 342 346 347 348 354 358 358 357 356 355 352 350 348 346 350 352 350 347 342 342 342 342 342 344 342 344 344 343 343 343
326 321 313 300 296 300 301 304 307 309 310 312 313 321 331 336 336 338 339 341 345 345 351 355 357 357 356 356 355 351 349 347 345 349 352 350 347 343 342 342 341 342 343 343 343 343 341 343 342
325 315 301 298 298 302 304 308 308 307 307 310 314 314 326 336 341 341 337 339 341 347 351 354 357 357 356 355 354 351 347 345 344 348 351 351 347 344 342 342 342 342 342 343 342 342 341 340 342
312 312 297 294 298 303 305 309 307 307 308 312 311 311 328 337 339 339 338 338 342 346 348 352 355 355 355 354 352 350 348 345 348 351 351 351 347 345 342 342 342 341 341 342 341 341 340 338 341
308 303 299 298 299 301 306 310 305 307 306 313 321 315 328 331 338 342 341 340 342 345 346 348 350 352 352 351 350 349 347 347 351 352 352 351 348 346 344 341 342 342 341 340 339 339 339 337 338
312 307 299 300 299 300 308 309 311 310 312 323 322 315 320 328 339 342 343 339 340 342 343 345 347 348 348 346 347 346 344 347 348 347 346 344 344 345 345 343 342 341 341 339 338 337 337 336 333
316 301 297 300 301 303 309 307 312 315 314 316 317 317 329 335 339 339 339 334 340 343 342 346 346 346 346 344 344 343 342 342 343 341 340 339 338 339 337 339 340 341 341 338 337 335 334 335 334
306 299 300 306 307 305 308 308 309 310 312 311 316 329 333 334 335 336 333 332 336 339 340 344 343 342 345 344 342 338 337 334 332 337 335 335 333 333 338 335 338 341 341 339 337 336 335 332 324
307 300 305 306 309 310 308 308 312 310 308 312 311 319 330 331 333 335 334 332 333 340 341 344 342 343 345 342 340 339 337 338 336 330 329 328 328 329 331 331 332 333 335 334 334 332 329 324 320
301 306 307 308 311 311 307 310 308 310 310 313 313 316 327 328 330 332 333 334 335 339 340 343 342 342 343 345 342 339 337 339 338 336 334 328 327 325 323 328 328 329 331 330 330 329 328 327 325
302 306 308 310 310 310 311 308 307 308 312 314 314 316 316 325 329 331 333 334 335 336 340 341 342 342 342 342 344 341 336 336 339 338 336 333 332 330 329 325 324 325 326 325 326 327 325 325 325
305 306 307 309 308 309 306 306 307 308 311 311 313 312 313 316 322 329 330 332 335 336 336 339 341 340 340 339 341 340 337 339 334 336 336 336 334 332 331 328 325 322 323 324 324 325 328 328 328
306 301 303 305 308 306 308 302 303 308 310 309 311 311 313 314 316 321 331 332 334 336 337 336 338 339 338 339 339 339 339 337 334 335 336 335 334 332 330 329 328 328 325 325 325 327 328 328 330
299 301 294 300 305 307 305 296 305 308 307 307 308 309 311 313 314 316 317 332 335 335 336 337 341 339 338 339 340 339 339 333 333 334 335 336 335 333 331 330 329 331 330 329 328 328 327 327 327
296 291 293 293 301 304 302 298 305 308 308 306 307 308 310 311 313 315 316 320 332 333 336 336 338 336 337 339 340 338 334 333 333 333 334 336 336 335 333 333 332 332 332 331 331 330 329 327 327
289 290 294 292 297 300 299 299 304 306 308 306 307 308 309 310 312 315 317 314 325 333 335 336 337 336 336 335 336 335 336 334 334 334 335 336 336 335 333 333 333 333 334 332 332 331 331 330 330
294 293 291 295 301 298 299 299 300 304 306 306 306 307 308 310 312 315 314 313 314 329 333 335 335 335 335 334 332 332 332 334 334 335 336 336 335 335 334 333 335 334 333 332 332 330 329 329 330
294 292 291 296 301 300 297 296 300 302 303 305 305 305 306 309 311 312 312 312 311 313 329 333 335 335 335 335 335 335 334 335 336 337 337 337 337 336 335 334 334 334 334 333 332 332 329 329 330
292 290 291 293 298 300 297 293 297 301 304 305 306 307 307 307 309 310 310 310 311 310 314 328 333 335 335 336 335 335 333 334 333 334 334 336 336 336 337 336 335 335 335 333 333 331 329 327 328
289 296 296 295 292 287 296 283 293 298 300 304 304 304 305 306 307 310 309 309 309 309 311 312 320 331 334 335 334 331 328 327 330 331 331 326 320 319 319 321 327 333 332 330 327 328 327 327 324
291 296 294 294 291 289 290 284 288 296 294 299 302 304 305 305 306 307 309 310 310 311 311 311 313 316 323 329 332 329 327 327 317 314 314 313 313 315 317 316 316 316 317 318 319 319 320 320 318
298 295 294 293 290 278 286 286 285 289 293 297 303 304 305 305 305 307 310 310 310 311 312 311 311 312 313 315 318 322 323 312 310 310 310 310 311 315 315 316 315 315 316 316 317 318 318 317 315
295 289 279 278 276 277 287 284 286 293 295 296 296 297 299 302 303 306 308 309 309 309 311 311 309 309 311 312 312 312 312 310 310 310 309 309 309 311 313 313 312 312 313 314 314 314 315 316 314
292 289 281 275 274 279 287 280 287 294 297 298 298 297 297 297 299 299 301 305 307 310 310 310 309 308 309 310 311 311 311 310 310 310 310 309 309 309 309 309 309 309 309 309 310 311 313 315 315
290 285 290 284 283 280 283 286 291 295 295 296 296 297 296 297 297 297 299 300 301 309 310 309 309 309 309 310 309 309 310 310 308 310 309 308 307 307 304 306 305 306 306 307 308 309 310 312 311
294 294 284 283 276 276 280 282 283 289 292 295 295 295 297 299 299 299 299 300 301 304 309 310 308 307 307 307 308 308 309 309 309 309 307 307 304 304 303 303 303 303 304 305 305 307 309 309 309
290 289 290 288 283 278 277 280 289 291 293 293 295 296 296 297 299 300 300 301 302 305 306 306 307 306 306 306 305 305 305 307 307 307 305 304 303 302 301 301 301 301 301 301 302 306 306 306 305
295 290 290 282 281 282 280 281 292 293 294 294 296 296 297 299 300 301 301 301 301 303 304 304 303 303 304 305 305 304 304 303 304 304 303 302 302 301 300 299 299 299 299 299 299 300 301 304 303

GFSSGP_sfc_thetae_069.txt.gz
Theta_e
334 333 331 317 303 297 293 297 303 308 309 314 308 312 321 324 319 309 334 346 348 349 353 355 358 357 356 355 353 354 352 351 353 350 348 344 343 346 345 346 350 350 348 347 345 344 343 342 341
334 334 318 310 296 289 291 299 300 308 309 313 314 316 320 320 328 327 337 346 348 349 351 354 357 357 356 356 354 353 350 350 352 352 348 343 343 344 345 344 345 347 346 344 344 344 343 342 340
330 331 307 302 295 290 293 299 301 310 309 310 311 317 323 324 332 331 343 346 348 348 351 355 356 356 356 355 353 350 349 348 353 353 351 344 343 342 343 343 344 345 343 342 343 343 343 342 340
323 317 310 295 293 297 298 301 304 308 309 311 317 316 329 336 335 340 344 347 345 345 351 355 355 355 355 355 353 349 348 347 351 353 350 345 343 343 342 342 343 344 344 343 343 342 343 342 340
320 311 298 294 296 298 302 305 306 304 307 309 316 318 322 335 341 340 341 345 343 348 351 353 356 356 355 354 352 350 347 346 351 352 349 346 343 343 342 342 342 343 343 343 343 341 341 343 340
309 308 293 292 295 302 302 307 306 304 305 309 313 322 325 336 337 340 340 345 349 348 351 352 353 354 353 353 351 349 347 348 350 353 350 347 344 342 343 342 342 342 342 342 342 341 339 341 341
305 301 295 294 294 299 304 308 303 305 303 313 316 319 326 329 338 341 341 345 347 349 349 350 351 351 350 350 349 347 348 350 351 352 350 348 346 343 342 343 342 341 341 340 340 340 338 338 340
309 304 295 296 295 296 307 307 309 308 312 320 320 318 320 327 337 341 341 340 343 345 347 345 348 349 346 345 345 344 347 348 350 349 347 344 343 344 343 342 343 341 340 339 338 338 337 336 333
314 298 295 296 298 300 307 306 309 312 312 316 318 321 329 334 337 337 337 336 339 342 343 345 345 345 343 342 340 341 344 343 342 342 340 339 339 339 338 337 340 342 340 338 337 336 335 335 333
306 298 298 302 304 303 305 306 308 308 309 316 323 330 334 334 333 333 333 333 336 337 342 344 344 344 342 342 337 334 335 337 337 336 336 335 334 334 337 335 337 341 340 339 337 336 335 331 323
306 298 304 305 308 311 307 305 310 308 305 310 320 325 330 331 332 332 332 335 336 338 341 342 343 344 340 339 337 333 331 329 330 334 333 331 330 333 332 331 333 332 334 332 334 331 328 322 320
300 305 305 307 310 310 306 308 306 309 307 311 322 329 329 330 331 331 331 332 336 337 340 341 341 343 341 338 338 336 334 334 331 328 327 323 323 325 327 328 328 328 331 329 328 326 326 324 321
300 303 307 308 311 309 310 306 305 306 309 312 314 327 327 329 330 331 333 333 334 336 339 340 341 343 343 339 338 337 334 334 335 332 330 326 326 324 324 324 326 326 328 326 326 326 325 324 324
302 303 305 308 308 309 307 305 306 307 310 310 311 313 321 327 329 330 330 331 332 335 337 340 341 341 343 342 341 339 334 333 333 336 334 331 330 328 329 325 320 320 322 322 322 323 323 324 325
302 299 303 306 307 305 307 302 301 306 309 308 308 310 312 315 328 327 328 329 333 335 336 339 340 341 340 339 342 340 338 336 332 334 335 333 332 330 330 327 324 324 321 321 321 323 325 325 327
296 299 294 301 306 306 303 295 304 307 305 305 306 307 310 312 315 327 330 331 331 333 335 338 340 339 338 338 339 337 339 336 335 335 333 334 333 331 329 328 327 327 326 323 324 325 324 324 325
293 289 292 294 304 303 303 295 304 307 305 303 304 305 307 310 311 313 324 332 334 332 334 336 338 337 338 339 338 338 338 334 332 333 333 333 334 333 330 330 329 330 329 328 327 327 326 325 326
287 289 293 292 296 301 298 297 302 306 304 303 303 304 305 307 310 313 314 321 333 332 333 334 336 337 336 335 337 337 336 334 332 331 332 334 334 333 331 331 331 330 332 332 331 330 330 329 330
292 291 291 295 298 296 296 296 300 303 303 302 302 303 304 306 310 313 314 314 324 330 331 333 333 334 334 332 330 331 329 330 330 332 334 334 334 334 331 331 331 333 331 331 331 330 329 328 328
294 291 291 296 299 296 295 294 299 302 301 302 303 303 304 306 308 310 309 310 313 328 330 331 334 332 333 333 332 333 332 332 333 334 335 336 335 335 333 332 332 333 332 332 331 331 330 329 329
292 291 292 292 296 298 296 292 296 301 301 303 303 304 305 305 306 308 309 308 309 313 327 332 333 334 333 334 333 333 332 332 332 332 333 334 335 335 336 335 335 334 334 332 333 331 330 326 325
286 294 295 295 292 286 296 284 293 298 298 300 300 301 304 305 305 308 310 307 307 307 311 326 331 333 335 334 332 329 328 326 328 329 331 323 324 321 319 321 326 330 330 327 325 326 324 322 321
292 297 296 295 291 289 290 283 288 296 294 297 299 301 302 305 304 306 307 308 309 309 309 310 320 330 333 333 333 330 326 327 323 320 318 316 314 316 316 316 316 316 316 316 317 317 317 318 317
298 294 293 292 289 278 288 286 284 287 294 295 300 301 302 303 304 305 307 308 308 309 309 308 309 313 321 324 327 327 325 319 312 311 311 311 313 314 315 315 313 314 314 315 315 315 315 315 315
294 288 280 278 277 278 286 285 285 289 292 294 297 296 299 301 301 303 305 305 306 308 308 309 308 308 310 315 318 319 321 313 312 312 309 309 309 311 312 312 311 310 310 311 311 311 311 312 313
288 287 279 274 273 278 285 281 285 291 294 295 296 296 295 294 295 297 301 304 304 307 308 308 307 307 309 309 310 310 312 311 311 310 309 308 309 309 310 310 309 307 307 307 308 308 309 311 311
290 281 287 281 280 276 280 284 289 291 292 293 295 295 294 295 296 296 297 298 301 305 307 308 307 307 308 310 309 309 309 309 309 309 310 308 308 307 306 306 306 305 305 305 305 306 307 308 309
291 291 281 279 272 274 278 279 282 287 289 293 294 294 296 297 298 299 298 297 298 301 307 307 307 307 307 307 307 308 308 309 309 308 308 307 305 305 303 303 303 302 302 303 303 304 305 305 305
289 288 288 286 282 277 275 278 286 288 291 291 293 295 295 296 297 298 299 299 299 302 304 305 304 305 305 307 307 306 306 307 307 306 306 304 303 303 302 301 300 300 299 300 300 302 303 303 302
292 290 290 282 281 281 278 280 290 291 292 294 294 295 295 296 298 299 299 299 300 300 301 302 302 303 303 303 304 304 304 304 303 303 303 303 300 301 300 299 299 298 298 297 297 299 299 301 302

GFSSGP_sfc_thetae_072.txt.gz
Theta_e
333 331 328 315 300 297 292 296 301 306 309 313 312 315 318 323 318 307 337 343 346 350 353 353 356 356 355 354 352 350 351 351 350 346 343 344 345 347 351 351 350 348 346 345 344 343 343 343 344
333 332 320 308 295 288 291 299 299 307 311 315 314 315 318 320 326 335 337 346 348 350 352 352 356 356 354 353 352 350 351 352 350 345 343 344 344 344 347 350 348 346 345 344 343 342 341 342 343
326 330 308 303 294 290 292 299 301 305 311 313 310 316 323 323 331 332 343 346 347 349 352 353 355 355 354 353 351 349 351 352 351 346 343 343 345 344 344 344 344 344 342 343 343 343 341 341 341
321 316 310 296 293 295 298 299 304 305 311 315 315 314 326 334 334 338 345 346 345 346 349 353 354 354 354 354 351 348 351 350 350 346 343 342 343 343 344 344 345 344 343 342 343 342 341 341 340
320 309 299 294 295 295 301 303 305 304 307 311 315 315 319 327 336 340 343 344 343 347 350 351 354 354 353 352 350 349 349 352 350 347 343 343 342 342 343 343 342 342 343 342 341 342 341 340 340
308 307 296 292 294 299 301 304 304 303 306 312 313 317 322 330 336 338 341 343 348 348 350 350 351 353 352 351 350 349 349 352 351 348 344 343 343 342 342 342 343 343 343 342 341 340 341 341 339
305 301 295 295 293 297 302 307 302 304 304 312 320 316 325 329 336 339 339 344 347 349 348 348 349 349 349 349 348 347 347 350 352 350 347 345 343 342 342 342 342 342 342 341 341 339 339 340 338
309 303 295 294 294 294 304 306 308 308 312 317 321 317 318 326 334 341 341 343 345 347 347 345 346 347 344 343 345 346 348 349 350 348 345 343 341 342 343 343 342 341 340 340 339 338 337 335 333
311 298 294 296 295 297 305 304 308 312 313 322 324 324 327 331 335 337 337 337 339 345 345 346 345 342 340 339 339 344 345 345 345 344 341 339 337 337 337 337 340 341 340 338 337 337 336 335 333
304 297 296 302 303 302 305 303 306 308 312 318 323 330 330 331 333 331 333 333 334 338 342 344 344 341 338 339 333 335 339 338 339 339 337 335 334 334 336 334 337 340 340 339 337 336 335 330 321
304 298 302 303 306 308 306 304 308 307 305 316 319 326 329 331 330 331 332 334 335 336 340 343 343 341 338 336 332 329 331 333 334 335 334 332 333 331 332 331 332 331 333 330 333 330 327 321 318
297 304 304 307 309 310 306 307 306 306 306 317 325 329 330 329 329 330 330 329 329 336 339 341 343 341 338 336 333 331 328 327 328 331 331 327 327 329 328 328 328 327 329 326 326 324 324 323 321
297 301 305 307 310 309 311 307 306 304 308 319 327 328 325 329 330 331 331 334 336 335 338 340 341 341 338 335 334 333 332 330 329 327 327 323 324 326 325 325 325 325 326 326 325 324 324 324 324
299 301 303 307 307 309 307 306 306 306 308 313 323 324 325 327 328 329 331 330 334 336 338 339 339 341 339 336 336 335 334 333 332 331 327 324 325 323 323 320 324 323 324 326 323 324 323 321 322
300 297 301 303 305 306 308 303 301 306 309 307 311 317 322 325 328 328 330 331 334 335 339 339 340 339 340 338 339 338 336 333 331 332 333 328 328 327 327 325 319 319 319 322 319 319 322 324 325
296 297 292 300 304 305 305 296 303 305 306 305 305 308 312 319 326 328 328 331 334 334 335 338 341 340 340 340 340 340 338 333 333 332 332 332 331 330 328 327 325 324 322 320 320 322 322 322 323
292 288 291 295 305 304 301 297 304 308 304 302 303 303 306 308 313 325 329 331 332 333 335 335 338 337 337 338 340 339 337 337 334 335 335 334 332 331 329 327 327 327 326 325 324 324 324 323 325
287 287 291 291 298 299 299 297 300 305 304 301 302 303 303 306 309 314 325 329 331 333 334 335 336 336 337 337 338 337 336 334 333 333 334 333 332 331 329 329 329 328 328 328 329 329 329 329 328
290 290 290 293 299 297 297 296 300 302 302 300 300 302 302 304 308 311 313 324 331 330 332 332 333 334 335 333 333 332 330 332 332 331 331 332 332 332 330 329 330 330 331 331 330 329 328 328 328
291 290 291 295 298 297 296 295 299 301 301 301 302 302 303 304 305 308 310 310 323 330 331 331 333 332 334 333 332 331 330 329 330 332 332 333 335 335 331 330 330 330 331 331 330 330 328 327 328
291 290 290 291 296 298 294 292 295 299 302 302 303 304 303 304 305 305 308 308 309 323 329 332 333 334 334 333 332 331 331 331 330 330 330 334 335 335 334 332 333 333 334 332 332 331 329 326 325
286 295 294 292 292 286 294 284 292 296 298 300 300 300 301 302 303 305 307 308 306 312 325 330 332 332 334 332 331 331 329 327 330 329 330 328 330 331 332 332 333 332 330 328 326 326 323 321 318
289 296 295 293 288 288 288 285 287 296 294 297 298 299 300 302 303 305 306 309 308 307 311 321 328 332 333 333 331 330 326 327 326 326 325 321 322 321 319 318 316 317 319 318 317 316 316 317 317
296 294 293 292 289 282 286 286 284 288 294 296 297 298 300 302 302 304 306 307 306 307 307 307 315 322 325 327 329 329 328 325 319 319 319 316 316 318 319 318 317 315 314 314 315 314 313 313 313
293 287 282 280 279 277 288 285 286 290 292 296 297 298 298 299 300 301 303 304 305 306 307 307 308 311 318 322 323 326 326 324 319 317 317 313 314 315 316 314 312 310 311 311 311 310 309 309 310
290 285 279 276 276 278 285 281 286 291 292 294 294 292 292 293 293 297 300 303 303 305 305 306 306 306 308 310 316 316 319 315 316 315 314 314 313 314 314 311 310 309 309 309 308 307 307 307 308
289 285 286 280 279 279 281 285 289 291 291 293 294 294 294 295 295 296 296 297 298 303 305 306 306 306 307 307 307 308 313 312 311 311 310 310 309 310 310 309 308 306 305 305 305 305 304 306 307
290 291 280 278 273 275 278 279 283 287 289 292 292 293 294 295 297 297 297 297 297 297 302 305 305 305 306 306 306 307 306 307 309 310 309 308 306 305 304 303 303 303 303 303 303 302 303 303 304
287 285 286 283 280 275 274 277 285 287 291 290 291 293 294 295 296 297 298 298 298 299 301 303 304 304 304 304 304 304 306 307 307 306 306 305 303 302 302 302 301 301 300 300 299 299 302 301 301
291 288 286 277 277 278 277 279 288 290 291 292 292 293 293 294 296 297 298 298 298 299 300 301 302 302 302 303 303 304 304 305 304 304 304 302 301 301 301 299 299 298 298 298 298 298 301 300 300

GFSSGP_sfc_thetae_075.txt.gz
Theta_e
331 332 327 317 299 294 291 294 302 305 309 314 313 317 317 319 314 305 336 341 347 348 351 351 355 355 354 352 350 348 350 350 346 344 345 349 351 351 351 350 348 346 344 343 345 346 346 346 346
329 330 321 309 295 287 289 298 298 304 312 315 316 318 318 318 330 333 337 345 348 349 350 350 354 354 352 351 350 351 350 347 344 343 344 347 350 351 351 349 346 345 343 343 343 344 345 343 343
324 328 310 302 294 288 289 297 302 309 313 314 311 319 321 322 331 334 340 346 348 348 350 350 353 353 352 351 349 351 350 347 343 343 347 346 346 350 349 347 344 343 343 342 342 343 342 342 343
318 317 311 297 293 295 294 296 302 309 313 315 314 312 324 332 332 338 345 346 344 345 348 351 353 352 352 352 350 350 349 347 343 342 344 345 344 345 344 344 342 342 343 343 342 342 341 341 343
317 310 298 296 294 295 297 300 303 306 309 313 313 310 318 326 338 343 344 345 344 345 348 349 353 352 351 350 350 351 352 348 344 342 342 343 344 344 343 342 341 342 342 342 341 341 340 340 341
303 308 294 291 293 297 299 301 303 301 305 311 311 313 318 328 331 339 341 343 346 347 348 348 350 351 350 349 349 349 351 350 345 343 342 342 342 343 342 341 341 342 342 341 341 341 340 339 339
299 299 295 294 294 295 300 304 300 301 303 308 314 313 322 321 329 338 338 341 344 346 345 346 347 348 349 348 348 348 350 351 348 346 344 343 343 342 342 340 341 342 342 341 339 340 340 339 337
305 303 296 294 294 294 302 304 304 303 307 316 322 314 315 323 330 339 339 339 343 342 343 343 345 345 342 342 345 345 347 349 348 346 343 341 341 342 343 342 343 342 341 340 339 337 336 336 334
308 297 293 296 295 298 302 301 307 312 313 321 321 323 325 328 334 330 327 335 336 339 340 343 345 341 339 337 340 344 345 345 345 343 339 337 334 336 337 337 340 341 340 339 338 337 336 336 333
299 295 295 301 302 298 303 302 305 310 314 317 322 328 329 329 329 324 321 323 332 338 342 344 344 340 337 338 336 337 339 340 342 339 336 334 333 332 334 333 337 340 340 339 337 337 335 331 320
298 294 299 302 305 307 307 305 307 307 308 316 318 322 327 329 326 325 322 329 332 334 340 344 342 339 336 333 331 333 334 335 337 336 334 332 332 330 330 329 331 330 332 329 332 328 325 320 318
294 299 302 303 306 308 305 308 304 306 308 317 325 325 325 327 329 328 330 330 328 335 335 337 339 339 336 333 330 330 332 332 332 333 332 330 328 327 328 327 327 326 327 323 323 323 322 321 319
295 297 302 305 308 309 310 307 305 304 309 324 327 326 324 327 329 331 332 332 333 330 331 336 339 337 336 333 330 328 329 330 331 331 331 328 326 327 327 326 325 324 324 324 322 322 322 322 322
296 297 299 304 305 308 305 306 306 306 309 321 325 324 325 327 328 327 328 327 328 328 329 337 339 340 338 334 332 331 329 328 328 327 328 326 325 327 326 325 324 323 323 325 323 323 323 323 321
296 294 297 300 303 304 307 302 302 306 309 315 319 321 324 326 328 328 329 329 331 333 335 337 338 340 338 334 334 334 334 333 331 330 327 324 324 324 324 321 319 323 322 323 323 319 320 320 323
292 295 288 298 302 305 304 294 305 307 306 306 311 313 318 323 327 328 330 332 334 335 337 338 339 339 339 337 336 336 335 332 333 332 332 327 325 325 325 325 321 319 319 318 318 318 319 321 322
290 286 287 294 302 302 301 296 305 308 305 304 304 304 307 314 320 326 328 330 333 333 335 337 338 337 338 339 339 337 336 334 332 332 332 331 329 329 328 326 325 324 322 320 319 321 322 322 323
284 285 288 291 298 300 298 296 302 305 303 301 301 304 304 306 311 317 327 330 332 332 334 336 337 338 337 338 339 336 336 335 335 333 334 334 333 330 328 327 326 326 325 325 324 324 326 326 328
289 287 288 293 299 297 297 296 300 303 303 301 300 301 302 303 306 311 314 326 328 329 330 333 334 335 335 334 333 332 333 331 331 331 334 334 334 331 328 328 327 327 326 327 327 329 327 327 328
290 287 289 292 297 297 294 295 299 302 302 302 301 302 301 302 303 306 309 312 326 327 329 330 332 333 334 335 334 333 330 329 330 331 332 334 333 332 330 328 328 328 328 329 329 329 328 328 328
290 287 290 290 292 295 293 291 295 300 302 303 302 302 303 303 304 304 305 309 310 323 327 330 332 334 334 332 331 330 330 329 328 330 330 331 333 332 332 331 329 329 331 330 330 330 328 325 323
286 293 294 292 289 286 293 283 292 296 298 299 300 299 301 302 303 304 305 306 308 310 324 327 330 331 332 331 330 330 329 327 328 328 328 329 331 331 333 331 332 332 331 330 329 328 327 323 318
288 295 292 291 288 288 289 284 288 295 294 297 299 298 299 301 302 303 304 306 308 308 315 326 327 329 330 329 329 327 325 327 327 326 327 325 325 325 325 325 324 324 323 322 322 321 320 317 316
296 294 292 291 287 281 286 285 283 289 293 296 298 297 299 300 301 302 304 305 304 304 307 313 320 324 327 329 328 328 327 324 323 323 323 320 319 321 321 320 319 318 317 317 317 316 313 311 311
293 289 282 280 279 279 287 285 286 289 292 294 296 297 298 298 300 300 300 303 303 304 305 306 309 317 320 323 324 326 328 326 324 321 321 318 317 316 317 317 316 314 313 313 313 311 309 309 309
288 286 281 276 276 278 285 282 285 289 291 293 296 293 292 293 294 297 297 302 302 303 304 305 305 305 308 315 319 320 323 323 323 321 320 318 317 315 315 313 311 310 310 310 308 308 306 306 306
286 282 287 281 280 279 280 284 289 291 291 292 291 293 292 293 294 295 295 296 297 298 302 304 305 305 305 306 308 312 315 316 314 314 315 312 312 313 311 309 308 307 306 305 305 304 304 304 305
289 289 281 280 276 275 278 278 283 287 289 291 292 292 293 294 295 296 296 297 297 298 300 302 304 304 304 305 305 306 306 309 311 310 308 309 309 310 308 306 305 304 304 302 302 301 303 304 304
286 286 285 283 280 275 275 279 285 287 290 291 290 292 293 294 294 295 296 297 297 297 299 300 302 303 303 303 303 304 304 305 306 307 306 304 304 303 304 304 303 301 301 299 298 299 300 301 300
289 286 283 277 277 277 275 277 287 288 290 291 291 292 293 293 293 294 295 296 297 297 297 298 299 301 302 302 302 303 304 304 304 305 305 303 303 302 302 301 299 298 298 297 297 297 298 299 299

GFSSGP_sfc_thetae_078.txt.gz
Theta_e
327 330 326 318 300 295 290 293 300 303 309 314 316 317 317 319 312 303 335 342 345 347 349 350 355 354 354 351 349 348 350 348 347 349 351 352 352 352 351 349 346 345 345 346 347 347 346 346 346
326 327 319 308 296 289 289 294 296 300 311 315 315 316 318 318 329 334 337 345 347 348 348 349 353 354 352 350 347 350 348 345 345 347 350 351 352 352 349 348 345 344 345 346 345 346 344 344 344
322 326 307 302 297 291 288 294 298 304 312 314 313 318 320 321 332 335 340 345 347 346 348 349 353 353 351 349 349 350 347 344 344 347 349 350 351 351 349 346 344 343 343 344 345 344 343 346 348
315 312 308 298 294 295 293 295 300 306 312 314 313 310 325 331 331 337 345 346 344 344 346 349 352 352 352 350 350 349 346 343 343 347 347 349 350 350 347 344 343 343 343 344 344 342 343 344 348
314 306 296 295 295 296 296 300 300 303 309 309 312 310 318 328 339 343 345 345 343 343 345 347 351 351 351 350 350 350 347 343 342 344 344 344 346 345 343 343 342 343 342 343 342 341 341 341 343
302 302 294 291 295 298 298 301 300 299 303 310 310 312 318 329 334 339 343 341 345 343 344 346 348 351 351 349 349 349 348 344 342 342 344 344 345 343 342 342 342 342 342 342 341 340 340 340 339
298 295 293 292 294 295 299 304 299 298 301 308 314 308 319 323 334 339 339 340 341 342 343 342 344 347 348 348 348 349 349 347 344 344 344 344 344 342 341 341 342 342 341 341 341 341 340 338 337
302 302 292 294 292 294 301 304 304 302 300 314 316 311 315 321 334 337 335 335 338 338 339 341 341 344 342 341 345 346 347 346 345 344 342 341 340 341 342 341 343 342 341 340 339 338 338 337 335
305 295 290 293 295 297 301 301 306 311 309 315 319 319 322 325 332 326 324 326 328 335 337 340 342 340 339 338 340 343 345 345 343 341 339 337 333 335 336 336 340 342 340 339 338 337 335 333 330
297 290 291 297 299 297 302 303 303 309 311 313 319 325 323 326 323 319 319 320 323 329 335 339 341 339 337 338 337 337 340 343 342 336 333 331 331 332 334 333 337 340 339 339 336 335 335 327 318
296 291 295 297 302 303 303 305 307 307 305 313 316 320 321 323 318 318 319 320 321 325 337 341 342 338 335 334 334 334 335 337 341 334 332 331 330 329 328 328 330 329 331 327 329 326 324 318 317
291 296 297 299 303 303 302 307 305 307 307 310 320 324 321 323 318 316 316 318 322 329 332 335 339 336 334 331 333 332 333 334 337 336 332 329 327 326 326 325 326 325 326 322 321 321 320 319 319
291 294 298 300 301 303 305 304 306 305 308 314 324 325 319 324 321 320 319 321 329 326 327 328 330 335 335 330 329 332 332 334 334 334 332 329 327 326 326 326 325 324 323 323 320 320 321 320 321
293 294 295 299 300 302 303 304 306 307 308 310 321 323 321 326 323 326 324 326 324 327 326 327 326 336 336 333 329 329 331 332 332 332 332 329 327 326 326 325 324 322 322 323 322 322 322 322 320
293 289 294 296 298 301 304 300 302 306 307 307 318 320 323 326 329 327 328 325 324 323 326 328 328 336 336 334 332 331 329 329 329 330 329 329 326 325 327 325 323 323 322 323 322 320 319 320 321
289 289 285 294 298 302 301 293 303 306 305 305 308 314 320 325 328 328 329 328 327 326 328 332 332 337 337 335 334 334 334 332 329 329 327 326 325 324 324 323 321 320 322 321 320 320 317 318 320
286 280 283 289 298 299 299 295 304 306 303 303 305 307 309 317 323 327 330 329 329 330 332 335 336 336 337 336 336 335 335 333 332 331 331 328 325 324 324 324 324 321 319 317 317 317 319 319 320
280 281 288 287 295 297 297 296 304 305 304 301 302 303 305 307 315 324 328 330 331 333 334 334 336 335 336 337 336 335 335 335 333 332 331 332 329 326 325 326 325 324 321 321 320 319 321 323 324
285 284 284 290 297 295 295 295 299 304 304 302 303 303 303 305 310 315 321 327 328 330 330 333 333 334 334 333 332 333 333 334 333 333 333 332 332 331 329 327 326 325 324 325 324 323 324 326 328
286 285 286 292 297 296 294 294 299 302 302 304 303 302 303 304 305 309 312 316 326 327 328 330 332 333 333 333 332 332 331 332 333 332 332 332 333 333 331 329 328 326 326 325 326 327 326 327 327
286 286 287 289 293 293 291 289 292 299 302 305 304 303 303 303 304 306 305 309 314 322 326 329 331 332 333 334 333 329 329 328 328 329 329 330 332 332 332 330 328 327 328 328 328 328 327 325 324
285 291 292 290 288 284 292 282 290 295 298 300 303 303 301 304 304 304 305 305 307 309 322 328 329 330 331 331 331 330 328 326 327 328 328 328 329 329 330 330 329 329 331 330 328 327 327 326 322
289 294 292 290 286 288 287 284 288 295 293 297 301 304 301 303 302 303 304 305 307 308 310 322 326 327 329 329 330 329 327 327 327 326 325 323 324 324 325 327 327 326 325 324 323 321 320 319 318
295 291 291 290 288 280 285 286 284 289 293 297 300 302 302 304 302 302 303 305 305 304 307 316 321 323 325 326 326 326 327 325 324 322 322 323 323 323 323 323 324 324 322 320 320 318 317 316 314
294 288 280 278 279 279 286 285 286 288 290 294 299 300 300 300 300 301 301 303 304 303 304 306 310 314 318 321 324 325 325 324 323 322 322 321 319 317 319 319 319 317 314 314 314 313 312 311 310
290 288 282 276 276 279 285 281 285 288 290 292 294 296 294 295 296 296 298 299 300 302 303 304 305 305 305 310 315 319 321 322 322 322 321 322 322 320 319 316 313 311 311 311 310 309 307 307 306
288 284 288 281 281 279 282 284 288 291 291 292 292 293 292 292 293 294 295 295 296 297 299 301 304 305 305 305 306 308 312 316 317 316 318 318 317 317 316 313 310 309 308 307 306 305 304 304 303
287 289 281 281 276 275 279 278 282 287 288 290 290 290 291 293 294 294 295 296 296 297 298 301 302 303 304 304 304 305 305 309 313 312 311 312 310 311 308 307 307 306 305 304 303 302 302 302 302
285 284 283 283 280 277 276 279 285 286 289 288 289 291 291 292 292 294 294 295 295 296 297 298 299 301 302 302 303 303 304 305 307 307 307 306 307 308 306 305 303 303 302 301 301 300 300 300 300
287 285 282 278 277 276 275 278 287 287 290 291 290 290 291 291 291 291 292 292 293 293 295 296 298 299 299 300 300 301 302 303 303 303 303 303 303 303 303 302 301 300 299 298 297 296 297 298 298

GFSSGP_sfc_thetae_081.txt.gz
Theta_e
330 331 330 321 304 301 296 298 303 305 307 316 318 319 318 322 314 308 339 342 346 348 350 351 354 354 352 350 349 351 347 349 351 354 355 354 354 353 351 348 347 346 346 347 347 346 347 347 346
328 328 321 312 299 292 294 300 299 305 313 317 319 318 315 317 330 334 336 344 347 349 350 350 353 354 353 350 349 350 347 345 350 352 353 353 353 352 349 347 346 346 348 347 345 345 345 345 346
323 325 312 305 298 292 293 299 302 304 314 316 315 319 318 321 332 335 343 347 348 348 350 350 352 353 352 348 350 349 346 344 348 351 352 353 353 350 348 345 345 348 347 346 345 344 346 348 348
319 316 311 299 295 299 298 301 301 303 310 316 316 312 324 331 332 339 345 346 347 348 350 350 351 352 351 350 350 347 344 343 344 349 350 352 352 350 346 344 346 346 346 345 344 345 348 348 347
318 309 298 295 296 300 301 302 303 302 307 313 315 312 317 330 336 340 344 346 345 348 350 349 351 352 351 352 350 348 344 343 343 346 349 350 351 349 345 344 343 344 345 344 343 343 343 346 346
307 306 294 292 295 301 303 305 304 303 306 312 312 313 316 334 335 338 343 346 347 346 348 348 348 351 351 351 350 349 345 343 344 346 347 349 348 345 343 343 343 343 344 344 342 342 341 341 343
302 299 293 294 295 297 301 307 303 303 303 305 314 310 320 326 335 335 337 344 346 346 347 347 347 348 348 349 348 348 346 344 344 344 345 346 345 344 342 343 342 343 343 342 342 341 340 339 337
305 301 294 295 294 295 303 305 307 305 304 312 316 312 314 323 338 337 334 329 337 342 345 345 346 347 346 347 346 347 346 344 344 343 342 341 338 341 343 342 343 342 341 341 341 341 339 337 335
309 295 290 293 295 298 303 302 307 310 306 315 319 317 322 329 332 329 327 326 327 335 339 342 344 345 343 343 344 345 345 343 342 340 338 338 339 339 339 338 340 342 342 340 339 338 335 333 331
299 292 291 297 300 299 303 303 304 305 306 309 318 323 325 331 327 326 324 323 323 325 333 339 341 342 341 340 343 345 345 344 341 340 339 339 340 340 339 336 337 340 340 339 338 336 333 327 327
298 292 296 297 299 303 303 305 307 306 303 307 312 318 324 326 323 324 325 325 324 325 330 337 339 339 339 338 340 341 344 344 342 339 338 338 338 339 339 339 339 339 334 336 336 334 331 327 327
292 296 297 298 300 301 301 305 304 307 307 310 313 321 323 321 319 319 322 322 323 324 331 332 330 336 337 337 338 339 342 343 340 338 337 336 335 336 335 335 336 336 336 333 333 331 330 328 327
292 294 296 298 300 300 301 300 302 305 311 312 313 321 322 319 319 319 320 321 324 325 329 329 331 331 335 335 337 338 338 342 341 339 338 336 334 333 333 332 333 333 333 332 330 329 328 328 329
293 294 294 296 296 298 299 299 303 306 310 311 312 315 321 318 317 318 318 320 321 323 327 328 328 330 336 333 335 337 338 339 341 340 337 337 336 334 333 334 333 332 332 331 330 328 330 331 331
293 289 291 293 296 294 301 297 298 307 309 308 310 313 320 321 320 318 321 324 325 326 327 326 326 328 337 335 332 334 336 336 338 338 340 337 336 335 334 334 333 332 331 330 330 329 329 329 329
288 288 283 290 294 296 298 290 300 307 307 305 308 310 317 322 322 325 326 327 325 326 324 325 325 328 333 336 334 334 333 332 336 337 338 338 336 334 334 333 333 332 330 329 330 330 327 326 326
286 280 282 285 296 295 296 293 301 308 306 304 305 307 310 319 325 327 328 327 325 326 325 325 327 328 336 336 334 334 334 335 335 334 334 336 335 333 332 331 332 330 327 328 328 326 326 325 326
279 281 283 283 292 294 294 295 303 305 304 304 304 306 307 309 315 320 326 327 327 329 327 327 328 331 337 337 336 337 336 336 336 334 334 333 332 331 330 329 330 329 326 325 324 323 324 327 329
286 284 283 287 292 293 292 295 297 300 304 302 304 305 306 306 310 315 318 326 329 330 330 330 333 333 333 332 330 333 332 335 335 337 335 335 335 332 329 329 328 329 328 326 325 325 325 327 329
285 283 284 290 293 293 294 293 296 299 301 304 305 305 305 306 307 309 313 319 325 327 329 330 331 330 333 331 331 330 331 334 337 337 335 334 335 334 333 331 328 329 330 329 328 329 329 329 330
286 283 284 288 293 294 293 290 292 297 300 304 306 307 306 305 305 307 308 314 319 326 327 328 331 331 332 332 332 331 331 331 330 332 334 332 333 334 333 333 333 331 331 330 331 331 330 327 327
284 290 290 290 289 285 292 282 291 295 296 300 303 305 305 305 306 307 308 308 312 317 326 328 330 331 332 332 332 329 327 325 328 330 331 332 333 331 331 331 331 331 330 330 330 332 331 330 328
288 294 292 290 288 288 287 285 289 294 293 297 301 303 306 305 306 305 307 309 311 311 313 323 327 328 330 332 332 329 325 324 328 329 329 328 327 329 330 330 330 328 326 326 325 328 325 326 325
295 292 291 290 288 279 285 286 285 290 294 297 301 303 305 306 306 305 307 309 308 308 310 318 324 326 327 328 328 328 326 325 325 327 327 326 325 326 328 329 328 326 325 324 322 321 320 321 320
293 287 280 279 279 279 287 285 288 290 291 293 299 302 303 305 304 304 303 304 305 306 307 309 312 315 321 326 326 327 326 326 326 326 326 324 325 324 325 326 326 324 324 323 321 319 318 316 314
289 288 281 276 276 280 286 282 286 291 292 293 295 300 300 299 299 298 299 299 301 302 304 306 308 307 308 311 317 321 323 326 326 325 325 325 325 325 325 324 322 319 318 317 316 314 313 313 314
288 285 288 282 283 281 282 286 290 292 291 293 293 294 294 295 296 297 298 299 300 301 302 305 306 307 308 308 308 309 314 320 321 322 324 323 323 320 322 321 319 315 314 311 310 309 309 309 309
289 291 283 283 275 276 281 281 282 286 288 291 292 292 294 295 296 297 297 297 298 299 301 302 304 305 306 306 307 307 308 310 316 318 318 318 318 318 316 312 311 309 308 308 307 307 307 307 307
287 285 284 284 281 279 278 279 287 287 290 289 290 292 292 293 293 294 295 296 296 297 298 300 301 302 304 304 305 306 307 307 310 313 312 313 313 313 311 310 308 307 306 306 306 305 304 304 305
289 286 283 280 279 277 278 280 287 289 291 291 291 291 292 293 293 294 295 296 296 296 297 297 298 300 301 302 304 305 305 307 308 309 309 309 309 310 310 308 306 304 303 303 303 302 302 303 303

GFSSGP_sfc_thetae_084.txt.gz
Theta_e
332 332 333 325 305 304 299 301 308 307 310 319 319 318 318 323 316 314 343 344 346 347 350 353 354 354 353 352 349 351 351 352 354 354 355 355 355 353 350 349 349 349 348 348 349 350 349 346 346
330 329 327 318 301 296 297 305 304 308 313 319 322 322 319 318 331 335 340 344 346 347 349 350 353 353 353 351 350 348 348 351 354 353 355 354 354 353 349 348 348 350 349 348 346 346 346 346 346
328 327 315 307 301 296 297 305 307 310 314 317 318 323 320 321 333 336 344 347 347 347 349 350 352 353 353 350 351 347 346 349 352 353 353 353 354 349 348 347 349 349 349 347 345 345 346 346 346
322 321 315 302 297 301 302 306 308 308 310 313 320 316 324 334 336 341 345 347 346 347 349 350 352 352 352 351 351 348 345 347 350 351 352 352 353 349 346 348 348 348 348 344 346 348 348 349 345
322 315 300 298 298 302 305 308 309 306 308 309 317 316 320 333 341 344 343 346 345 346 348 350 351 352 351 352 350 348 345 345 347 349 351 351 351 347 345 345 346 346 346 345 346 348 346 345 344
308 309 295 293 296 302 306 309 309 308 309 310 310 314 320 335 339 344 347 345 346 345 347 348 348 351 351 352 349 348 346 345 347 348 350 350 350 346 343 343 345 346 344 344 344 343 345 345 343
305 301 294 295 295 298 303 310 308 308 308 309 314 310 319 334 341 344 343 335 340 346 346 346 348 347 348 349 348 346 346 346 347 347 348 348 346 344 341 342 344 345 344 343 342 341 340 340 340
307 303 295 295 293 295 304 307 310 309 308 315 315 310 313 327 337 337 334 333 332 339 346 346 346 346 345 347 346 345 344 344 345 345 344 342 341 342 343 340 341 344 344 342 341 340 339 338 335
309 297 292 294 295 297 303 303 309 312 310 312 314 315 319 330 336 332 332 332 331 330 331 344 345 345 343 345 345 344 343 342 341 340 338 337 341 340 339 339 339 342 342 341 341 340 337 335 333
301 295 294 299 300 299 303 303 305 306 307 309 311 319 327 335 334 332 329 326 325 323 325 334 343 344 341 342 346 346 342 339 337 339 339 339 337 338 337 337 339 342 341 341 338 337 333 329 330
299 294 298 299 301 303 302 304 307 306 304 308 309 313 322 330 331 330 327 322 323 323 329 330 337 342 339 336 345 346 345 341 338 336 337 338 338 339 338 339 339 338 335 335 335 334 331 329 329
293 296 297 299 302 301 300 305 304 306 307 312 312 316 322 325 327 327 325 323 324 325 328 333 336 339 339 338 338 345 345 343 341 337 335 335 336 337 336 336 336 335 334 333 333 331 330 329 329
293 294 295 297 299 300 301 300 302 304 310 314 314 316 316 320 324 327 327 326 327 326 327 331 332 333 339 338 335 340 345 344 343 340 336 334 334 335 334 333 334 333 333 331 330 330 328 328 330
294 295 295 297 296 297 297 298 301 304 309 311 313 315 315 316 322 325 327 325 326 326 328 330 329 331 334 337 336 335 341 345 344 341 339 336 336 334 332 330 332 332 333 331 329 328 329 330 333
294 290 292 294 295 295 297 293 296 303 308 309 311 313 315 315 322 322 323 323 325 325 327 328 329 330 329 338 338 335 336 341 343 343 342 339 339 336 335 334 336 336 335 332 330 328 333 334 333
289 289 284 291 294 295 295 287 296 302 305 307 309 311 314 317 322 322 323 324 325 325 327 329 330 329 329 338 338 337 338 338 338 342 343 342 340 338 337 337 337 337 335 333 332 332 332 331 331
286 281 284 287 294 293 294 289 296 303 304 306 308 310 313 316 322 322 324 324 327 327 328 328 329 328 332 338 337 336 338 340 340 340 340 341 341 339 337 336 336 337 334 333 332 332 331 329 329
281 281 284 285 290 292 292 291 297 304 306 307 308 310 311 313 318 324 324 327 328 327 328 328 327 328 333 336 338 337 335 335 337 337 339 340 340 341 338 334 335 336 333 331 332 330 330 329 330
286 284 283 288 292 290 291 292 295 301 305 306 307 308 308 310 312 320 320 323 327 327 327 328 327 329 335 336 335 334 335 336 336 337 336 337 336 335 336 334 335 335 333 332 332 330 328 329 333
286 284 284 289 292 291 291 291 296 301 301 303 306 308 308 308 309 316 317 320 319 324 328 328 330 331 330 331 333 334 334 336 336 339 339 339 338 337 336 335 334 334 332 335 332 330 330 331 334
285 283 284 285 290 293 292 289 293 300 301 303 306 308 309 308 307 309 314 316 320 323 325 327 329 329 330 331 332 331 331 333 332 334 335 337 337 336 337 337 335 334 333 335 334 334 333 331 332
284 290 288 287 287 283 294 283 292 297 298 300 303 305 304 309 308 309 311 311 318 321 325 325 328 328 329 330 329 328 327 324 328 328 333 334 335 336 335 334 333 331 331 329 330 331 331 332 328
289 293 289 286 289 289 289 287 291 295 295 298 301 304 306 309 309 307 309 311 313 320 326 326 327 329 329 330 330 328 326 327 327 326 329 331 330 333 331 331 330 330 330 329 327 327 325 325 324
296 294 292 292 290 283 287 287 287 292 293 296 301 305 308 308 308 306 307 309 309 310 313 316 322 327 330 330 329 328 326 326 322 323 324 326 328 329 329 330 330 329 327 325 324 323 321 323 322
294 291 283 282 283 281 288 288 289 293 295 296 297 305 307 310 302 303 303 305 306 308 310 312 320 320 327 329 329 330 329 329 325 325 326 327 326 327 327 329 328 328 327 327 325 323 321 322 321
290 290 285 278 280 281 288 284 289 295 296 297 298 306 307 306 301 298 300 303 305 306 308 310 311 310 311 315 322 326 330 330 328 329 329 329 328 328 329 328 328 329 329 326 324 323 322 321 320
290 287 291 286 286 284 286 289 293 296 296 297 300 301 298 300 300 299 300 301 304 306 306 309 310 310 311 311 312 312 318 326 328 329 330 330 330 329 328 327 329 327 324 322 321 318 314 314 314
292 294 286 289 280 279 283 285 287 291 292 296 296 297 297 297 297 298 298 300 302 303 306 307 308 309 310 311 311 310 311 313 318 323 324 326 328 328 327 325 326 322 320 319 317 313 311 311 312
291 289 288 288 286 283 281 284 291 292 294 294 296 297 295 295 295 298 298 300 302 303 303 304 305 307 308 309 310 310 311 311 313 316 319 320 321 322 322 321 317 316 315 314 313 311 309 309 310
293 290 289 286 283 284 286 284 293 295 295 295 295 296 296 296 297 298 298 299 300 301 302 303 303 303 304 307 309 309 310 311 311 312 313 315 318 318 317 316 314 312 311 310 308 307 307 307 306

GFSSGP_sfc_thetae_087.txt.gz
Theta_e
332 333 331 325 306 304 299 301 308 307 308 315 319 317 317 319 317 314 343 344 344 346 350 352 355 353 353 351 350 351 352 353 355 355 355 355 355 354 352 350 348 347 350 352 350 349 347 346 346
329 327 325 316 301 296 297 305 304 308 312 315 316 318 320 318 330 336 339 344 345 346 349 350 354 354 353 351 351 351 350 351 354 354 355 355 355 352 351 349 348 350 351 351 350 348 345 345 345
327 325 314 305 302 296 298 305 306 310 313 315 316 323 321 320 331 337 344 345 346 346 349 350 353 353 352 351 350 349 350 352 353 353 353 354 354 351 349 349 351 350 350 348 347 346 346 346 343
319 318 314 301 296 302 303 306 309 309 312 315 317 315 324 335 334 341 345 345 345 344 346 351 352 353 352 352 350 347 348 351 352 352 352 352 353 350 349 350 349 348 346 345 345 346 347 346 342
318 312 299 297 298 303 306 307 308 308 309 311 312 312 318 334 342 344 345 343 342 344 346 350 352 352 352 352 351 349 347 349 350 351 351 351 352 348 347 349 348 347 346 346 348 348 347 344 341
307 307 296 293 297 302 305 308 309 308 309 310 310 311 317 335 340 343 346 343 343 343 345 348 348 350 350 352 350 348 347 347 349 350 351 350 350 346 346 347 347 346 345 346 348 346 345 344 340
304 301 295 295 296 298 303 308 307 307 308 308 313 308 314 332 338 344 346 346 341 338 343 345 347 347 348 348 347 347 347 347 347 348 349 348 346 345 343 346 347 346 343 344 344 344 345 344 339
306 302 296 297 294 295 303 305 308 307 307 314 314 307 309 321 340 344 343 341 339 333 330 329 345 345 340 346 345 345 345 346 346 346 345 343 342 342 344 342 345 346 344 343 342 341 340 339 336
309 297 292 294 295 297 303 301 307 310 309 311 312 313 316 333 338 337 338 337 336 334 332 330 329 343 340 344 344 343 343 343 342 342 339 338 340 338 338 339 342 344 344 343 341 340 339 337 335
301 295 294 299 299 298 301 302 303 303 305 307 309 314 318 330 331 330 330 331 329 330 331 330 332 329 339 342 344 341 338 338 336 340 339 339 340 338 336 336 339 342 342 342 340 339 336 332 330
299 294 298 299 301 303 301 302 306 303 302 306 307 310 315 324 331 328 329 330 330 332 329 330 329 330 331 342 344 343 338 335 335 333 338 339 338 336 338 338 337 338 336 335 336 334 330 328 329
292 296 297 299 301 300 300 303 301 304 305 310 313 317 316 316 326 328 328 328 329 329 329 328 329 330 333 337 344 343 341 335 333 334 335 338 336 337 335 335 336 335 334 332 332 331 329 328 328
293 295 296 297 297 298 300 298 299 301 307 311 311 315 315 317 321 325 329 329 328 325 328 327 330 330 332 336 336 341 342 340 335 333 334 335 335 336 335 334 334 334 332 332 331 330 328 327 327
294 294 295 297 297 297 295 296 298 300 305 306 309 311 314 316 318 323 325 325 325 325 326 329 331 330 329 333 336 336 341 343 340 336 333 332 334 335 334 333 333 332 331 331 329 328 327 326 327
294 290 292 293 294 294 297 292 293 299 302 303 306 310 314 317 317 317 324 326 324 325 327 328 330 330 329 329 336 334 338 341 343 339 335 332 332 331 330 330 330 331 331 330 329 327 327 328 329
290 290 284 291 293 294 294 287 295 299 298 300 304 308 312 315 317 317 325 327 328 326 327 329 329 329 330 329 333 337 334 337 339 342 339 336 336 335 333 332 333 335 334 333 329 327 326 330 330
288 283 284 287 293 292 292 288 295 298 298 298 302 306 310 314 318 321 326 326 325 326 327 328 329 329 328 329 333 338 335 334 336 341 342 340 338 338 336 336 337 336 334 332 331 330 329 328 329
282 283 285 285 291 292 290 290 294 297 297 300 302 305 309 312 315 322 325 326 326 327 327 328 329 329 327 328 334 336 336 336 338 338 338 340 340 340 339 336 334 335 334 332 331 329 331 329 328
286 285 284 288 292 290 290 289 292 296 302 302 304 307 308 311 316 322 325 326 327 327 327 328 329 327 327 327 331 332 331 333 335 338 339 339 340 339 340 337 333 334 334 333 332 330 329 328 330
286 284 285 289 292 290 290 289 293 296 301 304 305 306 308 310 313 318 319 320 319 320 323 326 326 327 328 329 330 332 335 337 337 338 338 337 337 336 336 336 334 334 334 334 333 332 329 329 331
286 284 284 284 289 292 290 287 290 295 301 304 306 308 310 310 309 314 316 316 317 317 323 326 327 327 328 329 329 329 330 333 332 335 336 337 338 337 337 337 336 335 334 333 335 332 330 328 333
283 289 288 287 285 281 290 280 288 294 298 302 304 305 308 309 309 312 315 315 316 318 321 325 324 327 328 328 327 326 325 325 328 331 333 336 336 335 336 335 336 335 333 330 329 330 332 331 328
288 292 289 288 287 286 286 285 288 295 294 298 302 305 307 308 310 308 312 316 317 320 320 322 323 325 328 327 327 326 324 326 327 326 328 329 332 331 333 334 333 331 331 329 329 328 327 326 323
296 288 288 289 285 281 287 287 287 292 294 298 303 304 307 309 309 306 309 313 313 313 314 315 319 322 325 326 327 325 325 324 323 325 325 325 327 329 329 330 330 330 329 328 326 324 323 322 323
295 290 283 281 282 281 290 287 288 294 296 297 298 304 307 307 306 304 304 306 307 309 310 313 316 317 321 325 327 325 326 325 323 324 323 324 324 326 326 329 329 329 329 327 325 323 323 323 320
292 290 284 278 280 281 289 285 287 296 298 299 301 307 305 301 301 300 302 304 305 307 310 311 313 311 313 319 323 327 327 327 325 326 326 326 326 326 328 329 328 329 328 326 325 324 323 322 322
291 288 291 286 287 285 286 289 295 296 299 301 302 302 299 300 300 299 299 301 304 305 307 309 310 310 311 312 313 316 324 328 328 327 328 328 329 330 329 329 328 329 327 326 325 322 321 322 321
292 294 285 289 281 279 284 285 285 291 293 297 294 295 297 298 298 298 300 300 301 304 305 307 308 308 309 311 311 311 312 313 319 326 328 329 329 330 328 327 327 327 326 323 323 319 318 317 316
291 290 290 289 287 282 281 283 292 293 295 293 293 293 294 295 296 298 299 301 302 303 304 304 304 304 306 308 310 311 311 312 313 316 319 322 325 326 325 325 325 322 320 321 320 317 315 314 312
294 291 291 286 285 288 287 284 296 296 295 295 294 295 296 296 297 297 298 299 299 299 302 303 304 304 304 305 307 309 311 312 312 312 314 316 318 320 322 322 320 318 317 318 317 314 312 311 309

GFSSGP_sfc_thetae_090.txt.gz
Theta_e
326 329 329 322 303 301 296 299 305 303 304 309 310 310 310 315 318 310 337 339 345 346 348 352 355 354 353 353 351 352 352 356 355 355 355 355 355 354 353 350 350 352 353 352 350 349 345 348 347
326 325 321 312 297 292 293 300 301 304 307 309 310 311 312 315 332 332 335 341 343 347 348 349 354 354 353 352 351 351 350 352 355 355 356 357 355 354 352 350 350 353 354 352 348 346 345 345 345
326 325 309 303 298 293 294 301 302 306 309 309 309 313 315 320 333 335 339 342 346 346 347 349 353 354 353 351 351 351 350 351 354 353 354 354 354 354 351 350 351 352 352 351 347 344 344 344 342
315 314 311 298 294 298 300 303 306 305 307 308 308 308 322 333 334 339 341 342 343 345 346 351 353 352 353 352 351 350 350 350 352 353 353 354 353 352 352 351 349 348 348 348 347 346 346 343 340
314 310 297 295 295 300 303 306 306 304 305 307 308 306 313 334 340 341 341 341 341 343 347 349 352 351 353 352 350 350 349 352 352 352 352 352 352 350 350 349 346 344 347 346 346 347 345 341 338
304 305 294 290 294 299 302 305 304 303 305 306 306 307 311 336 337 340 342 339 342 342 346 346 350 351 351 351 350 348 349 350 352 351 351 351 351 350 349 347 342 342 346 347 349 347 344 341 338
303 298 292 293 294 296 299 305 302 302 303 304 307 303 311 329 336 340 341 342 338 339 338 335 343 347 347 349 348 347 347 348 350 350 349 348 348 348 345 343 346 347 346 348 348 346 344 341 338
303 299 293 294 292 293 300 301 303 303 302 309 309 301 303 325 337 340 342 336 335 333 335 335 335 341 341 345 345 345 345 346 346 347 345 343 342 341 341 344 344 344 346 345 345 345 344 341 338
306 293 290 292 293 296 301 298 302 304 303 305 306 306 309 333 337 335 336 336 333 334 333 334 333 332 329 340 342 343 343 343 343 342 340 338 337 336 336 339 341 343 344 344 343 341 340 338 334
298 292 292 297 297 296 299 298 300 300 299 301 304 309 312 331 329 327 328 328 331 331 331 332 333 333 332 333 337 336 339 337 339 340 339 338 335 335 336 337 340 342 342 342 342 340 339 333 325
296 292 297 297 300 300 299 299 302 300 298 302 302 305 308 311 325 324 326 327 327 329 329 331 333 335 332 331 330 335 334 333 333 337 338 338 336 333 334 333 336 337 334 334 336 333 328 324 323
290 295 296 297 298 297 296 300 298 299 299 305 307 310 313 312 319 322 322 325 329 328 328 328 330 328 330 330 332 335 332 329 328 333 336 336 333 331 333 332 331 332 331 328 329 327 325 323 322
291 293 295 296 296 295 296 295 295 297 301 303 305 309 308 311 313 319 325 326 326 326 328 327 328 329 332 333 333 337 335 329 329 329 331 334 331 329 330 330 331 331 329 328 327 326 323 321 320
292 292 292 294 294 296 294 293 294 296 300 301 303 304 306 309 312 315 325 324 323 324 324 326 329 329 332 331 331 331 335 335 328 328 328 332 331 330 329 329 328 327 327 325 325 323 321 320 320
293 288 290 291 293 292 294 290 291 296 298 297 299 303 305 307 313 314 321 324 323 323 324 326 329 329 328 329 331 331 333 335 333 329 328 329 330 329 328 326 326 325 324 324 322 322 321 321 322
288 288 282 289 291 293 291 282 292 297 296 295 296 299 303 308 313 315 317 323 324 324 325 327 330 328 328 328 331 332 333 334 334 333 329 327 328 327 326 324 324 325 326 325 323 322 319 321 324
285 279 282 285 292 291 289 285 291 295 295 294 295 296 300 305 312 315 318 323 324 325 325 325 328 328 329 329 329 331 333 331 335 335 335 329 331 330 328 327 328 329 328 326 325 322 321 321 323
279 281 284 284 289 291 289 287 291 294 294 293 294 295 299 303 311 318 320 324 324 325 325 326 328 328 328 328 329 331 332 330 333 334 334 336 334 334 332 331 330 330 329 326 326 324 325 324 323
286 283 281 285 290 288 287 288 291 294 294 293 294 295 298 302 314 318 321 322 323 324 325 326 326 327 327 325 325 326 327 330 332 334 335 336 336 338 337 334 329 327 330 328 326 325 324 324 323
286 283 282 286 290 288 288 287 291 293 293 295 300 300 304 307 310 315 318 316 316 319 323 325 326 327 326 325 326 328 329 331 330 333 335 336 334 335 335 333 331 328 330 329 329 326 324 324 324
285 283 283 283 288 289 287 285 288 292 293 300 302 304 305 305 308 314 316 314 315 316 318 323 326 326 326 326 328 327 328 329 330 331 331 331 334 334 333 332 332 330 330 329 329 329 327 324 324
282 290 288 286 284 278 288 275 284 288 290 297 299 301 304 306 305 310 315 313 314 316 318 322 323 326 327 327 326 324 323 322 325 327 328 331 333 332 332 332 332 331 329 327 326 327 326 326 324
288 291 290 288 285 283 284 280 281 289 289 293 298 301 304 307 305 307 313 316 316 317 316 319 323 323 325 326 325 324 322 324 325 325 324 325 328 329 330 330 330 329 329 327 327 327 327 326 323
295 289 289 288 285 278 284 282 281 285 290 294 300 302 304 307 305 304 308 313 312 312 312 314 315 319 322 324 325 325 323 322 323 323 322 324 325 326 327 329 329 330 329 327 327 326 325 324 323
293 285 280 276 275 279 286 281 286 291 294 297 299 303 305 306 302 302 303 304 307 307 309 311 313 314 319 320 321 323 323 323 320 318 322 323 323 323 325 326 328 328 328 326 326 324 322 323 322
290 289 282 275 277 280 286 282 286 295 294 297 304 302 300 299 300 301 301 303 304 306 308 310 311 310 311 314 316 322 324 323 323 321 321 323 323 323 323 326 326 327 326 327 325 323 322 322 320
289 286 290 285 285 283 285 286 292 296 295 299 299 299 298 298 297 298 299 300 303 304 305 307 308 308 309 309 311 313 323 323 324 324 324 324 324 325 324 325 325 324 324 325 325 323 322 321 320
291 293 283 285 278 278 282 282 285 290 290 292 292 294 296 297 298 299 300 300 301 302 302 303 303 304 306 307 308 309 310 313 315 320 324 325 325 325 326 324 326 325 325 326 324 323 322 320 318
290 288 289 288 285 281 278 281 292 291 291 290 292 294 294 295 297 298 299 300 300 300 301 302 302 302 302 303 306 307 308 309 309 310 313 317 320 321 323 324 323 323 325 325 322 320 317 317 314
292 289 288 279 280 282 280 281 294 293 293 293 292 293 295 296 296 296 297 297 297 296 296 297 298 299 300 302 302 304 306 307 307 308 309 310 311 315 317 320 322 321 321 321 320 317 316 315 312

GFSSGP_sfc_thetae_093.txt.gz
Theta_e
323 321 321 315 300 296 292 297 300 301 301 304 305 303 306 314 314 307 332 342 346 346 350 352 355 354 354 352 351 353 356 355 355 357 355 356 355 354 352 351 351 353 353 353 352 351 348 347 347
322 324 315 307 293 288 290 296 296 302 304 306 305 307 306 320 329 331 331 345 346 348 350 350 355 355 353 352 350 351 352 355 355 354 357 357 355 354 353 350 352 354 353 351 350 348 346 345 345
323 323 304 299 293 289 290 297 298 302 304 304 304 309 313 323 331 332 336 344 345 346 348 350 354 354 353 351 350 349 349 353 355 355 355 355 355 353 351 352 354 352 351 349 347 346 345 344 344
311 309 305 295 291 294 298 301 304 303 306 306 305 303 323 334 333 336 340 345 344 344 346 351 353 354 353 353 351 350 349 350 353 354 353 355 354 354 353 352 352 350 348 347 345 344 343 342 341
309 304 293 291 293 296 299 302 303 301 302 303 305 302 311 333 338 339 338 343 342 343 347 349 354 354 353 352 351 351 350 351 352 353 352 354 353 352 352 350 350 348 349 348 346 345 343 339 339
300 300 289 288 291 296 298 301 301 299 300 301 303 302 312 332 336 338 339 339 342 344 347 348 351 351 352 351 350 350 350 353 352 352 352 352 352 351 350 349 346 342 344 346 346 345 341 338 338
298 294 288 289 290 292 296 300 296 298 298 300 302 299 315 328 334 336 337 337 338 342 342 344 347 348 349 349 348 347 349 349 351 350 349 349 349 349 348 346 342 345 347 349 348 345 341 339 336
299 298 290 289 290 291 298 299 300 297 297 304 304 298 299 322 335 335 334 332 333 335 335 335 338 338 338 344 346 344 344 345 347 347 346 343 344 344 341 343 342 341 349 348 347 346 342 340 338
302 290 287 290 291 293 299 296 299 301 297 299 302 303 316 330 335 332 330 332 333 332 332 335 333 332 333 337 341 342 342 342 342 343 340 339 338 338 337 339 340 344 345 345 346 345 344 339 336
294 288 290 296 295 294 297 296 297 298 298 299 302 306 314 330 328 327 326 326 331 329 331 331 331 331 332 334 331 335 338 338 338 339 338 338 336 336 335 336 337 342 343 342 343 341 339 333 324
292 289 295 296 298 299 296 295 298 296 295 297 298 301 304 312 321 323 324 325 328 331 330 331 331 331 330 331 330 331 334 332 336 336 338 338 335 334 334 338 337 337 335 335 337 335 330 324 321
288 292 293 295 296 295 293 295 293 296 296 300 300 302 303 305 312 320 321 323 323 326 329 329 330 328 328 331 331 330 330 332 329 336 339 336 334 332 333 334 336 335 331 329 329 327 325 322 321
287 290 294 295 295 294 295 293 292 293 296 299 301 302 301 303 306 317 322 322 322 325 327 327 326 325 328 329 329 328 331 334 331 334 337 337 333 332 333 331 331 330 330 327 326 325 323 321 321
289 290 291 293 292 293 291 292 293 293 296 297 299 298 299 301 303 311 319 319 322 326 324 326 326 327 328 328 328 328 330 334 330 332 334 335 333 332 332 330 330 330 329 327 326 324 322 320 319
291 286 289 290 291 290 293 288 289 293 296 296 297 298 299 300 304 305 318 320 322 325 326 326 325 327 329 329 328 328 329 335 332 328 330 331 331 331 329 329 329 329 327 324 323 322 320 318 318
287 285 280 288 291 292 290 281 289 293 293 294 295 296 298 299 301 305 314 320 319 323 325 328 329 326 326 327 328 327 329 333 333 333 327 329 332 329 326 325 326 326 324 322 320 319 317 317 319
282 275 279 284 291 291 288 284 290 293 293 292 294 294 296 297 300 305 314 317 322 321 324 326 326 325 325 326 327 330 329 332 333 333 332 326 329 329 326 323 323 323 323 323 322 319 318 317 321
275 276 281 281 287 288 286 286 291 292 291 291 292 292 293 295 298 306 316 319 322 321 322 322 326 326 326 328 328 329 329 331 333 332 332 330 328 328 326 325 324 326 325 324 324 321 321 320 321
284 281 280 284 289 287 285 285 289 293 293 292 290 291 293 294 299 315 317 320 320 319 321 322 323 325 326 325 324 325 325 328 329 332 333 332 332 330 329 329 328 328 328 326 325 323 322 322 323
284 281 281 285 289 288 286 285 289 292 292 293 292 292 294 295 308 313 313 313 317 319 320 322 323 324 326 326 325 326 326 327 329 331 332 333 332 333 334 331 329 326 328 326 325 323 322 322 322
283 280 282 283 287 289 286 283 285 290 293 294 295 300 302 304 307 310 313 312 311 314 317 321 324 324 326 326 326 326 326 325 325 327 330 332 334 333 333 332 331 329 328 327 326 328 324 321 322
282 289 288 288 286 275 286 273 282 286 289 291 295 301 300 303 305 308 310 314 313 312 314 319 322 325 326 326 324 323 321 320 324 326 327 328 331 331 330 330 329 329 329 327 327 327 326 325 322
286 292 290 289 285 283 281 279 280 284 285 287 293 299 302 302 302 304 308 315 317 315 313 319 321 322 325 326 325 323 322 323 324 325 325 325 326 328 331 330 329 327 328 327 327 325 325 324 323
292 288 287 287 285 274 282 277 278 283 287 289 294 299 302 302 301 302 307 309 310 312 310 313 315 317 321 322 323 324 323 322 322 322 322 323 324 325 325 327 327 328 327 326 325 325 325 326 324
292 286 278 276 275 275 285 280 282 290 294 295 297 302 301 299 300 300 303 305 307 308 307 311 312 313 317 320 321 322 322 323 322 320 321 322 322 322 324 324 324 327 327 325 325 324 324 324 324
289 287 282 275 277 280 285 281 285 294 299 301 301 300 299 299 300 300 302 303 304 305 307 309 309 310 311 312 313 316 323 323 321 319 320 322 323 324 324 325 324 325 327 326 324 324 323 323 322
289 286 290 284 285 279 283 285 290 292 292 297 297 297 296 297 298 299 300 301 302 302 302 304 306 306 309 310 310 311 314 322 321 322 320 320 323 323 323 323 324 324 326 324 324 322 322 322 322
291 293 281 282 277 278 281 282 284 286 286 291 292 294 295 297 298 299 299 299 301 302 302 302 302 302 303 306 308 308 310 314 315 317 320 322 323 324 324 323 323 323 324 324 324 323 322 321 321
288 286 287 285 282 278 276 280 289 287 289 290 292 293 294 294 297 297 297 298 298 298 298 298 298 298 300 302 303 305 306 307 309 309 311 315 318 319 320 322 323 323 323 323 323 322 322 320 320
289 288 285 278 279 279 280 281 292 292 293 293 293 294 295 295 295 296 297 297 296 295 295 296 296 295 296 298 301 301 302 302 304 305 306 307 307 310 313 315 318 321 322 323 323 322 321 319 317

GFSSGP_sfc_thetae_096.txt.gz
Theta_e
322 322 318 313 298 295 290 296 299 299 299 302 303 301 301 309 309 304 330 341 344 346 350 350 354 354 354 354 354 357 357 356 357 357 355 354 355 354 351 349 352 353 353 353 352 351 351 349 348
320 323 313 304 292 288 289 296 298 300 302 303 304 304 303 313 328 328 333 343 345 347 349 349 354 354 353 352 351 355 356 356 356 356 357 356 355 353 351 350 352 353 352 352 351 348 346 347 346
319 322 304 298 291 287 289 295 297 300 304 303 301 307 312 322 329 330 336 344 346 346 348 350 354 354 353 351 350 350 354 355 355 355 355 355 354 353 351 352 354 352 351 350 349 344 346 345 345
309 307 303 293 289 293 295 298 300 301 303 302 302 300 324 332 333 335 342 345 345 345 347 352 354 354 353 352 350 348 350 353 355 355 354 354 353 353 353 353 352 350 349 348 346 344 344 344 343
307 302 292 289 291 294 297 300 301 299 299 301 300 299 314 331 336 339 341 344 342 343 346 350 354 354 353 352 352 351 349 351 352 354 352 352 353 352 352 352 351 348 348 346 344 344 342 341 340
299 299 288 286 289 294 295 297 297 297 298 299 299 298 309 329 333 336 341 340 342 343 347 349 352 352 352 352 351 351 350 351 352 352 353 353 353 351 351 350 350 349 348 345 345 343 340 339 339
296 293 287 287 289 290 294 297 294 295 295 296 301 297 304 325 330 334 336 337 340 344 344 346 348 349 349 350 349 349 349 351 352 351 351 350 350 348 350 349 348 346 343 347 346 342 338 338 338
298 294 287 287 288 290 296 297 298 295 295 301 301 296 299 311 332 332 332 333 334 334 337 340 342 344 345 343 345 344 344 346 348 347 346 344 344 344 347 344 343 344 346 347 347 343 339 338 337
300 289 285 288 290 292 296 294 297 300 297 299 300 299 303 313 331 329 328 328 333 333 334 333 333 334 338 341 341 342 342 342 342 342 340 339 341 341 339 337 339 341 347 348 346 344 342 339 336
293 287 289 294 293 292 296 294 294 294 294 296 298 302 304 308 312 321 323 324 326 331 333 333 330 330 332 337 333 335 338 337 337 338 338 336 337 337 336 335 337 342 344 345 346 345 342 334 324
291 288 293 295 297 297 293 293 294 292 291 295 295 298 301 303 306 312 321 322 325 329 332 332 332 332 330 330 328 329 330 333 336 336 334 334 335 334 335 335 335 338 335 336 337 336 329 322 319
286 291 292 293 295 294 291 294 291 292 292 297 297 299 300 300 302 308 315 321 322 326 329 331 331 331 331 331 328 327 327 330 333 336 337 333 334 333 333 335 334 335 335 331 330 328 325 322 320
286 288 291 292 292 292 293 291 291 292 295 296 297 299 298 298 300 303 313 321 322 322 325 329 329 330 328 328 327 326 328 330 330 334 335 335 335 332 333 332 334 333 334 331 327 326 323 320 319
288 290 290 292 291 292 290 290 291 291 295 296 297 297 296 297 298 303 309 315 319 322 324 324 325 326 327 327 326 325 327 330 333 332 334 335 335 333 332 331 331 330 333 330 327 324 322 319 319
290 286 288 289 290 289 292 286 287 292 293 293 294 295 297 297 299 299 304 313 317 321 324 324 325 327 327 328 327 325 326 329 330 331 334 333 333 333 333 331 331 331 331 330 324 323 322 320 319
285 284 279 286 290 291 289 280 288 292 291 290 292 293 295 297 298 298 300 309 317 320 322 325 327 327 327 326 325 326 326 328 331 331 329 330 331 331 332 331 330 331 330 327 323 322 318 317 316
280 274 278 282 290 290 287 283 289 292 292 290 291 292 294 296 298 300 300 307 317 320 322 324 326 326 327 327 326 325 326 327 330 331 331 327 330 331 331 330 329 328 326 324 322 318 318 315 317
274 275 279 280 286 288 286 285 289 291 291 288 289 290 291 293 296 299 300 309 317 319 321 323 325 325 324 325 325 326 326 327 330 330 331 329 329 331 329 328 327 325 324 323 321 318 318 316 317
282 279 278 283 288 286 285 285 288 291 291 291 289 290 290 292 296 298 305 316 318 318 320 322 323 324 323 324 323 324 325 326 327 330 331 332 327 329 328 327 324 325 324 323 323 320 318 319 319
283 281 281 284 288 287 286 285 289 291 291 292 292 291 290 292 293 307 312 313 316 317 320 320 322 323 324 324 322 323 326 326 328 329 330 331 330 328 328 327 324 325 324 324 323 323 320 320 321
279 277 280 281 287 289 287 283 284 289 291 293 294 294 293 294 296 307 310 310 312 314 316 319 320 321 322 323 322 322 324 325 324 326 327 329 331 331 329 328 328 326 327 325 324 323 322 320 321
280 287 287 286 285 279 285 274 281 284 287 290 291 292 294 299 301 305 308 309 310 310 314 320 320 322 322 322 322 321 320 320 322 323 326 328 330 330 330 330 330 328 328 327 326 326 325 323 320
283 291 288 289 285 282 282 278 279 284 283 287 288 291 297 300 302 307 310 310 315 315 314 316 317 320 323 325 324 323 321 322 324 324 325 326 326 328 329 330 328 326 325 325 325 324 324 324 323
291 288 288 287 285 272 280 276 277 283 289 291 293 299 301 302 302 303 307 309 309 312 312 314 316 316 320 322 322 323 321 321 322 323 322 323 324 325 327 328 328 327 326 326 325 324 323 324 322
289 285 277 271 276 274 285 276 277 290 295 295 295 299 300 300 301 302 303 304 306 307 310 312 311 311 314 315 317 320 322 322 322 322 322 321 322 322 323 325 325 325 326 325 326 324 323 324 324
288 287 281 274 277 278 285 279 285 293 296 298 299 298 299 299 300 300 301 301 302 304 307 309 308 308 311 311 312 313 315 322 321 321 322 322 322 322 324 324 324 324 325 325 325 324 324 324 324
289 286 291 284 285 276 281 286 290 292 291 295 296 296 296 297 298 299 300 301 301 302 302 302 304 305 306 309 310 310 312 317 320 320 320 320 322 323 323 323 323 324 324 325 325 324 322 322 322
292 293 283 283 274 277 281 282 282 285 286 292 292 294 296 297 297 298 298 298 298 299 299 299 300 300 303 304 307 308 308 310 312 315 316 319 321 322 322 322 322 322 323 323 324 322 322 321 321
287 286 286 286 283 278 276 281 288 286 287 289 292 293 294 295 296 297 296 297 297 298 298 297 298 297 298 301 302 302 303 305 307 308 308 309 312 315 317 319 321 322 322 322 322 322 322 320 320
289 286 284 278 279 279 278 282 292 291 291 292 293 294 294 295 295 296 296 296 296 296 296 296 296 296 296 297 299 299 300 300 301 301 303 305 305 306 307 311 314 318 321 322 321 321 321 320 319

GFSSGP_sfc_thetae_099.txt.gz
Theta_e
321 321 317 310 296 294 288 293 297 298 297 299 301 300 300 302 301 301 328 340 344 346 349 351 355 356 357 358 359 358 358 357 357 356 353 354 354 351 350 352 352 352 352 352 352 352 351 347 346
319 321 311 301 290 285 285 294 297 299 301 302 302 302 300 303 326 327 332 341 345 347 349 348 354 355 354 355 356 357 356 356 356 356 355 355 354 352 350 351 353 353 352 352 352 351 348 346 346
318 319 303 296 289 285 286 294 295 299 303 302 300 301 304 317 328 329 333 343 345 345 347 348 354 354 353 352 354 355 355 355 356 356 356 355 354 353 350 351 354 352 352 351 350 346 346 345 344
308 307 302 292 288 292 292 295 299 299 301 301 299 298 306 330 330 333 342 344 343 343 345 351 353 354 353 352 351 353 353 354 354 355 353 353 354 353 352 354 351 351 350 349 348 347 345 344 343
306 301 291 287 288 293 296 299 298 296 297 298 298 296 299 327 335 338 341 344 342 343 346 350 354 354 353 352 351 350 353 353 353 353 352 352 353 353 352 352 350 349 349 348 345 344 345 343 342
298 298 286 284 287 293 295 296 295 294 295 296 296 296 299 327 327 335 338 338 343 343 346 349 351 352 352 352 351 350 350 351 353 354 353 353 352 352 350 350 349 349 346 345 344 344 342 340 340
296 291 286 285 288 290 293 295 291 292 294 293 297 293 300 306 311 332 335 337 336 340 343 345 348 348 349 350 350 350 351 350 352 352 352 351 349 349 350 349 349 348 346 345 344 342 339 339 340
297 293 287 287 287 289 295 295 295 295 294 300 299 294 296 301 325 331 334 335 337 337 337 338 341 343 343 343 347 346 346 348 350 349 347 345 344 345 346 346 347 347 347 347 344 341 338 339 340
299 288 283 287 289 290 294 293 296 297 294 296 298 297 301 303 313 320 328 330 332 334 337 336 337 339 340 340 340 342 343 342 342 343 341 340 340 341 341 341 341 343 344 346 344 341 340 338 335
293 286 287 293 292 291 294 292 292 291 291 293 297 300 301 303 304 305 313 322 325 329 333 332 331 333 338 340 335 335 337 334 336 337 337 337 339 339 339 334 337 341 342 345 345 343 341 335 324
291 287 292 294 295 295 292 291 293 290 289 293 292 296 298 300 301 303 305 314 322 326 331 332 329 331 332 332 331 331 332 332 334 333 333 334 336 335 335 334 334 335 337 341 341 339 331 323 319
285 289 290 292 293 291 289 292 290 291 290 295 295 296 298 298 299 301 303 305 317 324 329 332 330 330 332 333 331 329 330 330 332 333 334 333 331 333 334 333 333 335 336 335 333 329 326 322 318
285 287 290 291 292 291 291 289 289 290 293 295 295 297 296 297 298 299 303 307 313 321 325 329 332 329 330 330 329 328 326 326 328 332 334 334 333 332 333 333 331 333 334 333 330 327 323 320 319
287 289 289 291 290 291 289 289 289 289 292 294 294 294 295 296 297 298 301 302 308 317 322 326 330 329 329 329 328 328 329 328 327 328 333 333 334 333 333 333 332 331 333 332 331 328 324 320 318
289 285 287 288 289 288 290 285 286 291 291 291 292 293 294 296 297 297 299 300 304 309 321 323 326 328 328 328 327 327 327 327 328 328 330 334 333 333 333 332 332 331 331 330 329 327 324 320 318
284 283 278 285 288 290 288 281 287 291 290 289 291 292 293 294 296 297 298 300 302 310 319 323 327 325 325 326 326 326 327 326 327 326 329 332 333 333 332 331 332 332 330 330 328 325 323 319 317
279 274 277 281 289 288 286 282 288 291 291 290 291 291 291 292 296 298 299 298 301 307 319 321 323 323 323 323 324 324 324 324 325 327 327 328 331 333 330 330 331 331 330 329 328 324 322 317 316
273 274 278 279 285 287 285 284 289 292 291 290 290 290 289 290 293 297 299 299 302 308 318 321 323 323 323 324 327 324 324 324 325 326 328 328 329 331 331 329 329 330 328 327 324 324 319 317 318
279 278 277 282 287 285 284 284 287 291 291 290 290 289 291 291 294 296 298 301 302 309 317 321 322 322 322 321 323 325 323 323 323 327 329 328 329 329 330 330 329 329 327 325 324 322 318 318 316
281 278 279 283 287 287 286 285 289 291 291 292 291 290 290 291 292 295 299 305 311 314 316 320 322 323 322 322 322 323 324 325 324 325 328 330 330 328 329 328 327 327 325 324 323 322 318 318 319
279 277 279 280 287 290 286 282 283 287 289 291 293 292 292 292 292 294 301 309 313 315 316 317 320 321 322 322 322 321 321 321 322 324 326 328 329 330 327 328 327 325 325 323 323 322 321 319 319
278 285 284 284 285 281 287 276 280 283 285 290 289 290 292 292 295 303 307 309 312 314 318 320 322 321 321 322 322 320 319 319 320 323 325 327 328 329 330 328 327 325 324 323 323 324 322 322 319
282 289 287 287 286 284 282 277 278 287 288 291 292 288 293 299 302 306 308 312 313 311 311 314 316 320 322 324 321 322 321 321 320 320 321 324 326 327 329 328 327 326 324 324 324 323 323 323 320
290 286 287 287 284 272 279 279 278 285 289 293 296 296 299 300 302 304 306 308 310 311 309 313 313 314 316 318 319 322 323 321 321 322 322 322 324 325 326 327 327 326 324 322 322 322 322 323 321
287 285 274 272 270 273 284 279 278 290 293 295 296 297 299 300 301 301 301 302 304 308 308 312 309 308 311 313 314 314 316 319 322 322 322 322 322 323 324 326 326 326 325 324 323 322 323 323 322
285 288 280 274 271 278 284 276 284 292 294 297 298 298 298 299 300 300 300 300 301 301 303 306 306 306 307 309 311 312 313 317 322 321 322 323 322 323 324 325 326 325 325 325 323 322 322 322 323
287 285 291 284 282 280 281 285 291 291 290 295 295 296 296 297 298 297 297 297 297 298 299 299 302 303 304 307 309 308 310 310 312 314 318 319 320 323 322 322 322 323 324 324 322 322 322 323 322
289 292 283 282 276 276 281 282 282 285 286 291 292 293 295 296 296 296 296 297 297 298 298 299 300 299 301 303 303 305 305 306 307 308 308 309 312 315 320 320 321 321 322 322 323 322 322 322 322
286 284 286 284 282 278 276 281 288 286 287 289 292 293 294 294 295 295 296 297 297 298 297 297 298 298 298 299 300 300 301 302 303 303 304 306 307 308 310 313 316 318 321 322 322 322 322 320 320
288 285 283 276 277 279 279 282 293 291 291 291 291 292 294 294 295 295 296 296 296 296 296 296 296 296 296 297 298 298 298 299 299 299 299 301 301 304 305 306 308 311 314 318 320 320 321 320 319

GFSSGP_sfc_thetae_102.txt.gz
Theta_e
320 320 317 307 294 291 286 290 294 296 296 298 299 298 298 300 299 296 327 339 342 345 349 351 355 357 358 357 357 357 357 357 356 353 351 352 352 350 350 350 349 348 349 352 352 351 348 346 345
318 318 310 299 289 281 282 292 295 298 300 301 301 300 297 300 309 325 328 340 344 347 348 348 355 356 357 357 356 356 355 357 356 355 354 356 352 351 351 352 351 354 353 352 352 350 347 345 344
316 315 302 294 287 283 283 292 294 299 301 300 299 299 300 311 326 327 333 342 345 344 346 348 354 355 356 355 356 356 355 354 355 355 354 354 353 351 351 352 354 352 352 352 352 349 346 345 344
308 306 301 290 286 290 290 293 298 297 299 299 297 295 302 325 322 333 338 342 343 342 344 350 353 354 354 355 356 356 354 354 355 354 354 353 353 353 351 354 353 352 350 351 349 346 345 344 343
305 299 289 286 286 292 294 297 296 294 294 296 295 295 296 321 312 322 339 342 340 340 344 348 354 354 353 352 354 355 355 354 353 353 352 352 353 353 353 352 352 351 350 349 347 346 344 342 343
297 296 284 282 286 292 294 295 294 291 292 294 295 294 298 313 306 326 335 338 341 341 345 348 351 353 352 352 351 351 354 354 354 353 353 353 352 353 352 350 351 350 349 348 345 345 343 341 341
295 288 283 283 286 289 292 294 290 291 292 292 296 291 298 302 305 315 333 335 336 340 343 344 347 348 349 349 350 349 350 351 353 353 352 351 349 350 351 350 350 349 349 347 346 344 342 340 340
297 293 287 284 285 288 293 295 294 293 292 297 297 293 294 299 304 311 329 333 335 337 338 340 342 343 344 344 346 347 348 348 349 350 348 345 344 345 348 347 346 348 347 347 345 342 340 341 340
298 288 283 286 288 289 294 293 296 295 292 293 296 296 299 301 306 305 309 320 330 333 334 335 337 339 340 341 342 344 343 345 345 344 342 341 340 342 341 341 343 345 346 346 344 341 341 340 337
292 285 286 292 292 290 293 291 291 291 290 290 294 299 299 299 301 301 302 305 313 325 331 334 333 335 337 341 337 335 337 335 336 337 337 337 338 338 340 337 340 343 344 344 344 341 340 335 325
291 286 291 292 294 292 291 289 291 288 287 290 291 294 296 297 298 300 300 302 306 318 327 332 332 332 336 335 332 332 332 332 333 334 334 335 336 334 334 333 338 336 334 338 341 337 330 323 320
284 288 289 290 291 290 288 290 288 290 289 294 294 294 295 295 297 299 299 300 302 309 322 329 332 331 333 334 332 330 331 330 330 332 333 332 331 330 331 332 333 334 337 338 337 333 329 322 318
284 286 290 291 291 290 290 288 288 288 292 294 294 295 294 295 296 298 300 301 303 304 316 327 330 331 331 332 332 331 330 330 331 331 332 331 330 329 333 333 333 334 334 333 333 332 326 322 318
286 288 288 289 289 290 288 287 288 288 291 292 293 293 292 294 295 297 299 300 300 303 310 322 330 330 330 331 330 330 329 329 329 331 331 331 332 329 329 330 332 332 334 332 332 330 326 323 318
288 284 285 285 287 287 289 284 285 290 290 289 290 292 292 293 295 296 298 298 299 301 306 315 327 330 329 327 328 329 329 330 328 327 329 331 331 330 330 330 329 329 333 332 330 329 325 321 319
283 281 278 283 287 289 287 280 285 289 288 289 290 291 292 293 294 295 297 298 299 300 302 315 325 328 327 326 326 326 327 326 326 329 329 330 331 330 329 329 330 331 331 331 329 328 325 321 320
278 273 276 281 288 287 285 281 287 290 290 289 291 292 293 294 293 295 296 297 298 302 302 312 321 322 325 325 325 325 324 325 325 326 326 328 331 331 330 330 329 331 331 331 329 327 326 321 320
273 273 278 278 284 286 284 284 288 291 290 290 291 292 292 291 292 295 297 298 300 302 305 311 321 321 322 323 322 323 322 322 322 323 325 326 330 332 330 327 328 328 325 327 328 327 323 323 322
278 276 276 281 286 284 283 284 287 290 291 290 291 292 291 291 293 295 296 298 299 301 305 312 319 320 321 322 322 322 321 320 320 323 325 326 326 328 330 329 326 328 324 324 326 326 324 319 318
280 277 277 282 286 286 285 286 289 291 290 290 290 291 291 290 290 294 296 297 298 300 306 313 319 321 321 321 320 321 321 322 322 323 326 327 327 327 327 329 329 328 327 326 325 325 322 322 319
277 275 277 278 286 288 287 283 283 286 288 289 293 292 291 290 291 292 295 298 303 308 312 315 319 321 321 320 321 320 320 322 321 323 323 324 327 328 328 328 328 327 327 325 325 324 323 319 318
278 283 283 284 283 279 288 276 280 283 288 293 294 291 289 291 293 294 302 306 309 313 317 318 318 320 320 323 322 320 318 318 319 320 322 324 326 327 328 327 327 327 326 325 325 324 323 321 317
282 287 286 286 284 283 280 278 278 285 288 291 294 295 297 301 302 301 307 310 311 312 313 316 320 319 321 323 322 321 320 321 321 320 319 320 322 325 326 328 327 326 325 325 325 323 322 322 321
289 286 287 287 284 272 278 278 277 285 289 292 296 297 298 301 302 302 304 306 307 311 311 310 313 313 314 319 318 317 317 319 320 320 320 322 321 323 325 326 327 327 327 325 324 324 323 322 322
288 285 273 270 268 272 282 278 280 289 290 294 295 297 299 300 300 300 300 300 301 303 306 309 307 307 310 310 312 313 312 314 318 321 321 322 322 322 323 325 324 325 325 325 324 323 322 321 321
287 288 281 271 269 274 282 274 283 290 292 296 297 297 297 297 297 297 297 298 299 300 301 302 304 304 307 309 309 310 311 312 313 313 319 320 319 321 324 325 325 325 326 325 324 323 323 323 323
285 284 291 283 282 278 277 285 291 291 290 293 294 295 294 295 296 296 296 297 297 298 298 299 300 301 302 303 306 305 306 307 308 309 310 310 311 313 315 321 322 322 324 325 324 323 321 322 321
288 289 279 282 271 270 276 279 282 286 286 290 291 291 292 295 295 296 296 296 297 297 298 298 299 299 300 301 301 302 303 303 303 304 304 305 307 308 309 311 314 317 320 322 322 322 322 321 321
284 282 284 283 280 277 275 277 289 287 289 288 290 291 291 293 295 296 296 296 297 297 297 297 297 297 298 299 299 298 299 300 300 299 300 301 302 303 304 306 308 310 312 315 319 321 321 320 320
286 283 282 276 276 277 278 278 292 293 292 290 289 291 291 294 295 295 296 296 295 295 295 295 296 295 296 297 296 295 296 296 297 297 298 298 298 299 300 301 303 304 305 307 309 311 315 319 319

GFSSGP_sfc_thetae_105.txt.gz
Theta_e
322 322 321 311 299 296 291 293 302 301 302 304 304 303 303 304 303 303 335 339 345 347 353 353 358 359 359 357 357 357 357 357 357 357 356 354 352 351 349 348 348 348 351 353 353 351 349 347 344
321 320 314 303 294 288 288 297 298 302 304 305 305 304 302 303 316 327 336 343 346 349 353 351 356 359 358 357 356 356 357 356 355 353 352 354 351 351 350 349 349 351 354 353 353 350 347 345 344
320 315 307 297 292 288 288 296 299 302 303 304 302 304 304 313 318 327 335 343 347 350 351 351 356 358 357 357 357 356 356 356 356 355 352 354 352 351 352 352 353 353 352 351 351 349 347 346 344
313 310 304 294 290 293 294 299 300 299 301 302 300 300 309 308 307 318 330 345 347 349 350 351 354 356 357 356 357 356 355 355 355 355 354 352 353 351 353 354 352 350 351 351 349 349 347 347 346
309 302 294 291 291 295 298 301 300 297 298 299 299 299 300 311 309 312 332 341 344 347 349 351 354 353 355 355 355 355 355 354 354 354 353 352 352 352 353 353 352 351 350 351 348 346 344 342 343
301 298 288 286 289 295 297 299 298 296 297 298 299 298 302 311 307 312 326 336 341 345 348 350 351 353 352 353 353 353 353 352 353 354 353 352 352 352 351 351 352 351 350 349 347 345 343 342 342
298 291 286 288 289 293 295 297 295 295 296 297 299 297 303 306 306 312 317 336 338 343 346 348 350 349 349 350 350 350 352 351 352 352 352 352 351 351 350 350 350 350 349 349 348 345 343 342 342
300 295 290 290 289 290 295 297 297 296 296 300 301 298 300 303 305 310 314 320 332 336 340 346 348 349 348 348 347 347 347 348 350 350 349 346 345 346 348 347 347 348 347 347 347 346 343 343 342
301 289 286 289 290 292 296 295 298 298 296 297 299 301 304 303 306 308 310 313 316 324 334 338 342 346 346 347 345 345 345 345 345 346 343 343 349 348 346 342 343 345 346 347 346 345 343 342 338
295 286 287 293 295 294 296 294 294 294 293 294 296 300 303 302 303 303 305 307 310 313 320 333 337 341 344 345 346 346 344 346 347 347 347 347 348 347 345 340 340 344 344 345 345 343 341 339 337
294 288 292 295 296 292 291 291 294 292 290 293 294 297 299 300 301 302 303 304 306 310 317 324 335 335 340 343 343 340 339 341 342 342 344 345 345 345 344 344 344 344 339 343 342 340 337 335 334
288 290 291 292 292 291 290 292 290 292 293 297 297 298 297 298 299 302 302 303 304 308 311 320 334 333 334 340 339 338 335 338 339 341 341 342 343 342 343 342 343 342 342 341 342 339 336 331 330
288 288 290 292 291 291 292 290 290 290 294 296 296 296 296 297 298 300 302 303 305 305 308 312 327 333 332 334 336 334 334 334 336 339 339 340 341 339 339 338 340 341 341 340 340 339 335 332 327
289 289 289 290 290 290 289 289 290 291 293 293 294 295 295 296 297 298 300 301 302 305 307 310 316 331 332 332 332 336 332 332 332 335 338 338 339 335 338 338 336 337 338 338 339 338 336 332 330
289 285 286 287 289 288 290 285 286 292 292 291 292 293 295 296 296 297 299 300 301 303 306 306 310 323 332 330 332 335 332 331 330 331 335 336 338 337 336 336 337 337 338 336 335 337 334 333 330
283 283 281 286 288 289 289 284 288 292 291 292 293 294 295 296 296 298 299 300 301 302 303 306 309 322 330 330 330 333 331 332 331 330 331 331 335 336 336 336 336 337 337 337 336 331 331 328 330
281 279 280 283 289 288 288 285 289 293 293 292 293 294 295 296 298 300 299 300 301 302 304 305 310 318 326 329 329 331 331 331 330 331 330 331 332 334 335 335 336 336 336 335 335 331 329 327 325
278 279 280 280 286 287 285 285 290 293 293 292 293 294 295 296 297 300 299 300 301 302 305 306 308 316 326 326 327 327 328 329 329 330 329 330 331 333 334 333 333 335 333 332 333 331 327 326 326
280 280 279 282 286 285 284 285 288 292 293 293 293 294 295 296 298 299 298 301 302 303 303 306 310 317 324 324 325 324 323 325 327 328 328 329 329 331 333 332 331 332 330 329 330 331 327 324 323
282 279 279 283 286 287 287 286 290 292 292 293 292 294 295 295 295 296 298 300 301 302 303 305 310 321 324 326 324 326 326 327 327 328 328 329 329 330 331 332 330 330 330 328 327 327 325 325 321
279 278 279 281 285 289 287 286 286 288 290 293 297 297 297 296 297 298 297 299 302 302 306 307 311 320 322 325 325 324 325 326 325 326 327 328 329 331 330 330 332 332 330 330 327 325 323 321 322
278 283 284 283 284 280 288 277 283 286 287 293 296 297 299 300 302 303 305 306 308 310 313 317 318 322 323 324 324 322 320 319 323 325 327 327 329 329 331 331 330 331 330 329 326 326 324 323 318
284 287 286 286 284 284 282 280 283 286 288 290 296 297 300 301 302 302 304 306 309 311 314 319 321 322 323 323 323 322 319 321 323 323 323 324 326 328 329 330 330 330 330 330 329 325 324 324 322
289 287 288 287 284 276 278 280 282 285 287 290 296 298 298 300 300 300 302 303 303 306 310 311 314 314 316 317 317 316 316 316 320 322 321 323 325 326 326 327 329 330 329 328 327 326 326 324 323
288 286 278 273 271 275 281 280 282 289 290 292 294 295 296 297 298 297 298 300 301 302 304 306 308 309 311 312 312 312 312 313 313 313 320 321 323 323 324 325 325 326 328 328 327 326 325 324 322
288 287 281 274 272 276 283 278 283 291 292 293 296 295 295 295 296 296 297 297 298 300 301 302 303 303 306 307 307 307 308 308 307 308 309 310 310 312 314 315 321 324 325 325 325 325 324 324 323
288 284 291 283 282 278 278 283 291 294 290 291 292 292 292 294 295 295 296 296 297 297 298 299 300 301 302 301 302 303 304 303 302 303 304 306 307 309 310 311 312 314 316 318 323 324 323 323 322
289 290 280 283 275 273 277 279 283 287 287 290 290 289 290 294 295 296 296 296 297 297 297 298 298 298 299 299 299 300 300 301 301 301 300 301 302 303 304 306 308 309 310 310 313 318 321 321 322
286 284 285 284 282 276 276 279 290 289 290 289 289 290 290 294 295 295 296 296 296 296 296 297 297 297 297 297 296 296 297 298 299 298 298 298 299 299 300 301 302 303 304 306 307 309 311 312 318
287 285 283 278 277 279 278 280 292 293 292 291 290 291 293 295 295 295 295 295 294 294 294 295 295 295 295 294 293 293 293 293 294 294 295 296 295 296 296 297 297 298 300 302 303 303 305 305 307

GFSSGP_sfc_thetae_108.txt.gz
Theta_e
324 328 333 321 303 302 297 298 307 304 305 309 310 308 308 309 307 306 340 345 349 348 352 352 358 359 358 359 359 358 358 358 358 358 355 354 353 351 349 349 348 351 354 352 350 350 349 348 345
328 326 325 314 300 295 296 302 302 307 308 310 309 309 307 307 326 326 339 339 349 349 353 351 358 358 358 358 357 357 357 358 357 357 357 355 353 351 349 349 348 350 353 353 354 352 350 347 345
325 321 313 305 300 296 297 301 304 306 307 307 307 308 309 312 316 319 325 336 348 350 353 351 356 355 357 357 357 356 357 357 356 355 355 356 352 351 350 349 351 352 351 352 352 350 348 346 345
322 319 311 300 295 298 300 304 304 304 305 306 305 304 314 311 311 314 326 339 348 349 351 352 355 355 354 354 355 355 356 356 356 355 354 355 352 352 352 353 352 352 350 350 348 346 346 346 344
321 313 300 297 296 299 303 306 305 302 303 304 305 303 306 311 313 315 322 339 341 348 350 350 353 353 354 354 354 353 354 352 353 353 353 352 352 353 352 351 351 350 350 349 348 346 345 345 345
308 307 296 294 295 299 302 304 303 302 303 304 304 304 308 313 311 314 319 336 341 343 349 349 349 351 351 352 352 352 353 352 353 352 353 352 351 352 351 352 352 350 350 350 348 346 344 342 342
302 299 294 294 294 296 299 302 301 301 302 302 305 302 308 311 312 314 317 321 339 342 348 348 348 348 348 350 350 352 353 352 352 351 351 351 350 350 351 351 352 351 351 349 349 346 343 343 342
307 302 294 295 294 294 300 301 302 301 301 306 306 302 305 311 312 314 317 319 319 327 340 346 348 346 346 346 347 347 348 349 351 350 348 346 347 348 349 348 349 349 349 349 347 347 344 344 344
307 296 293 294 294 295 300 299 302 302 300 302 304 305 309 310 310 311 313 316 318 318 319 328 343 347 346 345 344 345 345 345 345 346 344 345 348 347 347 343 344 345 346 346 347 346 345 343 340
300 294 292 297 299 297 299 298 298 297 298 298 300 303 306 307 307 306 307 309 313 315 316 318 325 341 346 345 346 345 344 344 342 342 344 346 345 345 343 340 340 344 344 344 346 346 343 340 337
299 294 296 298 299 298 296 295 297 295 294 298 297 300 302 303 304 305 305 307 309 312 315 317 318 336 338 346 347 346 345 345 344 343 345 344 343 345 345 345 345 348 339 344 344 344 340 336 335
293 296 296 296 296 295 294 296 294 295 297 300 300 301 301 301 302 303 304 305 306 308 311 316 317 322 336 338 344 347 344 342 342 342 343 342 341 344 342 342 345 346 345 344 343 341 337 336 335
292 292 294 295 295 295 295 294 294 294 299 300 300 300 300 301 302 304 305 305 306 306 309 312 315 317 328 335 338 343 343 339 337 340 343 342 342 343 343 344 345 346 346 344 344 340 338 333 329
293 293 293 293 293 293 291 293 292 297 298 298 298 300 301 302 303 304 305 305 306 307 308 310 312 315 322 331 335 337 342 340 335 334 337 340 343 344 344 343 343 343 345 342 340 340 338 333 328
293 290 291 292 293 292 294 292 291 297 298 298 301 302 303 303 304 304 305 305 306 307 308 308 309 312 316 326 334 334 339 341 338 333 334 336 339 342 341 342 341 342 344 339 339 339 337 337 331
289 290 288 290 293 293 293 291 296 297 297 299 300 301 301 303 304 305 306 305 306 307 307 308 308 309 314 322 333 334 339 336 333 334 332 334 336 338 339 338 339 341 340 340 339 338 335 335 333
289 287 286 289 293 292 292 291 297 299 299 298 299 300 302 303 304 306 307 307 307 307 307 308 309 309 312 320 331 333 335 335 334 336 332 331 332 333 336 336 337 337 337 338 338 338 337 332 333
285 286 286 287 291 292 292 292 297 300 299 298 299 301 302 302 303 304 305 306 306 307 307 307 308 309 312 321 329 331 331 333 336 335 334 332 332 333 334 335 335 335 334 335 337 335 335 334 334
287 286 286 290 291 290 292 293 296 299 298 298 300 301 302 303 306 308 308 306 306 306 307 307 308 309 310 318 322 324 324 329 330 332 334 332 329 331 332 333 333 332 331 332 332 331 331 329 332
287 286 288 291 290 292 293 292 296 296 297 299 300 301 302 303 305 307 310 310 306 306 307 308 309 310 311 321 324 328 328 328 331 334 333 333 331 333 332 331 332 333 331 330 329 330 328 328 331
287 285 286 286 291 295 292 292 291 293 296 299 301 302 303 302 301 306 306 310 313 311 309 308 309 311 312 320 326 327 329 331 329 330 331 331 332 332 332 332 332 332 332 329 330 331 330 326 328
284 289 288 288 288 285 292 284 291 292 293 297 299 299 300 301 303 305 305 306 310 312 315 317 314 316 315 323 325 323 326 324 326 328 331 331 332 332 332 332 331 331 331 331 332 333 330 328 322
289 290 289 289 287 285 287 283 290 291 292 294 297 297 300 299 301 300 303 304 306 307 312 319 319 319 322 322 321 324 322 324 324 324 323 327 329 330 331 331 330 330 331 331 331 331 330 329 322
292 290 290 289 286 280 285 285 289 290 289 292 295 296 297 297 298 298 301 302 303 306 308 312 314 315 317 316 316 317 317 319 318 318 321 323 325 328 328 328 328 330 330 330 331 330 328 328 325
291 289 284 282 281 283 285 282 289 292 292 293 293 294 296 296 297 296 297 298 300 301 303 305 306 306 310 311 311 313 311 311 309 310 311 311 311 312 313 315 320 324 326 328 328 327 326 326 326
291 290 283 277 281 283 286 281 291 294 295 295 295 294 294 295 296 296 296 296 297 299 302 303 302 302 304 305 306 307 307 307 305 305 306 306 307 308 309 310 312 314 316 317 318 322 325 326 325
291 287 291 284 286 281 287 289 293 296 294 292 292 292 292 294 295 295 296 296 296 297 298 300 300 300 301 302 302 303 304 302 302 302 303 303 303 304 305 306 307 308 310 310 312 314 316 321 323
293 294 285 287 278 278 284 285 288 290 290 292 291 290 291 295 295 296 295 295 296 297 297 298 298 297 297 297 298 299 299 300 300 299 299 299 299 300 301 301 302 303 304 306 307 308 309 310 312
290 289 289 288 286 281 280 286 294 291 292 291 291 291 292 294 295 295 295 295 295 296 296 297 296 295 295 294 294 294 294 296 296 297 296 296 297 297 297 298 298 299 300 303 303 304 305 305 306
292 290 290 284 281 286 284 285 296 294 293 293 292 292 294 295 295 295 295 295 294 293 294 294 295 294 293 293 292 292 292 291 292 292 292 293 293 293 294 294 295 295 296 298 299 300 302 302 302

GFSSGP_sfc_thetae_111.txt.gz
Theta_e
326 330 331 322 305 303 300 301 308 305 306 312 312 311 310 311 309 309 337 337 344 347 351 350 358 359 358 358 357 358 358 357 358 357 355 355 353 351 349 348 347 349 350 350 348 351 351 349 347
328 327 325 315 302 297 300 305 304 308 310 311 311 310 309 311 323 322 331 329 345 349 352 351 357 357 356 357 357 358 358 357 357 356 355 354 353 351 349 348 347 350 352 353 352 352 351 349 346
328 325 314 306 301 299 300 304 307 308 310 309 308 311 311 312 317 317 322 338 345 349 349 352 356 356 355 355 355 353 355 357 356 356 356 354 353 352 350 349 349 351 352 351 351 351 349 346 345
322 319 312 302 299 301 303 306 306 306 308 309 308 306 313 315 313 317 324 341 344 347 349 352 355 355 355 355 356 355 354 355 353 353 354 355 352 352 351 352 351 352 350 351 351 348 346 346 345
322 314 302 299 300 301 306 308 307 304 305 306 307 306 309 314 317 318 321 333 341 344 348 350 354 352 354 353 353 353 352 353 353 353 352 352 352 352 352 351 353 352 349 350 348 346 345 344 344
309 309 298 297 299 302 304 307 305 304 305 306 305 305 309 315 315 317 320 324 341 342 347 348 350 352 352 353 353 352 353 352 352 352 351 350 351 351 351 351 352 351 349 349 348 346 345 344 344
306 301 298 299 298 299 301 304 302 303 303 304 307 303 311 315 315 316 318 322 325 336 344 348 347 347 349 350 350 351 352 352 353 352 352 351 350 350 350 350 351 351 351 350 349 348 346 344 343
307 302 297 298 296 297 302 303 304 303 303 308 307 302 305 314 314 315 317 320 323 324 325 333 346 347 345 345 347 348 349 350 351 350 349 347 347 347 348 347 347 350 350 349 348 347 345 344 345
308 297 296 296 296 298 302 300 304 305 302 303 305 306 309 310 310 311 312 316 319 322 321 322 326 343 345 344 343 345 345 345 345 346 344 344 346 344 345 343 343 347 348 347 347 346 345 344 342
302 297 296 300 301 300 301 299 300 298 299 300 302 305 306 307 307 306 307 309 312 315 319 320 321 325 341 344 345 345 342 341 340 339 341 343 342 341 340 339 340 345 346 345 346 345 344 340 337
300 297 298 299 301 300 298 297 299 297 296 299 298 301 303 304 305 305 305 306 308 312 314 317 319 321 332 340 345 345 344 346 343 341 340 340 339 342 341 342 344 346 339 346 343 343 341 337 333
296 298 298 298 298 297 295 298 296 297 298 302 302 302 302 302 304 305 305 306 307 308 312 316 317 320 322 337 340 344 343 345 342 341 341 340 340 342 339 340 343 345 345 344 346 344 341 338 334
295 295 296 297 296 296 296 295 295 296 300 302 302 302 303 304 305 307 308 308 308 307 310 312 315 318 320 324 337 341 342 343 343 341 340 339 340 341 340 340 343 343 345 344 344 344 340 337 334
296 295 295 295 294 295 293 295 295 298 300 300 302 304 305 306 307 307 308 308 309 310 310 311 311 314 318 320 328 337 341 342 341 339 338 338 339 339 341 343 344 344 346 345 343 341 342 337 334
295 292 294 294 294 294 296 294 294 300 300 300 302 304 305 305 306 305 307 307 307 308 309 310 311 311 312 317 321 330 338 340 339 338 336 336 334 336 337 340 342 343 345 344 344 342 341 338 335
292 292 290 293 294 295 295 291 299 300 300 300 302 304 304 305 306 307 307 308 308 309 308 309 309 311 310 310 317 324 335 338 341 339 338 335 335 335 335 336 339 340 340 341 339 337 334 336 333
291 290 289 291 295 294 295 293 299 302 302 301 302 303 303 304 306 309 309 309 308 308 309 309 310 310 311 310 312 320 334 336 339 338 334 333 334 334 333 332 333 336 337 337 337 338 337 334 335
289 288 289 289 294 294 293 293 298 302 302 301 301 303 303 305 307 309 310 312 313 309 309 309 309 309 310 311 314 321 332 335 336 334 333 332 332 332 332 333 332 331 334 335 335 335 336 334 333
290 289 289 292 294 292 294 295 298 301 300 299 301 302 304 305 308 309 310 311 312 313 309 308 308 309 310 311 311 319 325 328 333 336 334 333 333 333 333 331 331 332 331 331 332 332 331 330 332
290 289 290 293 293 294 295 294 299 298 298 299 300 302 303 303 305 306 308 310 310 311 314 311 309 309 310 312 313 321 324 326 328 331 333 333 333 333 332 331 331 333 332 330 330 330 328 329 330
290 288 289 289 294 297 294 294 294 297 297 299 302 303 302 301 301 304 305 305 307 308 311 312 314 310 311 312 316 323 326 326 326 329 332 332 333 333 333 332 332 330 332 330 330 329 327 324 328
288 292 291 291 290 288 294 286 294 296 295 298 301 300 299 300 302 303 302 302 305 306 310 313 316 315 313 316 314 320 321 323 328 328 329 331 331 330 331 333 332 331 331 329 329 331 330 328 325
291 293 292 291 287 287 289 287 293 294 294 297 298 298 298 299 300 300 300 300 302 304 307 310 316 317 317 317 319 321 320 322 322 325 326 327 327 329 328 330 330 330 330 329 330 329 330 330 327
294 293 291 291 289 283 288 287 290 294 294 295 296 296 297 298 299 300 301 301 300 302 305 307 310 311 316 317 316 315 314 312 312 315 319 318 317 315 315 318 321 327 327 326 327 328 328 328 327
294 292 287 284 284 285 288 285 289 296 296 295 294 294 295 297 297 297 297 298 298 298 302 304 305 306 309 310 309 309 309 310 309 310 310 311 311 310 310 312 314 315 316 316 318 321 325 326 324
293 291 284 278 282 285 288 283 292 298 299 297 296 294 295 295 297 296 296 297 297 297 299 301 302 303 305 306 305 305 305 305 305 305 306 305 305 305 306 308 309 309 310 311 312 316 315 315 322
292 288 293 285 287 282 287 291 297 298 297 296 294 294 293 294 296 296 296 296 296 297 297 299 298 298 299 301 302 302 303 301 300 300 301 300 301 301 302 303 303 304 305 307 308 309 308 309 312
294 295 286 287 279 279 286 288 290 292 291 294 293 292 293 295 296 296 296 295 296 296 297 297 296 295 295 295 295 296 296 297 298 298 296 296 297 298 298 299 299 300 301 303 304 305 305 305 306
291 290 290 289 287 281 280 287 297 293 294 293 294 293 293 295 295 295 295 296 295 295 295 295 295 293 294 293 292 292 293 293 293 293 294 294 295 294 294 295 296 296 296 298 299 299 301 301 302
295 293 292 285 283 287 285 284 298 297 296 295 294 294 295 296 296 296 295 295 294 294 294 293 294 293 292 292 292 292 292 292 291 291 291 292 292 293 293 293 293 293 294 296 296 295 296 297 297

GFSSGP_sfc_thetae_114.txt.gz
Theta_e
328 325 327 319 302 299 295 298 303 302 302 306 308 306 303 309 309 308 322 329 342 345 351 352 359 358 357 357 358 356 357 357 357 355 355 354 354 351 348 346 345 346 348 348 346 350 351 349 348
325 325 322 312 297 291 294 300 301 305 307 307 306 307 305 311 313 314 315 329 343 347 352 348 357 357 357 357 357 357 356 357 355 354 353 354 353 352 349 348 346 349 351 352 352 352 352 348 347
324 325 311 303 296 293 295 301 304 306 306 306 304 306 310 308 312 310 318 336 342 344 349 351 355 356 356 355 355 355 356 355 355 354 354 354 352 352 350 349 349 351 352 351 352 352 349 347 347
320 317 311 297 295 297 300 301 304 305 304 304 304 304 310 313 312 313 319 327 340 343 347 348 353 355 355 355 355 354 354 355 354 354 354 353 352 352 351 352 351 351 351 351 351 349 347 347 347
319 312 298 294 296 298 304 305 304 301 301 302 303 301 306 311 315 315 317 323 337 341 346 349 352 353 352 353 353 354 354 353 353 353 353 353 352 351 351 352 352 351 352 349 349 348 346 345 346
307 306 295 292 296 299 302 304 302 300 301 302 300 300 305 311 311 313 317 319 324 334 343 348 349 352 352 352 352 352 353 353 353 353 352 353 352 351 350 350 351 352 352 348 349 348 345 344 344
305 298 295 294 296 297 299 301 297 299 298 299 300 297 306 309 310 312 314 318 321 324 325 334 346 347 348 349 350 351 351 352 352 353 352 351 350 350 350 351 350 350 351 349 350 348 347 344 345
305 298 294 293 294 295 300 301 302 299 299 302 301 296 298 302 305 309 311 314 317 320 321 321 324 343 344 345 347 347 348 349 349 350 348 346 345 346 349 348 347 349 350 350 348 347 347 346 345
307 294 292 293 294 296 300 298 301 301 297 298 298 299 301 303 306 305 305 309 312 317 318 317 319 320 335 342 344 345 345 345 345 345 343 342 343 342 343 342 342 346 348 349 349 347 345 343 342
299 293 294 298 298 297 299 296 296 295 295 295 297 301 301 302 302 301 301 301 305 307 312 315 316 317 319 338 341 342 343 339 339 340 341 342 341 340 340 339 339 344 346 346 347 346 344 341 336
298 294 297 298 300 299 297 295 297 293 292 294 293 296 299 299 300 301 300 300 301 304 308 311 313 316 316 322 336 340 342 341 340 337 335 335 337 336 335 336 339 340 338 342 342 340 339 335 332
293 297 297 299 298 297 294 296 293 294 294 298 296 298 298 298 300 301 301 301 301 303 305 308 310 311 315 317 332 335 338 341 339 338 338 337 334 335 336 335 339 339 339 339 338 338 337 335 332
293 294 296 297 296 294 295 292 292 293 296 298 299 301 299 300 302 303 305 305 305 304 306 307 308 308 312 314 318 332 336 338 340 338 336 336 336 333 334 333 336 340 339 338 338 338 338 336 333
294 296 295 295 294 294 293 293 294 294 296 298 300 300 301 302 302 302 302 303 303 304 304 306 308 308 309 310 313 321 334 337 337 337 336 335 335 334 334 336 337 337 339 339 338 337 337 334 335
294 290 292 293 294 294 295 291 292 296 298 297 299 300 302 302 302 301 303 302 302 304 305 304 305 306 306 306 308 312 325 335 335 334 332 332 332 334 333 335 336 337 338 338 337 336 336 334 332
290 288 285 291 294 294 293 286 295 297 295 296 299 300 302 302 302 305 306 306 308 306 303 306 308 306 305 304 304 308 313 330 334 336 332 331 332 331 331 334 332 336 336 336 336 335 333 333 331
286 282 285 288 295 294 291 288 295 298 298 297 298 298 299 301 305 306 307 307 308 309 307 304 305 306 305 306 306 304 307 326 331 334 333 331 330 331 330 331 329 330 330 332 333 332 332 329 329
283 282 286 284 291 292 290 290 295 298 298 296 296 296 298 302 304 306 306 308 309 308 309 309 306 305 306 306 306 306 309 324 329 332 329 328 329 330 328 328 328 329 327 327 330 330 330 329 329
288 286 285 289 293 290 290 291 294 298 296 295 294 296 298 300 303 305 307 306 306 307 307 308 310 308 305 304 303 303 305 321 324 327 331 329 330 330 328 328 329 326 326 326 329 328 327 327 329
288 285 286 291 294 292 291 291 295 298 296 295 295 297 297 299 300 303 304 303 304 305 306 307 309 310 310 305 306 306 312 318 321 325 328 329 330 331 329 329 326 326 327 326 327 326 325 326 328
286 283 286 286 292 294 291 289 291 294 295 298 298 299 298 297 297 300 301 301 301 302 303 306 308 311 314 307 307 309 313 317 318 321 325 327 329 329 330 327 326 326 326 325 325 326 326 323 324
285 291 291 290 286 280 290 277 289 291 292 295 296 295 295 296 298 300 300 300 300 301 304 307 309 313 315 311 307 306 309 311 315 318 324 327 329 329 329 329 327 325 325 324 324 327 326 324 322
289 293 291 290 287 284 285 279 287 291 290 293 293 294 295 296 297 298 299 300 301 301 303 306 307 310 310 313 311 310 308 310 314 313 317 320 319 320 321 322 325 325 324 322 323 325 323 325 322
294 291 292 291 287 279 282 281 283 288 289 292 294 294 295 296 297 299 299 300 299 300 301 304 304 305 308 309 309 308 309 310 310 309 310 312 312 312 314 317 317 318 317 317 319 322 322 322 323
293 287 277 276 281 276 285 278 283 291 293 292 292 292 294 296 297 297 297 297 297 297 298 302 300 301 304 305 304 304 303 304 304 305 303 304 305 305 306 308 309 309 311 312 312 316 315 313 317
290 288 275 271 272 276 285 275 285 295 296 296 294 292 293 295 296 297 296 297 297 297 297 296 298 297 299 301 302 302 301 300 300 299 299 299 300 301 302 303 304 305 306 307 309 310 309 309 310
289 286 289 279 281 276 279 286 293 295 294 293 292 293 293 294 296 296 296 296 296 297 296 295 295 294 294 294 296 296 298 298 297 296 297 297 297 298 299 299 300 301 303 304 305 306 305 306 307
291 293 281 284 270 272 278 283 282 289 289 293 291 290 292 295 296 296 296 296 296 296 296 296 295 294 293 293 292 292 293 294 294 295 294 294 293 294 294 295 297 297 298 300 301 301 302 302 303
288 287 287 286 282 274 274 277 293 290 292 292 292 292 293 295 296 296 296 296 296 295 295 294 294 293 293 292 292 291 291 292 291 291 291 292 293 293 293 293 294 294 295 297 297 297 298 297 298
291 289 288 279 279 281 279 279 296 295 295 294 294 294 293 296 296 297 297 296 295 294 294 293 293 293 293 292 291 291 291 291 291 290 290 290 289 290 289 288 289 290 291 293 293 293 294 295 295

GFSSGP_sfc_thetae_117.txt.gz
Theta_e
327 323 317 312 296 293 290 294 296 298 299 301 304 303 305 307 308 306 319 325 340 344 350 353 358 357 357 357 357 356 357 356 355 354 354 353 353 351 347 345 345 348 346 345 346 349 350 349 349
322 322 314 305 292 285 289 296 297 300 302 304 305 304 304 305 309 309 312 322 341 345 350 350 357 356 357 357 357 356 356 355 356 355 354 353 351 352 349 347 345 347 348 350 350 351 352 348 347
320 323 306 298 290 288 291 298 299 301 303 302 302 307 307 305 309 308 313 323 341 343 348 349 354 354 354 353 355 356 356 356 355 355 354 353 352 351 350 349 348 350 351 352 352 350 349 348 347
314 311 304 293 290 294 295 295 301 301 302 303 300 302 307 311 310 311 315 323 337 342 345 350 352 353 353 353 354 354 354 353 354 354 353 353 351 351 351 351 351 349 350 351 352 349 348 348 347
312 304 293 288 292 296 298 301 301 298 298 299 299 298 302 310 312 314 315 319 326 333 343 348 352 353 353 351 352 352 353 353 352 353 353 352 351 351 351 352 351 350 351 351 350 349 347 346 346
303 300 290 288 291 296 296 298 298 297 298 298 298 297 302 307 308 310 315 316 321 320 328 341 348 351 352 352 352 352 352 352 353 352 352 352 352 352 351 351 351 352 351 351 349 349 347 345 345
300 293 290 289 292 293 295 298 294 295 296 297 298 294 302 303 306 309 311 312 317 321 321 322 328 346 346 348 349 350 351 351 351 352 352 350 350 350 350 351 351 351 352 351 349 349 348 345 345
299 294 289 288 291 292 297 299 299 297 295 300 299 293 295 296 302 305 305 308 312 317 317 316 318 322 328 344 346 346 348 348 349 349 347 345 344 345 348 348 348 350 350 350 349 349 347 346 345
301 290 288 290 292 294 297 296 299 298 294 296 295 294 298 299 302 301 301 302 305 310 314 313 315 315 316 323 343 343 344 344 345 344 342 341 342 342 342 342 342 346 348 349 349 349 346 344 342
295 289 291 296 294 294 296 294 293 292 292 292 294 297 298 299 299 298 298 298 299 301 305 309 312 313 315 317 329 338 341 342 341 342 341 341 341 341 341 338 338 343 345 345 349 348 345 341 337
294 290 295 296 297 297 295 293 295 291 289 291 291 294 296 297 298 299 299 298 299 301 303 305 305 308 310 313 316 333 337 338 339 336 337 338 341 339 339 334 336 339 338 340 343 343 340 336 334
291 294 295 297 296 294 292 293 291 292 292 295 294 297 297 297 298 299 300 301 301 302 304 305 306 307 307 312 312 323 331 336 337 339 338 334 334 332 334 332 335 337 339 338 337 337 336 335 334
290 291 294 295 294 292 293 290 289 291 294 296 297 299 297 298 300 301 302 302 301 300 302 304 305 305 306 306 310 313 326 332 336 338 337 335 333 335 335 332 334 337 338 337 336 336 336 335 333
291 293 293 293 292 293 292 291 292 292 294 296 297 297 298 299 300 299 302 302 302 304 303 303 304 304 305 305 305 308 316 329 333 335 336 336 331 333 332 332 333 334 337 337 338 336 336 335 334
291 288 289 290 292 292 293 288 289 293 295 295 296 298 299 301 300 301 304 304 304 306 306 304 305 306 304 303 303 304 307 318 331 333 333 330 332 330 331 331 331 334 336 336 335 334 335 334 332
287 286 281 289 292 293 290 282 292 295 294 293 295 297 299 301 304 304 305 305 306 306 306 308 310 307 304 303 303 303 304 307 320 331 332 330 329 330 328 330 332 333 334 334 333 335 333 333 332
284 279 282 286 293 292 289 285 293 295 295 293 295 295 299 301 303 304 305 305 305 306 306 307 309 309 308 305 303 303 303 303 314 327 331 330 329 327 327 329 329 329 329 330 330 330 330 329 331
279 279 283 283 289 291 288 287 292 295 295 294 294 294 297 299 301 304 305 305 305 305 306 306 307 309 310 310 305 303 304 306 311 321 328 329 329 328 325 326 327 327 325 325 326 327 327 328 328
285 283 281 287 291 290 287 288 292 295 295 294 293 294 296 297 300 303 303 303 303 303 304 304 305 307 309 309 307 301 301 304 309 321 325 326 326 325 326 326 325 325 323 323 324 325 322 322 327
286 282 283 288 293 291 289 289 294 296 295 294 294 294 295 295 297 300 301 301 300 300 301 303 305 307 310 312 313 305 303 308 315 319 320 322 325 326 327 327 325 324 321 322 324 326 325 325 327
284 282 283 284 290 291 289 285 289 293 294 296 297 297 295 294 295 297 299 299 299 299 300 303 305 307 309 310 312 308 307 310 313 313 315 318 322 324 326 327 327 324 323 323 323 324 324 320 321
282 289 290 289 283 276 288 275 285 289 290 293 293 293 292 293 295 297 298 298 298 298 300 301 304 307 308 309 308 307 304 305 308 310 312 317 316 316 317 324 326 325 325 321 322 322 321 319 317
287 292 289 289 283 280 282 276 283 288 287 291 290 291 291 292 295 296 296 298 299 298 298 300 302 304 306 307 307 307 308 308 309 309 311 312 311 311 310 313 321 325 324 323 322 321 321 321 322
293 290 290 291 287 276 279 279 280 285 289 291 292 290 292 294 295 297 298 298 298 298 299 297 298 299 303 305 304 303 304 304 303 304 304 307 305 305 305 307 311 312 315 315 317 319 317 317 321
291 284 271 276 275 274 283 275 282 289 291 292 291 288 288 292 293 297 296 296 297 298 298 297 296 295 297 300 301 301 301 299 298 298 298 300 299 298 299 302 304 306 307 310 312 311 310 311 311
288 285 272 268 269 273 280 274 282 292 293 293 293 291 289 292 293 294 296 295 296 297 297 296 295 294 294 294 296 298 299 297 296 296 297 295 297 296 298 299 299 302 303 305 307 306 307 308 307
288 281 288 276 275 271 274 282 290 293 291 291 291 291 288 289 295 296 294 294 296 293 296 295 294 294 293 293 293 293 294 295 295 295 296 295 295 295 296 297 297 298 299 300 300 302 301 304 305
290 291 279 279 268 270 273 278 281 287 289 292 290 290 290 292 294 295 294 295 295 296 295 296 295 293 293 293 292 292 292 292 292 292 291 292 292 293 293 294 294 295 296 298 297 296 297 296 299
286 284 286 284 280 273 273 275 288 289 291 291 292 291 290 291 293 294 296 296 295 296 295 294 294 293 293 292 292 291 291 291 291 290 290 288 289 290 290 290 290 290 291 293 293 293 294 295 296
290 287 286 277 277 278 277 276 291 294 293 294 292 292 291 293 294 295 295 295 294 293 295 292 290 291 290 291 289 288 289 289 289 288 288 288 288 289 289 289 287 288 288 288 289 289 290 290 290